ftp/pub/palmer/observations_modified/2019/March/AR190308_BASE.txt

Download

Sample DateTime	Unit Id	WS Avg 2min	WD Avg 2min	WGS 10min	WGD 10min	Air Temp	Rel Humidity	Dew Point	Pyranometer	Quantum	Air Pressure	Snow Level	Rainfall	PW Current	Visibility	CBase 1	CBase 2	CBase 3	Vert Vis
2019/03/08  00:00:00  BASE  3.19872  349  3.75144  360  -0.5  76    -4.2  0     0     996.3    NA       0.0000   9999     2790  0     0    
2019/03/08  00:01:00  BASE  3.09876  360  3.75144  360  -0.6  76    -4.3  0     0     996.3    NA       0.0000   9999     2760  0     0    
2019/03/08  00:02:00  BASE  2.96352  3    3.75144  360  -0.6  76    -4.3  0     0     996.3    NA       0.0000   9999     2790  0     0    
2019/03/08  00:03:00  BASE  2.9694   1    3.75144  360  -0.6  76    -4.3  0     0     996.3    NA       0.0000   9999     2760  0     0    
2019/03/08  00:04:00  BASE  2.94     358  3.75144  360  -0.6  76    -4.3  0     0     996.3    NA       0.0000   9999     2760  0     0    
2019/03/08  00:05:00  BASE  2.80476  2    3.75144  360  -0.6  76    -4.4  0     0     996.3    NA       0.0000   9999     2760  0     0    
2019/03/08  00:06:00  BASE  2.72244  4    3.75144  360  -0.6  75    -4.4  0     0     996.3    NA       0.0000   9999     2850  0     0    
2019/03/08  00:07:00  BASE  2.7048   1    3.75144  360  -0.6  75    -4.4  0     0     996.3    NA       0.0000   9999     2890  0     0    
2019/03/08  00:08:00  BASE  2.47548  1    3.44568  4    -0.6  76    -4.4  0     0     996.3    NA       0.0000   9999     2820  0     0    
2019/03/08  00:09:00  BASE  2.46372  0    3.41628  308  -0.6  76    -4.2  0     0     996.3    NA       0.0000   9999     2790  0     0    
2019/03/08  00:10:00  BASE  2.63424  0    3.41628  308  -0.6  77    -4.1  0     0     996.3    NA       0.0000   9999     2790  0     0    
2019/03/08  00:11:00  BASE  2.53428  359  3.41628  308  -0.6  78    -4.0  0     0     996.3    NA       0.0000   9999     2820  0     0    
2019/03/08  00:12:00  BASE  2.3814   1    3.41628  308  -0.6  78    -3.9  0     0     996.3    NA       0.0000   9999     2790  0     0    
2019/03/08  00:13:00  BASE  2.48136  5    3.1752   240  -0.6  78    -3.9  0     0     996.3    NA       0.0000   9999     2820  0     0    
2019/03/08  00:14:00  BASE  2.78712  7    3.02232  7    -0.6  78    -3.9  0     0     996.3    NA       0.0000   9999     2790  0     0    
2019/03/08  00:15:00  BASE  2.98116  8    3.2046   10   -0.6  78    -3.9  0     0     996.2    NA       0.0000   9999     2760  0     0    
2019/03/08  00:16:00  BASE  3.01644  10   3.2046   10   -0.6  78    -4.0  0     0     996.2    NA       0.0000   9999     2790  0     0    
2019/03/08  00:17:00  BASE  2.94588  9    3.2046   10   -0.6  78    -4.0  0     0     996.2    NA       0.0000   9999     2890  0     0    
2019/03/08  00:18:00  BASE  2.81652  7    3.2046   10   -0.5  77    -4.0  0     0     996.2    NA       0.0000   9999     2850  0     0    
2019/03/08  00:19:00  BASE  2.7048   6    3.2046   10   -0.5  77    -4.0  0     0     996.2    NA       0.0000   9999     2820  0     0    
2019/03/08  00:20:00  BASE  2.7636   5    3.2046   10   -0.5  77    -4.0  0     0     996.2    NA       0.0000   9999     2820  0     0    
2019/03/08  00:21:00  BASE  2.8224   4    3.2046   10   -0.5  77    -4.0  0     0     996.1    NA       0.0000   9999     2790  0     0    
2019/03/08  00:22:00  BASE  2.79888  5    3.2046   10   -0.5  77    -4.0  0     0     996.1    NA       0.0000   9999     2790  0     0    
2019/03/08  00:23:00  BASE  2.84004  8    3.2046   10   -0.5  78    -3.9  0     0     996.1    NA       0.0000   9999     2820  0     0    
2019/03/08  00:24:00  BASE  2.8518   12   3.2046   10   -0.5  78    -3.9  0     0     996.1    NA       0.0000   9999     2790  0     0    
2019/03/08  00:25:00  BASE  2.86356  14   3.1458   6    -0.5  78    -3.8  0     0     996.1    NA       0.0000   9999     2890  0     0    
2019/03/08  00:26:00  BASE  2.90472  16   3.1458   6    -0.5  79    -3.8  0     0     996.1    NA       0.0000   9999     2690  0     0    
2019/03/08  00:27:00  BASE  2.75772  16   3.0576   14   -0.6  79    -3.8  0     0     996.1    NA       0.0000   9999     2620  0     0    
2019/03/08  00:28:00  BASE  2.68716  11   3.0576   14   -0.6  78    -3.9  0     0     996.1    NA       0.0000   9999     2660  0     0    
2019/03/08  00:29:00  BASE  2.75772  6    3.0576   14   -0.6  78    -3.9  0     0     996.1    NA       0.0000   9999     2690  0     0    
2019/03/08  00:30:00  BASE  2.7636   7    3.0576   14   -0.6  78    -4.0  0     0     996.1    NA       0.0000   9999     2690  0     0    
2019/03/08  00:31:00  BASE  2.79888  10   3.0576   14   -0.6  78    -4.0  0     0     996.1    NA       0.0000   9999     2660  0     0    
2019/03/08  00:32:00  BASE  2.66364  13   3.0576   14   -0.6  78    -4.0  0     0     996.1    NA       0.0000   9999     2460  0     0    
2019/03/08  00:33:00  BASE  2.499    13   3.0576   14   -0.6  78    -3.9  0     0     996.1    NA       0.0000   9999     2360  0     0    
2019/03/08  00:34:00  BASE  2.50488  10   3.0576   14   -0.6  78    -3.9  0     0     996.1    NA       0.0000   9999     2300  0     0    
2019/03/08  00:35:00  BASE  2.42256  7    3.02232  5    -0.6  79    -3.8  0     0     996.1    NA       0.0000   9999     2260  0     0    
2019/03/08  00:36:00  BASE  2.16384  7    3.02232  5    -0.6  79    -3.8  0     0     996.1    NA       0.0000   9999     2230  0     0    
2019/03/08  00:37:00  BASE  2.19324  5    3.02232  5    -0.6  79    -3.7  0     0     996.1    NA       0.0000   9999     2260  0     0    
2019/03/08  00:38:00  BASE  2.37552  3    2.96352  11   -0.6  79    -3.7  0     0     996.1    NA       0.0000   9999     2460  0     0    
2019/03/08  00:39:00  BASE  2.24616  6    2.96352  11   -0.6  79    -3.8  0     0     996.1    NA       0.0000   9999     2620  0     0    
2019/03/08  00:40:00  BASE  2.10504  9    2.96352  11   -0.6  79    -3.8  0     0     996.1    NA       0.0000   9999     2620  0     0    
2019/03/08  00:41:00  BASE  2.21088  11   2.69304  10   -0.6  79    -3.8  0     0     996.1    NA       0.0000   9999     2400  0     0    
2019/03/08  00:42:00  BASE  2.499    12   2.87532  10   -0.5  79    -3.8  0     0     996.1    NA       0.0000   9999     2660  0     0    
2019/03/08  00:43:00  BASE  2.69892  14   3.0576   17   -0.5  79    -3.8  0     0     996.1    NA       0.0000   9999     2560  0     0    
2019/03/08  00:44:00  BASE  2.92824  16   3.26928  17   -0.5  79    -3.7  0     0     996.0    NA       0.0000   9999     2430  0     0    
2019/03/08  00:45:00  BASE  3.02232  18   3.26928  17   -0.5  79    -3.6  0     0     996.0    NA       0.0000   9999     2400  0     0    
2019/03/08  00:46:00  BASE  2.94588  19   3.29868  23   -0.5  80    -3.6  0     0     996.0    NA       0.0000   9999     2360  0     0    
2019/03/08  00:47:00  BASE  2.89296  18   3.29868  23   -0.6  80    -3.6  0     0     996.0    NA       0.0000   9999     2330  0     0    
2019/03/08  00:48:00  BASE  2.76948  21   3.29868  23   -0.6  80    -3.7  0     0     996.0    NA       0.0000   9999     2330  0     0    
2019/03/08  00:49:00  BASE  2.65776  22   3.29868  23   -0.6  80    -3.6  0     0     996.0    NA       0.0000   9999     2460  0     0    
2019/03/08  00:50:00  BASE  2.69304  19   3.29868  23   -0.6  80    -3.7  0     0     996.0    NA       0.0000   9999     2330  0     0    
2019/03/08  00:51:00  BASE  2.793    16   3.29868  23   -0.6  80    -3.7  0     0     996.0    NA       0.0000   9999     2330  0     0    
2019/03/08  00:52:00  BASE  2.61072  17   3.29868  23   -0.6  79    -3.8  0     0     996.0    NA       0.0000   9999     2230  0     0    
2019/03/08  00:53:00  BASE  2.48724  19   3.29868  23   -0.6  79    -3.8  0     0     996.0    NA       0.0000   9999     2430  0     0    
2019/03/08  00:54:00  BASE  2.48724  18   3.29868  23   -0.6  78    -3.9  0     0     996.0    NA       0.0000   9999     2430  0     0    
2019/03/08  00:55:00  BASE  2.49312  15   3.29868  23   -0.6  78    -3.9  0     0     996.0    NA       0.0000   9999     2400  0     0    
2019/03/08  00:56:00  BASE  2.58132  16   3.1458   11   -0.6  78    -3.9  0     0     996.0    NA       0.0000   9999     2460  0     0    
2019/03/08  00:57:00  BASE  2.71656  20   3.1458   11   -0.6  79    -3.9  0     0     996.0    NA       0.0000   9999     2430  0     0    
2019/03/08  00:58:00  BASE  2.7048   20   3.1458   11   -0.6  79    -3.9  0     0     996.0    NA       0.0000   9999     2360  0     0    
2019/03/08  00:59:00  BASE  2.71656  19   3.1458   11   -0.6  79    -3.9  0     0     996.0    NA       0.0000   9999     2360  0     0    
2019/03/08  01:00:00  BASE  2.7048   20   2.99292  19   -0.6  79    -3.9  0     0     996.0    NA       0.0000   9999     2430  0     0    
2019/03/08  01:01:00  BASE  2.54016  20   2.99292  19   -0.6  79    -3.8  0     0     996.0    NA       0.0000   9999     2460  0     0    
2019/03/08  01:02:00  BASE  2.86944  18   3.48096  15   -0.6  79    -3.8  0     0     996.0    NA       0.0000   9999     2430  0     0    
2019/03/08  01:03:00  BASE  3.1164   17   3.48096  15   -0.6  80    -3.7  0     0     996.0    NA       0.0000   9999     2360  0     0    
2019/03/08  01:04:00  BASE  2.96352  16   3.48096  15   -0.6  80    -3.6  0     0     996.0    NA       0.0000   9999     2460  0     0    
2019/03/08  01:05:00  BASE  3.04584  14   3.48096  15   -0.6  80    -3.6  0     0     996.0    NA       0.0000   9999     2460  0     0    
2019/03/08  01:06:00  BASE  3.10464  10   3.48096  15   -0.6  80    -3.6  0     0     996.0    NA       0.0000   9999     2560  0     0    
2019/03/08  01:07:00  BASE  2.84592  1    3.48096  15   -0.6  80    -3.6  0     0     996.0    NA       0.0000   9999     2590  0     0    
2019/03/08  01:08:00  BASE  2.61072  2    3.48096  15   -0.6  80    -3.7  0     0     996.0    NA       0.0000   9999     2590  0     0    
2019/03/08  01:09:00  BASE  2.51664  8    3.48096  15   -0.6  80    -3.7  0     0     996.0    NA       0.0000   9999     2690  0     0    
2019/03/08  01:10:00  BASE  2.1462   3    3.48096  15   -0.6  79    -3.7  0     0     996.0    NA       0.0000   9999     2330  0     0    
2019/03/08  01:11:00  BASE  2.15208  345  3.48096  15   -0.6  79    -3.7  0     0     996.0    NA       0.0000   9999     2400  0     0    
2019/03/08  01:12:00  BASE  2.52252  329  3.53976  321  -0.6  79    -3.7  0     0     996.0    NA       0.0000   9999     2100  0     0    
2019/03/08  01:13:00  BASE  2.1756   330  3.53976  321  -0.6  79    -3.7  0     0     996.0    NA       0.0000   9999     2070  0     0    
2019/03/08  01:14:00  BASE  1.68168  336  3.53976  321  -0.5  79    -3.8  0     0     996.0    NA       0.0000   9999     2100  0     0    
2019/03/08  01:15:00  BASE  1.91688  332  3.53976  321  -0.5  78    -3.8  0     0     996.0    NA       0.0000   9999     2170  0     0    
2019/03/08  01:16:00  BASE  2.56368  324  3.53976  321  -0.5  78    -3.8  0     0     996.0    NA       0.0000   9999     2170  0     0    
2019/03/08  01:17:00  BASE  2.95176  324  3.53976  321  -0.5  78    -3.9  0     0     996.0    NA       0.0000   9999     2130  0     0    
2019/03/08  01:18:00  BASE  3.06936  327  3.53976  321  -0.5  78    -3.8  0     0     996.0    NA       0.0000   9999     2200  0     0    
2019/03/08  01:19:00  BASE  3.01056  325  3.62796  319  -0.5  79    -3.7  0     0     996.0    NA       0.0000   9999     2170  0     0    
2019/03/08  01:20:00  BASE  2.79888  323  3.62796  319  -0.5  79    -3.6  0     0     996.0    NA       0.0000   9999     2100  0     0    
2019/03/08  01:21:00  BASE  2.499    304  3.62796  319  -0.5  80    -3.5  0     0     996.0    NA       0.0000   9999     2100  0     0    
2019/03/08  01:22:00  BASE  2.56956  249  3.62796  319  -0.5  80    -3.5  0     0     996.0    NA       0.0000   9999     1970  0     0    
2019/03/08  01:23:00  BASE  2.79888  220  3.62796  319  -0.5  81    -3.4  0     0     996.0    NA       0.0000   9999     1900  0     0    
2019/03/08  01:24:00  BASE  2.19324  222  3.62796  319  -0.5  81    -3.4  0     0     996.0    NA       0.0000   9999     1940  0     0    
2019/03/08  01:25:00  BASE  2.48724  222  3.86904  224  -0.5  81    -3.4  0     0     996.0    NA       0.0000   9999     1900  0     0    
2019/03/08  01:26:00  BASE  3.40452  231  4.1454   233  -0.5  82    -3.3  0     0     996.0    NA       0.0000   9999     1940  0     0    
2019/03/08  01:27:00  BASE  3.27516  236  4.1454   233  -0.5  82    -3.2  0     0     996.0    NA       0.0000   9999     2300  0     0    
2019/03/08  01:28:00  BASE  3.39864  238  4.29828  242  -0.5  83    -3.1  0     0     996.0    NA       0.0000   9999     2260  0     0    
2019/03/08  01:29:00  BASE  3.44568  239  4.29828  242  -0.5  84    -2.9  0     0     996.0    NA       0.0000   9999     2230  0     0    
2019/03/08  01:30:00  BASE  3.10464  239  4.29828  242  -0.5  85    -2.8  0     0     996.0    NA       0.0000   9999     2430  0     0    
2019/03/08  01:31:00  BASE  3.32808  240  4.29828  243  -0.5  86    -2.6  0     0     996.0    NA       0.0000   9999     2300  0     0    
2019/03/08  01:32:00  BASE  3.78672  240  4.41588  239  -0.5  86    -2.6  0     0     996.0    NA       0.0000   9999     2230  0     0    
2019/03/08  01:33:00  BASE  3.91608  245  4.41588  239  -0.6  86    -2.5  0     0     996.0    NA       0.0000   9999     2300  0     0    
2019/03/08  01:34:00  BASE  3.9102   251  4.41588  239  -0.6  86    -2.6  0     0     996.0    NA       0.0000   9999     2460  0     0    
2019/03/08  01:35:00  BASE  3.77496  248  4.41588  239  -0.6  86    -2.6  0     0     996.0    NA       0.0000   9999     2430  0     0    
2019/03/08  01:36:00  BASE  3.86316  242  4.62756  239  -0.6  86    -2.7  0     0     996.0    NA       0.0000   9999     2530  0     0    
2019/03/08  01:37:00  BASE  3.95136  237  4.62756  239  -0.6  85    -2.7  0     0     996.0    NA       0.0000   9999     2170  0     0    
2019/03/08  01:38:00  BASE  4.03956  236  5.05092  233  -0.6  85    -2.8  0     0     996.0    NA       0.0000   9999     2170  2620  0    
2019/03/08  01:39:00  BASE  4.21596  236  5.05092  233  -0.6  85    -2.9  0     0     996.0    NA       0.0000   9999     2530  0     0    
2019/03/08  01:40:00  BASE  3.94548  234  5.05092  233  -0.6  85    -2.9  0     0     996.0    NA       0.0000   9999     2430  0     0    
2019/03/08  01:41:00  BASE  3.71616  236  5.05092  233  -0.6  84    -2.9  0     0     996.0    NA       0.0000   9999     2300  0     0    
2019/03/08  01:42:00  BASE  3.528    245  5.05092  233  -0.6  84    -2.9  0     0     996.0    NA       0.0000   9999     2330  0     0    
2019/03/08  01:43:00  BASE  3.4104   251  5.05092  233  -0.6  84    -3.0  0     0     996.0    NA       0.0000   9999     2300  0     0    
2019/03/08  01:44:00  BASE  3.29868  249  5.05092  233  -0.6  84    -3.0  0     0     996.0    NA       0.0000   9999     2030  0     0    
2019/03/08  01:45:00  BASE  3.11052  246  5.05092  233  -0.6  84    -3.0  0     0     996.0    NA       0.0000   9999     2360  0     0    
2019/03/08  01:46:00  BASE  3.29868  244  5.05092  233  -0.6  84    -3.0  0     0     996.0    NA       0.0000   9999     2460  0     0    
2019/03/08  01:47:00  BASE  3.52212  238  5.05092  233  -0.5  84    -3.0  0     0     996.0    NA       0.0000   9999     2490  0     0    
2019/03/08  01:48:00  BASE  3.21636  234  4.44528  234  -0.5  84    -3.0  0     0     996.0    NA       0.0000   9999     2430  0     0    
2019/03/08  01:49:00  BASE  3.08112  236  4.35708  231  -0.5  84    -3.0  0     0     996.0    NA       0.0000   9999     2360  0     0    
2019/03/08  01:50:00  BASE  3.40452  236  4.35708  231  -0.6  84    -3.0  0     0     996.0    NA       0.0000   9999     2360  0     0    
2019/03/08  01:51:00  BASE  3.49272  235  4.29828  239  -0.6  83    -3.0  0     0     996.0    NA       0.0000   9999     2400  0     0    
2019/03/08  01:52:00  BASE  3.06936  237  4.29828  239  -0.6  83    -3.1  0     0     996.0    NA       0.0000   9999     2360  0     0    
2019/03/08  01:53:00  BASE  2.87532  238  4.29828  239  -0.6  83    -3.1  0     0     996.0    NA       0.0000   9999     2360  0     0    
2019/03/08  01:54:00  BASE  3.04584  238  4.29828  239  -0.6  83    -3.1  0     0     996.0    NA       0.0000   9999     2360  0     0    
2019/03/08  01:55:00  BASE  3.39864  244  4.29828  239  -0.6  83    -3.1  0     0     996.0    NA       0.0000   9999     2400  0     0    
2019/03/08  01:56:00  BASE  3.4104   246  4.29828  239  -0.6  83    -3.2  0     0     996.0    NA       0.0000   9999     2430  0     0    
2019/03/08  01:57:00  BASE  2.98704  244  4.29828  239  -0.6  82    -3.2  0     0     996.0    NA       0.0000   9999     2430  0     0    
2019/03/08  01:58:00  BASE  2.95176  247  4.29828  239  -0.6  82    -3.3  0     0     996.0    NA       0.0000   9999     2430  0     0    
2019/03/08  01:59:00  BASE  2.8224   247  4.29828  239  -0.6  81    -3.4  0     0     996.0    NA       0.0000   9999     2400  0     0    
2019/03/08  02:00:00  BASE  2.98704  239  4.116    245  -0.6  81    -3.5  0     0     996.0    NA       0.0000   9999     2430  0     0    
2019/03/08  02:01:00  BASE  3.31632  237  4.116    245  -0.6  81    -3.5  0     0     996.0    NA       0.0000   9999     2330  0     0    
2019/03/08  02:02:00  BASE  3.2928   242  4.116    245  -0.6  81    -3.4  0     0     996.0    NA       0.0000   9999     2330  0     0    
2019/03/08  02:03:00  BASE  3.38688  241  4.116    245  -0.6  81    -3.4  0     0     996.0    NA       0.0000   9999     2360  0     0    
2019/03/08  02:04:00  BASE  3.56916  235  4.116    245  -0.6  82    -3.3  0     0     995.9    NA       0.0000   9999     2400  0     0    
2019/03/08  02:05:00  BASE  3.4986   231  4.08072  230  -0.6  82    -3.4  0     0     995.9    NA       0.0000   9999     2360  0     0    
2019/03/08  02:06:00  BASE  3.21636  233  4.08072  230  -0.6  81    -3.4  0     0     996.0    NA       0.0000   9999     2400  0     0    
2019/03/08  02:07:00  BASE  3.01644  237  4.08072  230  -0.6  81    -3.5  0     0     996.0    NA       0.0000   9999     2430  0     0    
2019/03/08  02:08:00  BASE  2.74008  238  4.08072  230  -0.6  81    -3.5  0     0     996.0    NA       0.0000   9999     2430  0     0    
2019/03/08  02:09:00  BASE  2.56956  238  4.08072  230  -0.6  80    -3.6  0     0     996.0    NA       0.0000   9999     2360  0     0    
2019/03/08  02:10:00  BASE  2.66364  237  4.08072  230  -0.6  80    -3.5  0     0     996.0    NA       0.0000   9999     2400  0     0    
2019/03/08  02:11:00  BASE  2.56956  238  4.08072  230  -0.6  80    -3.5  0     0     995.9    NA       0.0000   9999     2430  0     0    
2019/03/08  02:12:00  BASE  2.72832  239  4.08072  230  -0.6  81    -3.5  0     0     996.0    NA       0.0000   9999     2430  0     0    
2019/03/08  02:13:00  BASE  3.03996  236  4.02192  231  -0.6  81    -3.5  0     0     996.0    NA       0.0000   9999     2460  0     0    
2019/03/08  02:14:00  BASE  3.1164   233  3.75144  227  -0.6  81    -3.5  0     0     995.9    NA       0.0000   9999     2460  0     0    
2019/03/08  02:15:00  BASE  3.24576  235  3.99252  237  -0.6  81    -3.5  0     0     995.9    NA       0.0000   9999     2430  0     0    
2019/03/08  02:16:00  BASE  3.36924  240  3.99252  237  -0.6  81    -3.5  0     0     995.9    NA       0.0000   9999     2430  0     0    
2019/03/08  02:17:00  BASE  3.56328  235  4.02192  230  -0.6  80    -3.6  0     0     995.9    NA       0.0000   9999     2430  0     0    
2019/03/08  02:18:00  BASE  3.43392  234  4.02192  230  -0.6  80    -3.6  0     0     995.9    NA       0.0000   9999     2460  0     0    
2019/03/08  02:19:00  BASE  3.3222   239  4.08072  242  -0.6  80    -3.6  0     0     995.9    NA       0.0000   9999     2460  0     0    
2019/03/08  02:20:00  BASE  3.528    241  4.116    233  -0.6  80    -3.6  0     0     995.9    NA       0.0000   9999     2460  0     0    
2019/03/08  02:21:00  BASE  3.62796  244  4.1454   239  -0.6  80    -3.6  0     0     995.9    NA       0.0000   9999     2490  0     0    
2019/03/08  02:22:00  BASE  3.62208  245  4.1454   239  -0.6  80    -3.6  0     0     995.9    NA       0.0000   9999     2490  0     0    
2019/03/08  02:23:00  BASE  3.6456   242  4.1454   239  -0.6  80    -3.6  0     0     995.9    NA       0.0000   9999     2430  0     0    
2019/03/08  02:24:00  BASE  3.44568  240  4.1454   239  -0.6  80    -3.6  0     0     995.9    NA       0.0000   9999     2460  0     0    
2019/03/08  02:25:00  BASE  3.18108  237  4.1454   239  -0.6  80    -3.6  0     0     995.9    NA       0.0000   9999     2460  0     0    
2019/03/08  02:26:00  BASE  3.47508  239  4.29828  240  -0.6  80    -3.6  0     0     995.9    NA       0.0000   9999     2490  0     0    
2019/03/08  02:27:00  BASE  3.6162   242  4.29828  240  -0.6  80    -3.5  0     0     995.9    NA       0.0000   9999     2490  0     0    
2019/03/08  02:28:00  BASE  3.40452  240  4.29828  240  -0.6  81    -3.5  0     0     995.9    NA       0.0000   9999     2530  0     0    
2019/03/08  02:29:00  BASE  3.56328  238  4.29828  240  -0.6  81    -3.4  0     0     995.9    NA       0.0000   9999     2560  0     0    
2019/03/08  02:30:00  BASE  3.59268  238  4.29828  240  -0.6  81    -3.5  0     0     995.9    NA       0.0000   9999     2590  0     0    
2019/03/08  02:31:00  BASE  3.21636  241  4.29828  240  -0.6  81    -3.5  0     0     995.9    NA       0.0000   9999     2660  0     0    
2019/03/08  02:32:00  BASE  3.4692   243  4.38648  247  -0.6  80    -3.5  0     0     995.9    NA       0.0000   9999     2690  0     0    
2019/03/08  02:33:00  BASE  3.63384  245  4.38648  247  -0.6  80    -3.6  0     0     995.9    NA       0.0000   9999     2660  0     0    
2019/03/08  02:34:00  BASE  3.36924  249  4.38648  247  -0.6  80    -3.6  0     0     995.9    NA       0.0000   9999     2690  0     0    
2019/03/08  02:35:00  BASE  3.33396  254  4.38648  247  -0.6  80    -3.5  0     0     995.9    NA       0.0000   9999     2690  0     0    
2019/03/08  02:36:00  BASE  3.33396  253  4.38648  247  -0.6  81    -3.5  0     0     995.9    NA       0.0000   9999     2690  0     0    
2019/03/08  02:37:00  BASE  3.25752  254  4.38648  247  -0.6  81    -3.5  0     0     995.9    NA       0.0000   9999     2720  0     0    
2019/03/08  02:38:00  BASE  3.3222   256  4.38648  247  -0.5  81    -3.5  0     0     995.9    NA       0.0000   9999     2690  0     0    
2019/03/08  02:39:00  BASE  3.13992  255  4.38648  247  -0.6  80    -3.5  0     0     995.9    NA       0.0000   9999     2690  0     0    
2019/03/08  02:40:00  BASE  3.05172  255  4.38648  247  -0.6  80    -3.6  0     0     995.8    NA       0.0000   9999     2620  0     0    
2019/03/08  02:41:00  BASE  3.53976  255  4.38648  247  -0.6  79    -3.7  0     0     995.8    NA       0.0000   9999     2660  0     0    
2019/03/08  02:42:00  BASE  3.5868   255  4.2042   257  -0.6  79    -3.8  0     0     995.8    NA       0.0000   9999     2660  0     0    
2019/03/08  02:43:00  BASE  3.381    255  4.2042   257  -0.6  78    -3.9  0     0     995.8    NA       0.0000   9999     2590  0     0    
2019/03/08  02:44:00  BASE  3.42804  254  4.2042   257  -0.6  78    -3.9  0     0     995.8    NA       0.0000   9999     2300  0     0    
2019/03/08  02:45:00  BASE  3.3516   251  4.2042   257  -0.5  78    -4.0  0     0     995.8    NA       0.0000   9999     2660  0     0    
2019/03/08  02:46:00  BASE  3.19284  249  4.2042   257  -0.5  78    -4.0  0     0     995.8    NA       0.0000   9999     2690  0     0    
2019/03/08  02:47:00  BASE  3.18696  245  4.2042   257  -0.5  77    -4.0  0     0     995.8    NA       0.0000   9999     2690  0     0    
2019/03/08  02:48:00  BASE  2.8812   242  4.2042   257  -0.5  77    -4.0  0     0     995.8    NA       0.0000   9999     2690  0     0    
2019/03/08  02:49:00  BASE  2.5284   251  4.2042   257  -0.5  78    -3.9  0     0     995.8    NA       0.0000   9999     2720  0     0    
2019/03/08  02:50:00  BASE  2.68128  260  4.2042   257  -0.5  77    -4.0  0     0     995.8    NA       0.0000   9999     2690  0     0    
2019/03/08  02:51:00  BASE  2.62248  264  3.96312  255  -0.5  77    -4.0  0     0     995.7    NA       0.0000   9999     2790  0     0    
2019/03/08  02:52:00  BASE  2.38728  267  3.90432  250  -0.5  77    -4.0  0     0     995.7    NA       0.0000   9999     2820  0     0    
2019/03/08  02:53:00  BASE  2.53428  272  3.90432  250  -0.5  77    -4.0  0     0     995.7    NA       0.0000   9999     2790  0     0    
2019/03/08  02:54:00  BASE  2.45196  272  3.53976  237  -0.5  77    -4.1  0     0     995.7    NA       0.0000   9999     2720  0     0    
2019/03/08  02:55:00  BASE  2.30496  268  3.53976  237  -0.5  76    -4.2  0     0     995.7    NA       0.0000   9999     2720  0     0    
2019/03/08  02:56:00  BASE  2.53428  271  3.53976  237  -0.5  76    -4.2  0     0     995.7    NA       0.0000   9999     2690  0     0    
2019/03/08  02:57:00  BASE  2.80476  275  3.41628  274  -0.5  75    -4.3  0     0     995.7    NA       0.0000   9999     2760  0     0    
2019/03/08  02:58:00  BASE  2.8224   277  3.41628  274  -0.5  75    -4.4  0     0     995.7    NA       0.0000   9999     2820  0     0    
2019/03/08  02:59:00  BASE  2.42844  274  3.41628  274  -0.5  75    -4.5  0     0     995.7    NA       0.0000   9999     2790  0     0    
2019/03/08  03:00:00  BASE  2.28144  262  3.41628  274  -0.5  74    -4.5  0     0     995.7    NA       0.0000   9999     2690  0     0    
2019/03/08  03:01:00  BASE  2.32848  260  3.41628  274  -0.5  74    -4.5  0     0     995.7    NA       0.0000   9999     2660  0     0    
2019/03/08  03:02:00  BASE  2.4402   267  3.41628  274  -0.5  74    -4.5  0     0     995.7    NA       0.0000   9999     2690  0     0    
2019/03/08  03:03:00  BASE  2.5284   271  3.41628  274  -0.5  74    -4.5  0     0     995.7    NA       0.0000   9999     2760  0     0    
2019/03/08  03:04:00  BASE  2.45784  275  3.41628  274  -0.5  74    -4.5  0     0     995.7    NA       0.0000   9999     2850  0     0    
2019/03/08  03:05:00  BASE  2.43432  273  3.41628  274  -0.5  75    -4.4  0     0     995.7    NA       0.0000   9999     2850  0     0    
2019/03/08  03:06:00  BASE  2.51664  272  3.41628  274  -0.5  75    -4.4  0     0     995.6    NA       0.0000   9999     2890  0     0    
2019/03/08  03:07:00  BASE  2.9694   273  3.81024  269  -0.5  74    -4.5  0     0     995.6    NA       0.0000   9999     2790  0     0    
2019/03/08  03:08:00  BASE  3.29868  270  3.81024  269  -0.5  74    -4.5  0     0     995.5    NA       0.0000   9999     2790  0     0    
2019/03/08  03:09:00  BASE  2.97528  268  3.81024  269  -0.5  74    -4.6  0     0     995.5    NA       0.0000   9999     2790  0     0    
2019/03/08  03:10:00  BASE  2.32848  269  3.81024  269  -0.5  73    -4.7  0     0     995.5    NA       0.0000   9999     2820  0     0    
2019/03/08  03:11:00  BASE  1.99332  266  3.81024  269  -0.5  73    -4.7  0     0     995.5    NA       0.0000   9999     2820  0     0    
2019/03/08  03:12:00  BASE  2.06388  263  3.81024  269  -0.5  73    -4.7  0     0     995.5    NA       0.0000   9999     2820  0     0    
2019/03/08  03:13:00  BASE  2.1462   265  3.81024  269  -0.5  73    -4.8  0     0     995.5    NA       0.0000   9999     2790  0     0    
2019/03/08  03:14:00  BASE  2.24028  264  3.81024  269  -0.5  73    -4.7  0     0     995.5    NA       0.0000   9999     2760  0     0    
2019/03/08  03:15:00  BASE  2.25204  262  3.81024  269  -0.5  73    -4.7  0     0     995.5    NA       0.0000   9999     2820  0     0    
2019/03/08  03:16:00  BASE  2.04624  268  3.81024  269  -0.5  73    -4.7  0     0     995.5    NA       0.0000   9999     2820  0     0    
2019/03/08  03:17:00  BASE  1.75224  267  3.78084  272  -0.5  73    -4.7  0     0     995.5    NA       0.0000   9999     2790  0     0    
2019/03/08  03:18:00  BASE  1.79928  258  3.0576   255  -0.5  73    -4.7  0     0     995.5    NA       0.0000   9999     2760  0     0    
2019/03/08  03:19:00  BASE  1.92276  256  2.75184  259  -0.5  73    -4.7  0     0     995.5    NA       0.0000   9999     2690  0     0    
2019/03/08  03:20:00  BASE  1.911    255  2.75184  259  -0.5  73    -4.7  0     0     995.5    NA       0.0000   9999     2720  0     0    
2019/03/08  03:21:00  BASE  2.1168   256  2.75184  259  -0.5  73    -4.7  0     0     995.4    NA       0.0000   9999     2850  0     0    
2019/03/08  03:22:00  BASE  2.06388  257  2.72244  260  -0.5  74    -4.6  0     0     995.4    NA       0.0000   9999     2890  0     0    
2019/03/08  03:23:00  BASE  1.99332  260  2.56956  256  -0.5  74    -4.6  0     0     995.4    NA       0.0000   9999     2850  0     0    
2019/03/08  03:24:00  BASE  1.9698   263  2.48136  253  -0.5  74    -4.6  0     0     995.4    NA       0.0000   9999     2990  0     0    
2019/03/08  03:25:00  BASE  1.89924  263  3.2046   266  -0.5  73    -4.6  0     0     995.4    NA       0.0000   9999     3120  0     0    
2019/03/08  03:26:00  BASE  2.59896  259  3.48096  253  -0.4  73    -4.6  0     0     995.4    NA       0.0000   9999     3150  0     0    
2019/03/08  03:27:00  BASE  3.30456  255  3.65736  267  -0.4  73    -4.6  0     0     995.4    NA       0.0000   9999     3150  0     0    
2019/03/08  03:28:00  BASE  3.16344  257  3.65736  267  -0.4  74    -4.6  0     0     995.4    NA       0.0000   9999     3150  0     0    
2019/03/08  03:29:00  BASE  3.05172  261  3.93372  263  -0.4  74    -4.5  0     0     995.4    NA       0.0000   9999     3120  0     0    
2019/03/08  03:30:00  BASE  3.29868  265  4.02192  273  -0.4  74    -4.5  0     0     995.4    NA       0.0000   9999     3080  0     0    
2019/03/08  03:31:00  BASE  3.1458   268  4.02192  273  -0.4  74    -4.5  0     0     995.4    NA       0.0000   9999     3080  0     0    
2019/03/08  03:32:00  BASE  3.087    266  4.29828  254  -0.4  73    -4.6  0     0     995.4    NA       0.0000   9999     3020  0     0    
2019/03/08  03:33:00  BASE  3.087    264  4.29828  254  -0.4  73    -4.7  0     0     995.4    NA       0.0000   9999     3020  0     0    
2019/03/08  03:34:00  BASE  2.57544  267  4.29828  254  -0.4  72    -4.8  0     0     995.4    NA       0.0000   9999     3050  0     0    
2019/03/08  03:35:00  BASE  2.28144  273  4.29828  254  -0.4  72    -4.8  0     0     995.4    NA       0.0000   9999     3080  0     0    
2019/03/08  03:36:00  BASE  2.74596  274  4.29828  254  -0.4  72    -4.9  0     0     995.4    NA       0.0000   9999     3080  0     0    
2019/03/08  03:37:00  BASE  3.13404  279  4.29828  254  -0.4  71    -4.9  0     0     995.4    NA       0.0000   9999     3080  0     0    
2019/03/08  03:38:00  BASE  3.50448  282  4.47468  277  -0.4  72    -4.9  0     0     995.4    NA       0.0000   9999     3080  0     0    
2019/03/08  03:39:00  BASE  3.9102   276  4.47468  275  -0.4  72    -4.9  0     0     995.4    NA       0.0000   9999     3150  0     0    
2019/03/08  03:40:00  BASE  3.39864  272  4.47468  275  -0.4  72    -4.9  0     0     995.4    NA       0.0000   9999     3150  0     0    
2019/03/08  03:41:00  BASE  2.84004  278  4.47468  275  -0.4  72    -4.9  0     0     995.4    NA       0.0000   9999     3120  0     0    
2019/03/08  03:42:00  BASE  2.78124  282  4.47468  275  -0.4  72    -4.8  0     0     995.4    NA       0.0000   9999     3220  0     0    
2019/03/08  03:43:00  BASE  3.21636  275  4.47468  275  -0.4  72    -4.8  0     0     995.4    NA       0.0000   9999     3220  0     0    
2019/03/08  03:44:00  BASE  3.41628  271  4.47468  275  -0.4  73    -4.7  0     0     995.4    NA       0.0000   9999     3250  0     0    
2019/03/08  03:45:00  BASE  3.29868  272  4.47468  275  -0.4  74    -4.5  0     0     995.4    NA       0.0000   9999     3280  0     0    
2019/03/08  03:46:00  BASE  3.13404  274  4.47468  275  -0.4  74    -4.4  0     0     995.4    NA       0.0000   9999     3280  0     0    
2019/03/08  03:47:00  BASE  3.27516  277  4.47468  275  -0.4  75    -4.4  0     0     995.4    NA       0.0000   9999     3180  0     0    
2019/03/08  03:48:00  BASE  3.73968  280  4.80984  281  -0.4  75    -4.3  0     0     995.4    NA       0.0000   9999     3150  0     0    
2019/03/08  03:49:00  BASE  3.92784  281  4.80984  281  -0.4  76    -4.2  0     0     995.4    NA       0.0000   9999     3150  0     0    
2019/03/08  03:50:00  BASE  3.65148  278  4.80984  281  -0.4  76    -4.1  0     0     995.4    NA       0.0000   9999     3180  0     0    
2019/03/08  03:51:00  BASE  3.16344  275  4.80984  281  -0.4  76    -4.1  0     0     995.4    NA       0.0000   9999     3150  0     0    
2019/03/08  03:52:00  BASE  3.03996  279  4.80984  281  -0.4  77    -4.0  0     0     995.4    NA       0.0000   9999     3220  0     0    
2019/03/08  03:53:00  BASE  3.08112  283  4.80984  281  -0.4  78    -3.9  0     0     995.4    NA       0.0000   9999     3220  0     0    
2019/03/08  03:54:00  BASE  3.07524  283  4.80984  281  -0.4  78    -3.8  0     0     995.4    NA       0.0000   9999     3150  0     0    
2019/03/08  03:55:00  BASE  3.1458   282  4.80984  281  -0.4  78    -3.8  0     0     995.4    NA       0.0000   9999     3250  0     0    
2019/03/08  03:56:00  BASE  3.33396  282  4.80984  281  -0.4  78    -3.8  0     0     995.4    NA       0.0000   9999     3250  0     0    
2019/03/08  03:57:00  BASE  3.48096  287  4.80984  281  -0.5  78    -3.8  0     0     995.4    NA       0.0000   9999     3220  0     0    
2019/03/08  03:58:00  BASE  3.56328  289  4.59816  280  -0.5  78    -3.9  0     0     995.4    NA       0.0000   9999     3080  0     0    
2019/03/08  03:59:00  BASE  3.59268  290  4.08072  288  -0.5  77    -4.0  0     0     995.4    NA       0.0000   9999     3120  0     0    
2019/03/08  04:00:00  BASE  3.42804  286  4.08072  288  -0.5  77    -4.0  0     0     995.4    NA       0.0000   9999     3220  0     0    
2019/03/08  04:01:00  BASE  3.18696  279  4.08072  288  -0.5  77    -4.0  0     0     995.4    NA       0.0000   9999     3180  0     0    
2019/03/08  04:03:00  BASE  3.13992  274  4.08072  288  -0.5  77    -4.0  0     0     995.4    NA       0.0000   9999     3120  0     0    
2019/03/08  04:04:00  BASE  3.18108  275  4.08072  288  -0.5  77    -4.1  0     0     995.4    NA       0.0000   9999     3120  0     0    
2019/03/08  04:05:00  BASE  3.1752   278  3.99252  292  -0.5  77    -4.1  0     0     995.4    NA       0.0000   9999     3080  0     0    
2019/03/08  04:06:00  BASE  3.06348  279  3.99252  292  -0.5  76    -4.1  0     0     995.4    NA       0.0000   9999     3120  0     0    
2019/03/08  04:07:00  BASE  3.0282   277  3.93372  282  -0.5  76    -4.2  0     0     995.4    NA       0.0000   9999     3050  0     0    
2019/03/08  04:08:00  BASE  2.89296  275  3.81024  288  -0.5  76    -4.2  0     0     995.4    NA       0.0000   9999     3050  0     0    
2019/03/08  04:09:00  BASE  2.98116  274  3.81024  288  -0.5  76    -4.1  0     0     995.4    NA       0.0000   9999     3050  0     0    
2019/03/08  04:10:00  BASE  3.19284  275  3.69264  278  -0.5  77    -4.1  0     0     995.4    NA       0.0000   9999     2990  0     0    
2019/03/08  04:11:00  BASE  3.36924  273  4.41588  269  -0.5  77    -4.0  0     0     995.4    NA       0.0000   9999     2950  0     0    
2019/03/08  04:12:00  BASE  3.81612  272  4.86864  259  -0.5  77    -4.0  0     0     995.4    NA       0.0000   9999     2950  0     0    
2019/03/08  04:13:00  BASE  3.8514   274  4.86864  259  -0.5  77    -4.0  0     0     995.4    NA       0.0000   9999     3080  0     0    
2019/03/08  04:14:00  BASE  3.62208  275  4.86864  259  -0.5  77    -4.0  0     0     995.4    NA       0.0000   9999     3020  0     0    
2019/03/08  04:15:00  BASE  3.4398   274  4.86864  259  -0.5  78    -4.0  0     0     995.4    NA       0.0000   9999     3120  0     0    
2019/03/08  04:16:00  BASE  3.19872  269  4.86864  259  -0.6  78    -4.0  0     0     995.4    NA       0.0000   9999     3050  0     0    
2019/03/08  04:17:00  BASE  3.16344  267  4.86864  259  -0.6  78    -4.0  0     0     995.4    NA       0.0000   9999     3120  0     0    
2019/03/08  04:18:00  BASE  3.087    275  4.86864  259  -0.6  78    -4.0  0     0     995.4    NA       0.0000   9999     3080  0     0    
2019/03/08  04:19:00  BASE  3.15756  281  4.86864  259  -0.6  78    -3.9  0     0     995.4    NA       0.0000   9999     3080  0     0    
2019/03/08  04:20:00  BASE  3.31632  280  4.86864  259  -0.6  78    -4.0  0     0     995.3    NA       0.0000   9999     3050  0     0    
2019/03/08  04:21:00  BASE  3.01644  278  4.86864  259  -0.6  78    -3.9  0     0     995.3    NA       0.0000   9999     3080  0     0    
2019/03/08  04:22:00  BASE  2.85768  274  4.44528  268  -0.6  78    -3.9  0     0     995.3    NA       0.0000   9999     3180  0     0    
2019/03/08  04:23:00  BASE  2.66364  270  4.44528  268  -0.6  78    -3.9  0     0     995.3    NA       0.0000   9999     3080  0     0    
2019/03/08  04:24:00  BASE  2.47548  269  4.29828  264  -0.6  78    -3.9  0     0     995.3    NA       0.0000   9999     2990  0     0    
2019/03/08  04:25:00  BASE  2.60484  272  3.93372  269  -0.6  79    -3.8  0     0     995.3    NA       0.0000   9999     3120  0     0    
2019/03/08  04:26:00  BASE  2.8518   277  3.83964  273  -0.6  79    -3.8  0     0     995.3    NA       0.0000   9999     3120  0     0    
2019/03/08  04:27:00  BASE  3.1752   279  3.78084  277  -0.6  79    -3.7  0     0     995.3    NA       0.0000   9999     2720  0     0    
2019/03/08  04:28:00  BASE  3.28104  277  3.78084  277  -0.6  80    -3.7  0     0     995.3    NA       0.0000   9999     3050  0     0    
2019/03/08  04:29:00  BASE  3.33396  281  4.08072  293  -0.6  80    -3.7  0     0     995.3    NA       0.0000   9999     3120  0     0    
2019/03/08  04:30:00  BASE  3.3516   285  4.32768  278  -0.6  80    -3.6  0     0     995.3    NA       0.0000   9999     3120  0     0    
2019/03/08  04:31:00  BASE  3.4104   280  4.32768  278  -0.6  80    -3.6  0     0     995.3    NA       0.0000   9999     3080  0     0    
2019/03/08  04:32:00  BASE  3.33984  277  4.32768  278  -0.6  80    -3.6  0     0     995.3    NA       0.0000   9999     3150  0     0    
2019/03/08  04:33:00  BASE  3.15168  277  4.32768  278  -0.6  81    -3.5  0     0     995.3    NA       0.0000   9999     3120  0     0    
2019/03/08  04:34:00  BASE  3.09288  274  4.32768  278  -0.6  81    -3.5  0     0     995.3    NA       0.0000   9999     3080  0     0    
2019/03/08  04:35:00  BASE  3.15756  273  4.32768  278  -0.6  81    -3.4  0     0     995.3    NA       0.0000   9999     3080  0     0    
2019/03/08  04:36:00  BASE  3.5868   275  4.32768  278  -0.6  82    -3.4  0     0     995.3    NA       0.0000   9999     2920  0     0    
2019/03/08  04:37:00  BASE  3.71616  277  4.32768  278  -0.6  82    -3.3  0     0     995.3    NA       0.0000   9999     3050  0     0    
2019/03/08  04:38:00  BASE  3.39864  277  4.32768  278  -0.6  82    -3.2  0     0     995.3    NA       0.0000   9999     2990  0     0    
2019/03/08  04:39:00  BASE  3.01056  279  4.32768  278  -0.6  83    -3.2  0     0     995.3    NA       0.0000   9999     2950  0     0    
2019/03/08  04:40:00  BASE  3.00468  284  4.2042   278  -0.6  83    -3.2  0     0     995.3    NA       0.0000   9999     2950  0     0    
2019/03/08  04:41:00  BASE  3.13992  286  4.2042   278  -0.6  83    -3.2  0     0     995.3    NA       0.0000   9999     3050  0     0    
2019/03/08  04:42:00  BASE  3.35748  283  4.2042   286  -0.6  82    -3.2  0     0     995.3    NA       0.0000   9999     3020  0     0    
2019/03/08  04:43:00  BASE  3.7632   281  4.56876  282  -0.6  82    -3.3  0     0     995.3    NA       0.0000   9999     3020  0     0    
2019/03/08  04:44:00  BASE  3.87492  279  4.56876  282  -0.6  82    -3.3  0     0     995.3    NA       0.0000   9999     3020  0     0    
2019/03/08  04:45:00  BASE  3.66324  279  4.56876  282  -0.6  82    -3.3  0     0     995.3    NA       0.0000   9999     3050  0     0    
2019/03/08  04:46:00  BASE  3.25164  278  4.56876  282  -0.6  82    -3.3  0     0     995.3    NA       0.0000   9999     3050  0     0    
2019/03/08  04:47:00  BASE  3.3222   278  4.56876  282  -0.6  82    -3.2  0     0     995.3    NA       0.0000   9999     3050  0     0    
2019/03/08  04:48:00  BASE  3.42216  282  4.56876  282  -0.6  83    -3.2  0     0     995.3    NA       0.0000   9999     2820  0     0    
2019/03/08  04:49:00  BASE  3.2634   285  4.56876  282  -0.6  83    -3.2  0     0     995.3    NA       0.0000   9999     2950  0     0    
2019/03/08  04:50:00  BASE  3.18696  281  4.56876  282  -0.6  83    -3.1  0     0     995.3    NA       0.0000   9999     2820  0     0    
2019/03/08  04:51:00  BASE  3.18696  281  4.56876  282  -0.6  83    -3.1  0     0     995.3    NA       0.0000   9999     2890  0     0    
2019/03/08  04:52:00  BASE  3.05172  280  4.56876  282  -0.6  83    -3.1  0     0     995.3    NA       0.0000   9999     2920  0     0    
2019/03/08  04:53:00  BASE  2.6754   282  4.1748   277  -0.6  83    -3.2  0     0     995.3    NA       0.0000   9999     2920  0     0    
2019/03/08  04:54:00  BASE  2.77536  289  3.96312  279  -0.6  82    -3.2  0     0     995.3    NA       0.0000   9999     2890  0     0    
2019/03/08  04:55:00  BASE  3.29868  293  3.96312  279  -0.6  82    -3.3  0     0     995.3    NA       0.0000   9999     2850  0     0    
2019/03/08  04:56:00  BASE  3.528    292  3.96312  279  -0.6  82    -3.3  0     0     995.3    NA       0.0000   9999     2920  0     0    
2019/03/08  04:57:00  BASE  3.69852  288  4.44528  280  -0.6  82    -3.2  0     0     995.3    NA       0.0000   9999     2920  0     0    
2019/03/08  04:58:00  BASE  3.5868   284  4.44528  280  -0.6  83    -3.2  0     0     995.3    NA       0.0000   9999     2820  0     0    
2019/03/08  04:59:00  BASE  2.83416  281  4.44528  280  -0.6  83    -3.1  0     0     995.3    NA       0.0000   9999     2760  0     0    
2019/03/08  05:00:00  BASE  2.42256  284  4.44528  280  -0.6  84    -3.0  0     0     995.3    NA       0.0000   9999     2760  0     0    
2019/03/08  05:01:00  BASE  2.8812   287  4.44528  280  -0.6  84    -2.9  0     0     995.3    NA       0.0000   9999     2820  0     0    
2019/03/08  05:02:00  BASE  3.28692  287  4.44528  280  -0.6  85    -2.9  0     0     995.3    NA       0.0000   9999     2400  2920  0    
2019/03/08  05:03:00  BASE  3.62208  288  4.44528  280  -0.6  85    -2.8  0     0     995.2    NA       0.0000   9999     2400  0     0    
2019/03/08  05:04:00  BASE  3.79848  288  4.44528  280  -0.6  85    -2.8  0     0     995.2    NA       0.0000   9999     2400  0     0    
2019/03/08  05:05:00  BASE  3.51624  288  4.44528  280  -0.6  86    -2.7  0     0     995.2    NA       0.0000   9999     2200  2820  0    
2019/03/08  05:06:00  BASE  3.234    287  4.44528  280  -0.6  86    -2.7  0     0     995.2    NA       0.0000   9999     2530  0     0    
2019/03/08  05:07:00  BASE  3.25164  288  4.2042   289  -0.6  86    -2.6  0     0     995.2    NA       0.0000   9999     2560  0     0    
2019/03/08  05:08:00  BASE  3.54564  289  4.2042   289  -0.7  87    -2.6  0     0     995.2    NA       0.0000   9999     2000  2850  0    
2019/03/08  05:09:00  BASE  3.74556  285  4.263    278  -0.7  87    -2.6  0     0     995.2    NA       0.0000   9999     2820  0     0    
2019/03/08  05:10:00  BASE  3.60444  286  4.263    278  -0.7  87    -2.5  0     0     995.2    NA       0.0000   9999     2590  0     0    
2019/03/08  05:11:00  BASE  3.35748  291  4.263    278  -0.7  87    -2.5  0     0     995.2    NA       0.0000   9999     2720  0     0    
2019/03/08  05:12:00  BASE  3.19284  294  4.263    278  -0.7  88    -2.5  0     0     995.2    NA       0.0000   9999     2690  0     0    
2019/03/08  05:13:00  BASE  3.45744  296  4.263    278  -0.7  88    -2.4  0     0     995.2    NA       0.0000   9999     2620  0     0    
2019/03/08  05:14:00  BASE  3.95136  294  4.47468  287  -0.7  88    -2.4  0     0     995.2    NA       0.0000   9999     2720  0     0    
2019/03/08  05:15:00  BASE  3.78672  291  4.47468  287  -0.7  89    -2.3  0     0     995.2    NA       0.0000   9999     2850  0     0    
2019/03/08  05:16:00  BASE  3.22812  287  4.47468  287  -0.7  89    -2.3  0     0     995.2    NA       0.0000   9999     2950  0     0    
2019/03/08  05:17:00  BASE  3.07524  284  4.47468  287  -0.7  88    -2.4  0     0     995.2    NA       0.0000   9999     2990  0     0    
2019/03/08  05:18:00  BASE  3.53976  283  4.53936  286  -0.7  88    -2.5  0     0     995.2    NA       0.0000   9999     2990  0     0    
2019/03/08  05:19:00  BASE  3.69264  285  4.53936  286  -0.7  87    -2.5  0     0     995.2    NA       0.0000   9999     2990  0     0    
2019/03/08  05:20:00  BASE  3.53976  287  4.53936  286  -0.6  87    -2.5  0     0     995.2    NA       0.0000   9999     3020  0     0    
2019/03/08  05:21:00  BASE  3.65736  285  4.53936  286  -0.6  87    -2.5  0     0     995.2    NA       0.0000   9999     2990  0     0    
2019/03/08  05:22:00  BASE  3.63384  283  4.53936  286  -0.6  88    -2.4  0     0     995.2    NA       0.0000   9999     2850  0     0    
2019/03/08  05:23:00  BASE  3.63972  286  4.53936  286  -0.6  88    -2.3  0     0     995.2    NA       0.0000   9999     2890  0     0    
2019/03/08  05:24:00  BASE  3.88668  293  4.80984  297  -0.6  89    -2.2  0     0     995.2    NA       0.0000   9999     2820  0     0    
2019/03/08  05:25:00  BASE  4.11012  292  4.80984  297  -0.6  89    -2.2  0     0     995.1    NA       0.0000   9999     2790  0     0    
2019/03/08  05:26:00  BASE  4.3512   291  5.53308  286  -0.7  90    -2.2  0     0     995.1    NA       0.0000   9999     2950  0     0    
2019/03/08  05:27:00  BASE  4.34532  289  5.53308  286  -0.7  90    -2.1  0     0     995.1    NA       0.0000   9999     2890  0     0    
2019/03/08  05:28:00  BASE  4.116    288  5.53308  286  -0.7  90    -2.1  0     0     995.1    NA       0.0000   9999     2890  0     0    
2019/03/08  05:29:00  BASE  3.99252  290  5.53308  286  -0.7  90    -2.1  0     0     995.1    NA       0.0000   9999     2790  0     0    
2019/03/08  05:30:00  BASE  4.13364  294  5.53308  286  -0.7  90    -2.1  0     0     995.1    NA       0.0000   9999     2790  0     0    
2019/03/08  05:31:00  BASE  4.38648  294  5.53308  286  -0.7  90    -2.1  0     0     995.1    NA       0.0000   9999     2850  0     0    
2019/03/08  05:32:00  BASE  4.13952  292  5.53308  286  -0.7  91    -2.0  0     0     995.1    NA       0.0000   9999     2890  0     0    
2019/03/08  05:33:00  BASE  3.675    287  5.53308  286  -0.7  91    -2.0  0     0     995.1    NA       0.0000   9999     2820  0     0    
2019/03/08  05:34:00  BASE  3.51624  285  5.53308  286  -0.7  91    -1.9  0     0     995.1    NA       0.0000   9999     2950  0     0    
2019/03/08  05:35:00  BASE  3.54564  284  5.53308  286  -0.7  91    -1.9  0     0     995.1    NA       0.0000   9999     3020  0     0    
2019/03/08  05:36:00  BASE  3.47508  280  5.145    282  -0.7  91    -1.9  0     0     995.1    NA       0.0000   9999     2990  0     0    
2019/03/08  05:37:00  BASE  3.10464  285  4.86864  293  -0.7  91    -2.0  0     0     995.1    NA       0.0000   9999     3020  0     0    
2019/03/08  05:38:00  BASE  2.98704  289  4.86864  293  -0.7  91    -2.0  0     0     995.1    NA       0.0000   9999     2490  0     0    
2019/03/08  05:39:00  BASE  2.89296  289  4.86864  293  -0.7  91    -2.0  0     0     995.1    NA       0.0000   9999     2920  0     0    
2019/03/08  05:40:00  BASE  2.83416  290  4.86864  293  -0.7  91    -2.0  0     0     995.1    NA       0.0000   9999     2030  2850  0    
2019/03/08  05:41:00  BASE  3.01644  288  4.05132  285  -0.7  91    -2.0  0     0     995.1    NA       0.0000   9999     1970  0     0    
2019/03/08  05:42:00  BASE  3.1458   288  4.05132  285  -0.7  91    -2.0  0     0     995.1    NA       0.0000   9999     1800  2990  0    
2019/03/08  05:43:00  BASE  3.4986   288  4.263    291  -0.7  91    -1.9  0     0     995.1    NA       0.0000   9999     1740  0     0    
2019/03/08  05:44:00  BASE  3.65736  285  4.263    291  -0.7  92    -1.9  0     0     995.1    NA       0.0000   9999     1940  3150  0    
2019/03/08  05:45:00  BASE  3.78672  286  4.35708  287  -0.7  92    -1.9  0     0     995.0    NA       0.0000   9999     3050  0     0    
2019/03/08  05:46:00  BASE  3.60444  289  4.35708  287  -0.7  92    -1.8  0     0     995.1    NA       0.0000   9999     2030  3120  0    
2019/03/08  05:47:00  BASE  3.06348  287  4.35708  287  -0.7  92    -1.8  0     0     995.1    NA       0.0000   9999     1970  3220  0    
2019/03/08  05:48:00  BASE  3.06348  287  4.35708  287  -0.7  92    -1.8  0     0     995.0    NA       0.0000   9999     1940  0     0    
2019/03/08  05:49:00  BASE  3.16344  285  4.35708  287  -0.7  93    -1.7  0     0     995.1    NA       0.0000   9999     2030  0     0    
2019/03/08  05:50:00  BASE  2.68716  282  4.35708  287  -0.7  93    -1.7  0     0     995.0    NA       0.0000   9999     2070  0     0    
2019/03/08  05:51:00  BASE  2.5578   285  4.35708  287  -0.7  94    -1.6  0     0     995.0    NA       0.0000   9999     2330  3050  0    
2019/03/08  05:52:00  BASE  2.79888  286  4.35708  287  -0.7  94    -1.6  0     0     994.9    NA       0.0000   9999     3020  0     0    
2019/03/08  05:53:00  BASE  2.80476  273  4.35708  287  -0.7  94    -1.6  0     0     994.9    NA       0.0000   9999     3080  0     0    
2019/03/08  05:54:00  BASE  3.00468  261  4.35708  287  -0.8  94    -1.6  0     0     994.9    NA       0.0000   9999     3080  0     0    
2019/03/08  05:55:00  BASE  2.87532  260  3.75144  293  -0.8  94    -1.7  0     0     994.9    NA       0.0000   9999     3050  0     0    
2019/03/08  05:56:00  BASE  2.57544  259  3.69264  290  -0.8  93    -1.8  0     0     994.9    NA       0.0000   9999     2990  0     0    
2019/03/08  05:57:00  BASE  2.66364  258  3.69264  290  -0.8  92    -2.0  0     0     994.9    NA       0.0000   9999     2990  0     0    
2019/03/08  05:58:00  BASE  2.37552  261  3.69264  290  -0.8  91    -2.1  0     0     994.9    NA       0.0000   9999     2890  0     0    
2019/03/08  05:59:00  BASE  2.36376  261  3.62796  253  -0.7  90    -2.2  0     0     994.9    NA       0.0000   9999     2890  0     0    
2019/03/08  06:00:00  BASE  2.79888  256  3.62796  253  -0.7  89    -2.3  0     0     994.9    NA       0.0000   9999     2890  0     0    
2019/03/08  06:01:00  BASE  2.66952  256  3.62796  253  -0.7  89    -2.3  0     0     994.8    NA       0.0000   9999     2890  0     0    
2019/03/08  06:02:00  BASE  2.52252  251  3.62796  253  -0.7  89    -2.4  0     0     994.8    NA       0.0000   9999     2850  0     0    
2019/03/08  06:03:00  BASE  2.37552  246  3.53976  260  -0.7  88    -2.4  0     0     994.8    NA       0.0000   9999     2890  0     0    
2019/03/08  06:04:00  BASE  2.3814   248  3.29868  250  -0.7  88    -2.4  0     0     994.8    NA       0.0000   9999     2850  0     0    
2019/03/08  06:05:00  BASE  2.65776  244  3.29868  250  -0.7  88    -2.4  0     0     994.8    NA       0.0000   9999     2850  0     0    
2019/03/08  06:06:00  BASE  2.81064  241  3.41628  238  -0.7  88    -2.4  0     0     994.7    NA       0.0000   9999     2850  0     0    
2019/03/08  06:07:00  BASE  2.80476  242  3.41628  238  -0.7  89    -2.3  0     0     994.7    NA       0.0000   9999     2890  0     0    
2019/03/08  06:08:00  BASE  2.65776  244  3.41628  238  -0.7  89    -2.3  0     0     994.7    NA       0.0000   9999     2890  0     0    
2019/03/08  06:09:00  BASE  2.74008  246  3.41628  238  -0.7  89    -2.3  0     0     994.7    NA       0.0000   9999     2890  0     0    
2019/03/08  06:10:00  BASE  2.84004  247  3.41628  238  -0.7  89    -2.2  0     0     994.7    NA       0.0000   9999     2920  0     0    
2019/03/08  06:11:00  BASE  2.59896  247  3.41628  238  -0.7  89    -2.2  0     0     994.7    NA       0.0000   9999     2820  0     0    
2019/03/08  06:12:00  BASE  2.36964  249  3.75144  255  -0.7  89    -2.2  0     0     994.7    NA       0.0000   9999     2760  0     0    
2019/03/08  06:13:00  BASE  2.8224   253  3.75144  255  -0.7  89    -2.3  0     0     994.7    NA       0.0000   9999     2720  0     0    
2019/03/08  06:14:00  BASE  3.1458   251  3.75144  255  -0.7  89    -2.3  0     0     994.7    NA       0.0000   9999     2460  0     0    
2019/03/08  06:15:00  BASE  3.0576   245  3.75144  255  -0.7  89    -2.4  0     0     994.7    NA       0.0000   9999     2760  0     0    
2019/03/08  06:16:00  BASE  2.97528  244  3.75144  255  -0.8  89    -2.4  0     0     994.7    NA       0.0000   9999     2820  0     0    
2019/03/08  06:17:00  BASE  2.74596  249  3.75144  255  -0.8  88    -2.5  0     0     994.7    NA       0.0000   9999     2890  0     0    
2019/03/08  06:18:00  BASE  2.66952  249  3.75144  255  -0.8  87    -2.6  0     0     994.7    NA       0.0000   9999     2920  0     0    
2019/03/08  06:19:00  BASE  3.381    243  4.50996  237  -0.7  86    -2.8  0     0     994.7    NA       0.0000   9999     2820  0     0    
2019/03/08  06:20:00  BASE  4.13364  243  4.62756  245  -0.7  85    -2.9  0     0     994.7    NA       0.0000   9999     2820  0     0    
2019/03/08  06:21:00  BASE  3.90432  247  4.62756  245  -0.7  85    -3.0  0     0     994.7    NA       0.0000   9999     2890  0     0    
2019/03/08  06:22:00  BASE  3.675    243  4.62756  245  -0.7  85    -3.0  0     0     994.7    NA       0.0000   9999     2920  0     0    
2019/03/08  06:23:00  BASE  3.77496  238  4.62756  245  -0.7  85    -2.9  0     0     994.7    NA       0.0000   9999     2920  0     0    
2019/03/08  06:24:00  BASE  3.6456   239  4.62756  245  -0.7  85    -2.9  0     0     994.7    NA       0.0000   9999     2920  0     0    
2019/03/08  06:25:00  BASE  3.53976  244  4.62756  245  -0.7  84    -3.0  0     0     994.7    NA       0.0000   9999     2890  0     0    
2019/03/08  06:26:00  BASE  4.00428  247  4.96272  245  -0.7  84    -3.1  0     0     994.7    NA       0.0000   9999     2820  0     0    
2019/03/08  06:27:00  BASE  3.969    247  4.96272  245  -0.7  82    -3.4  0     0     994.7    NA       0.0000   9999     2790  0     0    
2019/03/08  06:28:00  BASE  3.65736  245  4.96272  245  -0.7  80    -3.7  0     0     994.7    NA       0.0000   9999     2560  0     0    
2019/03/08  06:29:00  BASE  3.675    236  4.96272  245  -0.7  79    -3.9  0     0     994.7    NA       0.0000   9999     2660  0     0    
2019/03/08  06:30:00  BASE  3.528    227  4.96272  245  -0.7  77    -4.2  0     0     994.7    NA       0.0000   9999     2720  0     0    
2019/03/08  06:31:00  BASE  3.528    223  4.96272  245  -0.7  76    -4.4  0     0     994.7    NA       0.0000   9999     2760  0     0    
2019/03/08  06:32:00  BASE  3.7338   223  4.96272  245  -0.7  76    -4.4  0     0     994.7    NA       0.0000   9999     2820  0     0    
2019/03/08  06:33:00  BASE  3.80436  226  4.96272  245  -0.7  76    -4.3  0     0     994.7    NA       0.0000   9999     2790  0     0    
2019/03/08  06:34:00  BASE  3.57504  228  4.96272  245  -0.7  77    -4.2  0     0     994.6    NA       0.0000   9999     2760  0     0    
2019/03/08  06:35:00  BASE  3.38688  227  4.96272  245  -0.7  79    -3.9  0     0     994.6    NA       0.0000   9999     2720  0     0    
2019/03/08  06:36:00  BASE  3.27516  228  4.41588  248  -0.7  80    -3.7  0     0     994.6    NA       0.0000   9999     2790  0     0    
2019/03/08  06:37:00  BASE  2.85768  234  4.41588  248  -0.7  81    -3.5  0     0     994.6    NA       0.0000   9999     2760  0     0    
2019/03/08  06:38:00  BASE  2.77536  238  4.2336   224  -0.7  82    -3.4  0     0     994.6    NA       0.0000   9999     2760  0     0    
2019/03/08  06:39:00  BASE  2.83416  235  4.2336   224  -0.7  82    -3.3  0     0     994.6    NA       0.0000   9999     2620  0     0    
2019/03/08  06:40:00  BASE  2.57544  229  4.2336   224  -0.7  82    -3.4  0     0     994.6    NA       0.0000   9999     2620  0     0    
2019/03/08  06:41:00  BASE  2.95176  228  4.2336   224  -0.7  82    -3.5  0     0     994.6    NA       0.0000   9999     2660  0     0    
2019/03/08  06:42:00  BASE  3.29868  227  4.1454   225  -0.7  81    -3.6  0     0     994.6    NA       0.0000   9999     2620  0     0    
2019/03/08  06:43:00  BASE  3.18696  224  3.96312  223  -0.7  80    -3.7  0     0     994.6    NA       0.0000   9999     2660  0     0    
2019/03/08  06:44:00  BASE  3.234    221  3.81024  227  -0.7  79    -3.9  0     0     994.6    NA       0.0000   9999     2660  0     0    
2019/03/08  06:45:00  BASE  2.92824  225  3.81024  227  -0.7  78    -4.1  0     0     994.6    NA       0.0000   9999     2690  0     0    
2019/03/08  06:46:00  BASE  2.4696   229  3.75144  222  -0.7  77    -4.2  0     0     994.6    NA       0.0000   9999     2590  0     0    
2019/03/08  06:47:00  BASE  2.793    230  3.81024  234  -0.7  76    -4.3  0     0     994.5    NA       0.0000   9999     2690  0     0    
2019/03/08  06:48:00  BASE  3.15756  237  3.81024  234  -0.7  76    -4.4  0     0     994.5    NA       0.0000   9999     2690  0     0    
2019/03/08  06:49:00  BASE  3.06936  246  3.81024  234  -0.7  76    -4.4  0     0     994.5    NA       0.0000   9999     2690  0     0    
2019/03/08  06:50:00  BASE  2.86356  245  3.81024  234  -0.7  77    -4.3  0     0     994.5    NA       0.0000   9999     2690  0     0    
2019/03/08  06:51:00  BASE  2.50488  235  3.81024  234  -0.7  77    -4.3  0     0     994.5    NA       0.0000   9999     2530  0     0    
2019/03/08  06:52:00  BASE  2.48136  231  3.81024  234  -0.7  77    -4.2  0     0     994.5    NA       0.0000   9999     2490  0     0    
2019/03/08  06:53:00  BASE  2.66364  233  3.81024  234  -0.7  78    -4.1  0     0     994.5    NA       0.0000   9999     2400  0     0    
2019/03/08  06:54:00  BASE  2.34024  238  3.81024  234  -0.7  78    -4.1  0     0     994.5    NA       0.0000   9999     2360  0     0    
2019/03/08  06:55:00  BASE  2.15208  237  3.81024  234  -0.7  78    -4.0  0     0     994.5    NA       0.0000   9999     2400  0     0    
2019/03/08  06:56:00  BASE  2.57544  234  3.81024  234  -0.7  78    -4.0  0     0     994.5    NA       0.0000   9999     2330  0     0    
2019/03/08  06:57:01  BASE  2.89884  237  3.53976  250  -0.7  78    -4.1  0     0     994.4    NA       0.0000   9999     2460  0     0    
2019/03/08  06:58:00  BASE  2.90472  237  3.41628  245  -0.7  78    -4.2  0     0     994.4    NA       0.0000   9999     2490  0     0    
2019/03/08  06:59:00  BASE  2.81064  239  3.29868  229  -0.7  77    -4.3  0     0     994.4    NA       0.0000   9999     2560  0     0    
2019/03/08  07:00:00  BASE  2.5578   241  3.29868  229  -0.8  77    -4.4  0     0     994.4    NA       0.0000   9999     2560  0     0    
2019/03/08  07:01:00  BASE  2.10504  242  3.29868  229  -0.8  76    -4.4  0     0     994.4    NA       0.0000   9999     2560  0     0    
2019/03/08  07:02:00  BASE  2.00508  248  3.29868  229  -0.8  76    -4.5  0     0     994.4    NA       0.0000   9999     2560  0     0    
2019/03/08  07:03:01  BASE  2.205    255  3.29868  229  -0.8  76    -4.5  0     0     994.3    NA       0.0000   9999     2490  0     0    
2019/03/08  07:04:00  BASE  2.29908  256  3.29868  229  -0.8  76    -4.5  0     0     994.2    NA       0.0000   9999     2490  0     0    
2019/03/08  07:05:00  BASE  2.45196  248  3.29868  229  -0.8  76    -4.5  0     0     994.2    NA       0.0000   9999     2460  0     0    
2019/03/08  07:06:00  BASE  2.39316  246  3.29868  229  -0.8  76    -4.5  0     0     994.2    NA       0.0000   9999     2490  0     0    
2019/03/08  07:07:00  BASE  2.25792  248  3.1458   235  -0.8  76    -4.5  0     0     994.2    NA       0.0000   9999     2490  0     0    
2019/03/08  07:08:00  BASE  2.13444  237  3.1164   240  -0.8  76    -4.5  0     0     994.2    NA       0.0000   9999     2490  0     0    
2019/03/08  07:09:00  BASE  2.12856  214  2.81064  247  -0.8  76    -4.5  0     0     994.2    NA       0.0000   9999     2490  0     0    
2019/03/08  07:10:00  BASE  2.22852  203  2.75184  247  -0.8  76    -4.5  0     0     994.2    NA       0.0000   9999     2490  0     0    
2019/03/08  07:11:00  BASE  2.12268  199  2.75184  247  -0.8  76    -4.5  0     0     994.2    NA       0.0000   9999     2620  0     0    
2019/03/08  07:12:00  BASE  1.98744  191  2.75184  247  -0.8  75    -4.6  0     0     994.2    NA       0.0000   9999     2620  0     0    
2019/03/08  07:13:00  BASE  1.90512  188  2.75184  247  -0.8  75    -4.7  0     0     994.1    NA       0.0000   9999     2590  0     0    
2019/03/08  07:14:00  BASE  1.88748  196  2.75184  247  -0.8  75    -4.7  0     0     994.1    NA       0.0000   9999     2590  0     0    
2019/03/08  07:15:00  BASE  1.91688  209  2.66364  226  -0.8  75    -4.7  0     0     994.1    NA       0.0000   9999     2590  0     0    
2019/03/08  07:16:00  BASE  2.15208  219  2.66364  226  -0.8  75    -4.7  0     0     994.1    NA       0.0000   9999     2590  0     0    
2019/03/08  07:17:00  BASE  2.21088  222  2.66364  226  -0.8  75    -4.7  0     0     994.1    NA       0.0000   9999     2560  0     0    
2019/03/08  07:18:00  BASE  1.69344  219  2.66364  226  -0.8  75    -4.7  0     0     994.1    NA       0.0000   9999     2530  0     0    
2019/03/08  07:19:00  BASE  1.36416  217  2.66364  226  -0.8  75    -4.7  0     0     994.1    NA       0.0000   9999     2530  0     0    
2019/03/08  07:20:00  BASE  1.5582   219  2.66364  226  -0.8  75    -4.7  0     0     994.1    NA       0.0000   9999     2530  0     0    
2019/03/08  07:21:01  BASE  1.78164  216  2.66364  226  -0.8  75    -4.6  0     0     994.1    NA       0.0000   9999     2530  0     0    
2019/03/08  07:22:01  BASE  1.95216  215  2.66364  226  -0.8  75    -4.6  0     0     994.1    NA       0.0000   9999     2530  0     0    
2019/03/08  07:23:00  BASE  2.39316  214  3.29868  218  -0.7  76    -4.5  0     0     994.1    NA       0.0000   9999     2490  0     0    
2019/03/08  07:24:00  BASE  2.34612  226  3.29868  218  -0.7  76    -4.4  0     0     994.1    NA       0.0000   9999     2490  0     0    
2019/03/08  07:25:00  BASE  1.7052   254  3.29868  218  -0.7  77    -4.3  0     0     994.1    NA       0.0000   9999     2430  0     0    
2019/03/08  07:26:01  BASE  1.51704  257  3.29868  218  -0.7  77    -4.3  0     0     994.1    NA       0.0000   9999     2360  0     0    
2019/03/08  07:27:00  BASE  1.68168  251  3.29868  218  -0.7  77    -4.2  0     0     994.0    NA       0.0000   9999     2360  0     0    
2019/03/08  07:28:00  BASE  1.99332  247  3.29868  218  -0.7  78    -4.1  0     0     994.0    NA       0.0000   9999     2430  0     0    
2019/03/08  07:29:00  BASE  2.24028  244  3.29868  218  -0.8  78    -4.1  0     0     994.0    NA       0.0000   9999     2360  0     0    
2019/03/08  07:30:00  BASE  2.04036  246  3.29868  218  -0.8  78    -4.2  0     0     994.0    NA       0.0000   9999     2400  0     0    
2019/03/08  07:31:00  BASE  1.99332  244  3.29868  218  -0.8  78    -4.2  0     0     994.0    NA       0.0000   9999     2490  0     0    
2019/03/08  07:32:00  BASE  2.14032  248  3.29868  218  -0.8  77    -4.3  0     0     994.0    NA       0.0000   9999     2460  0     0    
2019/03/08  07:33:00  BASE  2.3814   247  3.087    234  -0.8  77    -4.3  0     0     994.0    NA       0.0000   9999     2460  0     0    
2019/03/08  07:34:00  BASE  2.86356  236  3.29868  233  -0.8  77    -4.3  0     0     994.0    NA       0.0000   9999     2490  0     0    
2019/03/08  07:35:00  BASE  2.98116  229  3.29868  233  -0.8  77    -4.3  0     0     994.0    NA       0.0000   9999     2490  0     0    
2019/03/08  07:36:00  BASE  2.69304  228  3.29868  233  -0.8  77    -4.3  0     0     994.0    NA       0.0000   9999     2530  0     0    
2019/03/08  07:37:00  BASE  2.35788  230  3.29868  233  -0.8  77    -4.3  0     0     994.0    NA       0.0000   9999     2530  0     0    
2019/03/08  07:38:00  BASE  2.08152  232  3.29868  233  -0.8  77    -4.3  0     0     994.0    NA       0.0000   9999     2590  0     0    
2019/03/08  07:39:00  BASE  2.47548  236  3.48096  237  -0.8  77    -4.4  0     0     994.0    NA       0.0000   9999     2530  0     0    
2019/03/08  07:40:00  BASE  2.98116  237  3.59856  233  -0.8  77    -4.4  0     0     994.0    NA       0.0000   9999     2530  0     0    
2019/03/08  07:41:00  BASE  2.99292  232  3.59856  231  -0.8  77    -4.4  0     0     993.9    NA       0.0000   9999     2530  0     0    
2019/03/08  07:42:00  BASE  2.81064  224  3.59856  231  -0.8  77    -4.3  0     0     993.9    NA       0.0000   9999     2560  0     0    
2019/03/08  07:43:00  BASE  2.44608  230  3.59856  231  -0.8  77    -4.3  0     0     993.9    NA       0.0000   9999     2560  0     0    
2019/03/08  07:44:00  BASE  2.11092  233  3.59856  231  -0.8  77    -4.3  0     0     993.9    NA       0.0000   9999     2530  0     0    
2019/03/08  07:45:00  BASE  2.05212  219  3.59856  231  -0.8  77    -4.3  0     0     993.9    NA       0.0000   9999     2490  0     0    
2019/03/08  07:46:00  BASE  2.25204  215  3.59856  231  -0.8  77    -4.3  0     0     993.9    NA       0.0000   9999     2430  0     0    
2019/03/08  07:47:00  BASE  2.34024  222  3.59856  231  -0.8  78    -4.2  0     0     993.9    NA       0.0000   9999     2430  0     0    
2019/03/08  07:48:00  BASE  2.44608  226  3.59856  231  -0.8  78    -4.1  0     0     993.9    NA       0.0000   9999     2530  0     0    
2019/03/08  07:49:00  BASE  2.59308  225  3.59856  231  -0.8  78    -4.1  0     0     993.9    NA       0.0000   9999     2530  0     0    
2019/03/08  07:50:00  BASE  2.46372  228  3.59856  231  -0.8  79    -4.0  0     0     993.9    NA       0.0000   9999     2400  0     0    
2019/03/08  07:51:00  BASE  2.32848  231  2.96352  223  -0.8  79    -4.0  0     0     993.9    NA       0.0000   9999     2170  0     0    
2019/03/08  07:52:00  BASE  2.4402   239  3.35748  251  -0.8  80    -3.9  0     0     993.9    NA       0.0000   9999     2170  0     0    
2019/03/08  07:53:00  BASE  2.66952  253  3.48096  261  -0.8  80    -3.8  0     0     993.9    NA       0.0000   9999     2170  0     0    
2019/03/08  07:54:00  BASE  3.04584  262  3.75144  272  -0.8  81    -3.7  0     0     993.9    NA       0.0000   9999     2200  0     0    
2019/03/08  07:55:00  BASE  3.19872  264  4.1454   266  -0.8  81    -3.6  0     0     993.9    NA       0.0000   9999     2200  0     0    
2019/03/08  07:56:00  BASE  3.32808  264  4.1454   266  -0.8  81    -3.6  0     0     993.9    NA       0.0000   9999     2300  0     0    
2019/03/08  07:57:00  BASE  3.45156  267  4.1454   266  -0.8  81    -3.6  0     0     993.9    NA       0.0000   9999     2330  0     0    
2019/03/08  07:58:00  BASE  2.89296  263  4.1454   266  -0.8  81    -3.7  0     0     993.9    NA       0.0000   9999     2400  0     0    
2019/03/08  07:59:00  BASE  1.9404   271  4.1454   266  -0.8  80    -3.9  0     0     993.9    NA       0.0000   9999     2330  0     0    
2019/03/08  08:00:00  BASE  1.7934   291  4.1454   266  -0.8  79    -4.0  0     0     993.9    NA       0.0000   9999     2170  0     0    
2019/03/08  08:01:00  BASE  1.92864  303  4.1454   266  -0.8  78    -4.2  0     0     993.9    NA       0.0000   9999     2170  0     0    
2019/03/08  08:02:00  BASE  1.51116  297  4.1454   266  -0.8  78    -4.3  0     0     993.9    NA       0.0000   9999     2200  0     0    
2019/03/08  08:03:00  BASE  1.24068  278  4.1454   266  -0.8  77    -4.3  0     0     993.9    NA       0.0000   9999     2300  0     0    
2019/03/08  08:04:00  BASE  1.37004  274  4.1454   266  -0.8  77    -4.3  0     0     993.9    NA       0.0000   9999     2360  0     0    
2019/03/08  08:05:01  BASE  1.35828  286  4.05132  261  -0.8  77    -4.3  0     0     993.8    NA       0.0000   9999     2330  0     0    
2019/03/08  08:06:00  BASE  1.2642   298  3.96312  268  -0.8  77    -4.3  0     0     993.8    NA       0.0000   9999     2300  0     0    
2019/03/08  08:07:00  BASE  1.48176  298  3.35748  255  -0.8  78    -4.2  0     0     993.7    NA       0.0000   9999     2260  0     0    
2019/03/08  08:08:00  BASE  1.75224  290  2.42256  301  -0.8  78    -4.2  0     0     993.7    NA       0.0000   9999     2300  0     0    
2019/03/08  08:09:00  BASE  1.63464  280  2.42256  301  -0.8  78    -4.2  0     0     993.7    NA       0.0000   9999     2300  0     0    
2019/03/08  08:10:00  BASE  1.51116  277  2.1756   273  -0.8  78    -4.2  0     0     993.7    NA       0.0000   9999     2300  0     0    
2019/03/08  08:11:00  BASE  1.56408  274  2.1756   273  -0.8  78    -4.2  0     0     993.7    NA       0.0000   9999     2230  0     0    
2019/03/08  08:12:00  BASE  1.51704  261  2.1756   273  -0.8  78    -4.2  0     0     993.7    NA       0.0000   9999     2300  0     0    
2019/03/08  08:13:00  BASE  1.72872  248  2.32848  245  -0.8  78    -4.2  0     0     993.7    NA       0.0000   9999     2260  0     0    
2019/03/08  08:14:00  BASE  1.85808  247  2.32848  245  -0.8  78    -4.1  0     0     993.7    NA       0.0000   9999     2200  0     0    
2019/03/08  08:15:00  BASE  2.0286   255  2.54016  258  -0.8  79    -4.1  0     0     993.8    NA       0.0000   9999     2070  0     0    
2019/03/08  08:16:00  BASE  2.39316  259  3.1458   258  -0.8  79    -4.0  0     0     993.8    NA       0.0000   9999     2030  0     0    
2019/03/08  08:17:00  BASE  2.94     255  4.02192  245  -0.8  80    -3.9  0     0     993.8    NA       0.0000   9999     2030  0     0    
2019/03/08  08:18:00  BASE  3.48684  255  4.02192  245  -0.9  81    -3.8  0     0     993.8    NA       0.0000   9999     2070  0     0    
2019/03/08  08:19:01  BASE  3.28692  257  4.02192  245  -0.9  81    -3.7  0     0     993.8    NA       0.0000   9999     2200  0     0    
2019/03/08  08:20:00  BASE  2.8812   257  4.02192  245  -0.9  82    -3.6  0     0     993.7    NA       0.0000   9999     2130  0     0    
2019/03/08  08:21:00  BASE  2.65188  253  4.02192  245  -0.9  82    -3.6  0     0     993.7    NA       0.0000   9999     2070  0     0    
2019/03/08  08:22:00  BASE  2.5284   249  4.02192  245  -0.9  82    -3.6  0     0     993.7    NA       0.0000   9999     2200  0     0    
2019/03/08  08:23:00  BASE  2.46372  244  4.02192  245  -0.9  82    -3.6  0     0     993.7    NA       0.0000   9999     2260  0     0    
2019/03/08  08:24:00  BASE  2.2932   246  4.02192  245  -0.9  82    -3.5  0     0     993.7    NA       0.0000   9999     2260  0     0    
2019/03/08  08:25:00  BASE  2.56956  254  4.02192  245  -0.9  83    -3.4  0     0     993.7    NA       0.0000   9999     2230  0     0    
2019/03/08  08:26:00  BASE  2.98116  256  4.02192  245  -0.9  84    -3.3  0     0     993.7    NA       0.0000   9999     2260  0     0    
2019/03/08  08:27:01  BASE  2.62836  261  3.99252  260  -0.9  84    -3.2  0     0     993.7    NA       0.0000   9999     2230  0     0    
2019/03/08  08:28:01  BASE  2.59896  261  3.41628  252  -0.9  84    -3.2  0     0     993.7    NA       0.0000   9999     2300  0     0    
2019/03/08  08:29:01  BASE  2.8812   256  3.41628  252  -0.9  84    -3.2  0     0     993.7    NA       0.0000   9999     2330  0     0    
2019/03/08  08:30:01  BASE  3.1752   256  4.1748   252  -0.9  84    -3.2  0     0     993.7    NA       0.0000   9999     2260  0     0    
2019/03/08  08:31:01  BASE  3.4986   254  4.1748   252  -0.9  84    -3.3  0     0     993.6    NA       0.0000   9999     2170  0     0    
2019/03/08  08:32:01  BASE  3.48684  252  4.1748   252  -0.9  84    -3.3  0     0     993.6    NA       0.0000   9999     2070  0     0    
2019/03/08  08:33:00  BASE  3.29868  255  4.1748   252  -0.9  83    -3.4  0     0     993.7    NA       0.0000   9999     2100  0     0    
2019/03/08  08:34:00  BASE  2.55192  259  4.1748   252  -0.9  83    -3.5  0     0     993.6    NA       0.0000   9999     2130  0     0    
2019/03/08  08:35:00  BASE  1.8228   257  4.1748   252  -0.9  82    -3.6  0     0     993.6    NA       0.0000   9999     2230  0     0    
2019/03/08  08:36:00  BASE  1.77576  253  4.1748   252  -0.9  82    -3.7  0     0     993.6    NA       0.0000   9999     2330  0     0    
2019/03/08  08:37:00  BASE  2.15796  247  4.1748   252  -0.9  81    -3.7  0     0     993.7    NA       0.0000   9999     2330  0     0    
2019/03/08  08:38:00  BASE  2.38728  246  4.1748   252  -0.9  81    -3.8  0     0     993.7    NA       0.0000   9999     2330  0     0    
2019/03/08  08:39:00  BASE  2.28732  252  4.1748   252  -0.9  81    -3.8  0     0     993.6    NA       0.0000   9999     2400  0     0    
2019/03/08  08:40:00  BASE  2.19324  257  3.81024  257  -0.9  80    -3.8  0     0     993.6    NA       0.0000   9999     2430  0     0    
2019/03/08  08:41:00  BASE  1.99332  254  3.81024  257  -0.9  80    -3.9  0     0     993.6    NA       0.0000   9999     2490  0     0    
2019/03/08  08:42:00  BASE  2.1756   255  3.53976  259  -0.9  80    -3.9  0     0     993.6    NA       0.0000   9999     2460  0     0    
2019/03/08  08:43:00  BASE  2.95764  255  3.81024  255  -0.9  80    -3.9  0     0     993.6    NA       0.0000   9999     2360  0     0    
2019/03/08  08:44:00  BASE  3.39276  254  3.93372  263  -0.9  80    -3.8  0     0     993.6    NA       0.0000   9999     2430  0     0    
2019/03/08  08:45:00  BASE  3.45744  257  3.93372  263  -0.9  80    -3.8  0     0     993.6    NA       0.0000   9999     2490  0     0    
2019/03/08  08:46:00  BASE  3.75144  257  4.75104  240  -0.9  80    -3.9  0     0     993.6    NA       0.0000   9999     2430  0     0    
2019/03/08  08:47:00  BASE  3.69852  251  4.75104  240  -0.9  80    -3.9  0     0     993.6    NA       0.0000   9999     2490  0     0    
2019/03/08  08:48:00  BASE  3.381    247  4.75104  240  -0.9  79    -4.0  0     0     993.6    NA       0.0000   9999     2490  0     0    
2019/03/08  08:49:00  BASE  2.66364  250  4.75104  240  -0.9  79    -4.1  0     0     993.6    NA       0.0000   9999     2490  0     0    
2019/03/08  08:50:00  BASE  2.04624  254  4.75104  240  -0.9  78    -4.2  0     0     993.6    NA       0.0000   9999     2460  0     0    
2019/03/08  08:51:00  BASE  2.95764  259  4.75104  240  -0.9  78    -4.3  0     0     993.5    NA       0.0000   9999     2490  0     0    
2019/03/08  08:52:00  BASE  3.31044  265  4.75104  240  -0.9  78    -4.3  0     0     993.5    NA       0.0000   9999     2490  0     0    
2019/03/08  08:53:00  BASE  3.11052  270  4.75104  240  -0.9  77    -4.4  0     0     993.5    NA       0.0000   9999     2460  0     0    
2019/03/08  08:54:01  BASE  3.73968  271  4.80984  274  -0.9  77    -4.4  0     0     993.5    NA       0.0000   9999     2490  0     0    
2019/03/08  08:55:01  BASE  3.9984   269  4.80984  274  -0.9  77    -4.5  0     0     993.5    NA       0.0000   9999     2560  0     0    
2019/03/08  08:56:01  BASE  3.51036  271  4.80984  274  -0.9  76    -4.5  0     0     993.5    NA       0.0000   9999     2660  0     0    
2019/03/08  08:57:00  BASE  3.34572  278  4.80984  274  -0.9  76    -4.6  0     0     993.5    NA       0.0000   9999     2590  0     0    
2019/03/08  08:58:00  BASE  3.28104  280  4.80984  274  -0.9  76    -4.7  0     0     993.5    NA       0.0000   9999     2560  0     0    
2019/03/08  08:59:00  BASE  2.72244  275  4.80984  274  -0.9  75    -4.7  0     0     993.5    NA       0.0000   9999     2530  0     0    
2019/03/08  09:00:00  BASE  2.50488  266  4.80984  274  -0.9  75    -4.8  0     0     993.5    NA       0.0000   9999     2560  0     0    
2019/03/08  09:01:00  BASE  2.51664  272  4.80984  274  -0.9  75    -4.8  0     0     993.5    NA       0.0000   9999     2590  0     0    
2019/03/08  09:02:00  BASE  2.41668  280  4.80984  274  -0.9  75    -4.8  0     0     993.5    NA       0.0000   9999     2620  0     0    
2019/03/08  09:03:00  BASE  2.2638   278  4.80984  274  -0.9  75    -4.8  0     0     993.5    NA       0.0000   9999     2560  0     0    
2019/03/08  09:04:00  BASE  2.5578   269  4.75104  266  -0.9  75    -4.8  0     0     993.4    NA       0.0000   9999     2660  0     0    
2019/03/08  09:05:00  BASE  2.78712  258  4.08072  286  -0.9  75    -4.8  0     0     993.4    NA       0.0000   9999     2660  0     0    
2019/03/08  09:06:00  BASE  2.31672  261  4.08072  286  -0.9  75    -4.7  0     0     993.4    NA       0.0000   9999     2720  0     0    
2019/03/08  09:07:01  BASE  2.5578   258  3.69264  246  -0.9  76    -4.7  0     0     993.4    NA       0.0000   9999     2760  0     0    
2019/03/08  09:08:01  BASE  2.94     254  3.69264  246  -0.9  76    -4.6  0     0     993.4    NA       0.0000   9999     2460  0     0    
2019/03/08  09:09:01  BASE  2.69892  244  3.69264  246  -0.9  76    -4.6  0     0     993.4    NA       0.0000   9999     2430  0     0    
2019/03/08  09:10:01  BASE  2.62836  237  3.69264  246  -0.9  76    -4.6  0     0     993.4    NA       0.0000   9999     2490  0     0    
2019/03/08  09:11:01  BASE  2.40492  243  3.69264  246  -1.0  76    -4.6  0     0     993.4    NA       0.0000   9999     2490  0     0    
2019/03/08  09:12:01  BASE  2.00508  235  3.69264  246  -1.0  76    -4.7  0     0     993.4    NA       0.0000   9999     2460  0     0    
2019/03/08  09:13:00  BASE  2.00508  217  3.69264  246  -1.0  75    -4.8  0     0     993.4    NA       0.0000   9999     2430  0     0    
2019/03/08  09:14:00  BASE  2.00508  209  3.69264  246  -1.0  75    -4.9  0     0     993.4    NA       0.0000   9999     2490  0     0    
2019/03/08  09:15:00  BASE  1.65228  206  3.69264  246  -1.0  75    -4.9  0     0     993.4    NA       0.0000   9999     2530  0     0    
2019/03/08  09:16:00  BASE  1.47588  207  3.69264  246  -1.0  74    -5.0  0     0     993.4    NA       0.0000   9999     2490  0     0    
2019/03/08  09:17:00  BASE  1.4406   216  3.26928  259  -1.0  74    -5.0  0     0     993.3    NA       0.0000   9999     2490  0     0    
2019/03/08  09:18:00  BASE  1.21716  223  3.2046   217  -1.0  74    -5.0  0     0     993.3    NA       0.0000   9999     2430  0     0    
2019/03/08  09:19:00  BASE  0.92316  222  3.087    239  -1.0  74    -5.0  0     0     993.3    NA       0.0000   9999     2400  0     0    
2019/03/08  09:20:00  BASE  0.93492  212  3.02232  243  -1.0  74    -5.0  0     0     993.3    NA       0.0000   9999     2430  0     0    
2019/03/08  09:21:00  BASE  1.13484  204  2.69304  203  -1.0  74    -5.0  0     0     993.2    NA       0.0000   9999     2430  0     0    
2019/03/08  09:22:00  BASE  1.05252  207  2.69304  203  -1.0  74    -5.0  1     0     993.2    NA       0.0000   9999     2400  0     0    
2019/03/08  09:23:00  BASE  0.9702   218  2.26968  204  -1.0  74    -5.0  1     0     993.2    NA       0.0000   9999     2460  0     0    
2019/03/08  09:24:00  BASE  0.71148  243  1.72284  214  -1.0  74    -5.0  1     0     993.2    NA       0.0000   9999     2400  0     0    
2019/03/08  09:25:00  BASE  0.21168  262  1.72284  214  -1.0  74    -5.0  1     0     993.1    NA       0.0000   9999     2460  0     0    
2019/03/08  09:26:00  BASE  0        282  1.72284  214  -1.0  74    -5.0  1     0     993.0    NA       0.0000   9999     2400  0     0    
2019/03/08  09:27:01  BASE  0        303  1.32888  201  -1.0  74    -5.0  1     0     993.0    NA       0.0000   9999     2330  0     0    
2019/03/08  09:28:00  BASE  0        308  1.32888  201  -1.0  74    -5.0  1     0     993.0    NA       0.0000   9999     2330  0     0    
2019/03/08  09:29:00  BASE  0        318  1.32888  201  -1.0  74    -5.0  1     0     993.0    NA       0.0000   9999     2460  0     0    
2019/03/08  09:30:00  BASE  0.11172  337  1.29948  218  -1.0  75    -4.9  1     0     993.0    NA       0.0000   9999     2460  0     0    
2019/03/08  09:31:00  BASE  0.17052  316  1.29948  218  -0.9  75    -4.9  1     0     993.0    NA       0.0000   9999     2430  0     0    
2019/03/08  09:32:00  BASE  0.2352   220  1.29948  218  -0.9  75    -4.8  1     0     993.0    NA       0.0000   9999     2360  0     0    
2019/03/08  09:33:00  BASE  0.41748  196  0.87612  205  -0.9  75    -4.7  1     0     992.9    NA       0.0000   9999     2400  0     0    
2019/03/08  09:34:00  BASE  0.60564  187  0.87612  205  -0.9  76    -4.7  1     0     992.9    NA       0.0000   9999     2400  0     0    
2019/03/08  09:35:00  BASE  0.78792  166  1.1172   157  -1.0  76    -4.7  1     0     992.9    NA       0.0000   9999     2400  0     0    
2019/03/08  09:36:00  BASE  0.77616  177  1.1172   157  -1.0  77    -4.6  1     0     992.9    NA       0.0000   9999     2400  0     0    
2019/03/08  09:37:00  BASE  0.3822   215  1.1172   157  -1.0  77    -4.5  1     0     992.9    NA       0.0000   9999     2400  0     0    
2019/03/08  09:38:00  BASE  0.03528  216  1.1172   157  -1.0  77    -4.4  1     0     992.9    NA       0.0000   9999     2300  0     0    
2019/03/08  09:39:00  BASE  0.30576  203  1.24068  194  -0.9  78    -4.4  1     0     992.9    NA       0.0000   9999     2330  0     0    
2019/03/08  09:40:00  BASE  0.90552  212  1.48176  219  -1.0  78    -4.4  2     0     992.9    NA       0.0000   9999     2330  0     0    
2019/03/08  09:41:00  BASE  0.68796  232  1.48176  219  -1.0  77    -4.4  2     0     992.9    NA       0.0000   9999     2330  0     0    
2019/03/08  09:42:00  BASE  0.11172  243  1.48176  219  -1.0  77    -4.5  2     0     992.9    NA       0.0000   9999     2360  0     0    
2019/03/08  09:43:00  BASE  0.39984  254  1.48176  219  -1.0  77    -4.6  2     0     992.9    NA       0.0000   9999     2360  0     0    
2019/03/08  09:44:00  BASE  0.62916  261  1.48176  219  -1.0  76    -4.6  2     0     992.8    NA       0.0000   9999     2300  0     0    
2019/03/08  09:45:00  BASE  0.68796  259  1.48176  219  -1.0  77    -4.6  2     0     992.8    NA       0.0000   9999     2400  0     0    
2019/03/08  09:46:00  BASE  0.86436  257  1.48176  219  -1.0  77    -4.5  2     0     992.8    NA       0.0000   9999     2330  0     0    
2019/03/08  09:47:00  BASE  0.80556  261  1.48176  219  -1.0  77    -4.4  2     0     992.8    NA       0.0000   9999     2300  0     0    
2019/03/08  09:48:01  BASE  0.57036  278  1.48176  219  -1.0  78    -4.3  2     0     992.8    NA       0.0000   9999     2260  0     0    
2019/03/08  09:49:01  BASE  0.57036  300  1.48176  219  -1.0  79    -4.2  3     0     992.8    NA       0.0000   9999     2230  0     0    
2019/03/08  09:50:01  BASE  1.12308  314  1.72284  316  -1.0  79    -4.2  3     0     992.7    NA       0.0000   9999     2260  0     0    
2019/03/08  09:51:01  BASE  1.44648  312  1.72284  316  -1.0  79    -4.2  3     0     992.7    NA       0.0000   9999     2260  0     0    
2019/03/08  09:52:01  BASE  1.34652  315  1.72284  316  -1.0  78    -4.3  3     0     992.7    NA       0.0000   9999     2230  0     0    
2019/03/08  09:53:01  BASE  1.29948  323  1.72284  316  -1.0  78    -4.3  3     0     992.7    NA       0.0000   9999     2300  0     0    
2019/03/08  09:54:00  BASE  1.37004  324  1.81692  314  -1.0  78    -4.4  3     0     992.7    NA       0.0000   9999     2300  0     0    
2019/03/08  09:55:00  BASE  1.45824  324  1.81692  314  -1.0  77    -4.5  4     0     992.7    NA       0.0000   9999     2330  0     0    
2019/03/08  09:56:00  BASE  1.48176  322  1.81692  314  -1.0  77    -4.5  4     0     992.7    NA       0.0000   9999     2300  0     0    
2019/03/08  09:57:00  BASE  1.42884  316  1.81692  314  -0.9  77    -4.4  4     0     992.7    NA       0.0000   9999     2300  0     0    
2019/03/08  09:58:00  BASE  1.28184  310  1.81692  314  -0.9  77    -4.4  4     0     992.7    NA       0.0000   9999     2330  0     0    
2019/03/08  09:59:00  BASE  1.08192  286  2.54016  248  -0.9  78    -4.3  4     0     992.7    NA       0.0000   9999     2330  0     0    
2019/03/08  10:00:01  BASE  1.39944  260  2.54016  248  -0.9  78    -4.3  4     0     992.7    NA       0.0000   9999     2330  0     0    
2019/03/08  10:01:00  BASE  1.94628  259  2.69304  259  -0.9  78    -4.2  5     0     992.7    NA       0.0000   9999     2330  0     0    
2019/03/08  10:02:00  BASE  2.4696   263  3.81024  247  -0.9  79    -4.2  5     0     992.7    NA       0.0000   9999     2300  0     0    
2019/03/08  10:03:00  BASE  2.9988   261  3.81024  247  -0.9  79    -4.2  5     0     992.7    NA       0.0000   9999     2300  0     0    
2019/03/08  10:04:00  BASE  2.9988   257  3.81024  247  -1.0  79    -4.2  6     0     992.6    NA       0.0000   9999     2300  0     0    
2019/03/08  10:05:00  BASE  2.66952  259  3.81024  247  -1.0  79    -4.2  6     0     992.6    NA       0.0000   9999     2300  0     0    
2019/03/08  10:06:00  BASE  2.24028  264  3.81024  247  -1.0  78    -4.3  6     0     992.6    NA       0.0000   9999     2230  0     0    
2019/03/08  10:07:00  BASE  1.69932  273  3.81024  247  -1.0  78    -4.3  7     0     992.6    NA       0.0000   9999     2200  0     0    
2019/03/08  10:08:00  BASE  1.45824  281  3.81024  247  -1.0  78    -4.3  7     0     992.6    NA       0.0000   9999     2230  0     0    
2019/03/08  10:09:00  BASE  1.764    274  3.81024  247  -1.0  78    -4.4  7     0     992.5    NA       0.0000   9999     2260  0     0    
2019/03/08  10:10:00  BASE  2.61072  277  3.81024  247  -1.0  78    -4.4  8     0     992.4    NA       0.0000   9999     2260  0     0    
2019/03/08  10:11:00  BASE  2.97528  287  3.81024  247  -1.0  77    -4.4  8     0     992.4    NA       0.0000   9999     2300  0     0    
2019/03/08  10:12:00  BASE  2.4108   291  3.75144  284  -1.0  77    -4.5  9     0     992.4    NA       0.0000   9999     2260  0     0    
2019/03/08  10:13:00  BASE  2.07564  297  3.75144  284  -1.0  77    -4.5  9     0     992.4    NA       0.0000   9999     2260  0     0    
2019/03/08  10:14:00  BASE  1.89336  302  3.75144  284  -1.0  77    -4.5  10    0     992.4    NA       0.0000   9999     2300  0     0    
2019/03/08  10:15:00  BASE  1.47588  310  3.75144  284  -1.0  77    -4.5  10    0     992.4    NA       0.0000   9999     2300  0     0    
2019/03/08  10:16:00  BASE  1.04076  318  3.75144  284  -1.0  77    -4.5  11    0     992.4    NA       0.0000   9999     2300  0     0    
2019/03/08  10:17:00  BASE  0.84672  322  3.75144  284  -1.0  77    -4.5  11    0     992.4    NA       0.0000   9999     2300  0     0    
2019/03/08  10:18:00  BASE  0.84672  330  3.75144  284  -1.0  77    -4.5  11    0     992.4    NA       0.0000   9999     2300  0     0    
2019/03/08  10:19:00  BASE  0.9702   328  3.75144  284  -1.0  77    -4.5  12    0     992.3    NA       0.0000   9999     2300  0     0    
2019/03/08  10:20:00  BASE  1.03488  314  3.1458   288  -1.0  77    -4.5  12    0     992.3    NA       0.0000   9999     2300  0     0    
2019/03/08  10:21:00  BASE  0.64092  310  2.63424  287  -1.0  77    -4.5  12    0     992.3    NA       0.0000   9999     2230  0     0    
2019/03/08  10:22:00  BASE  0.147    320  2.29908  299  -1.0  77    -4.5  13    0     992.3    NA       0.0000   9999     2260  0     0    
2019/03/08  10:23:00  BASE  0        336  2.1462   299  -1.0  77    -4.5  13    0     992.3    NA       0.0000   9999     2230  0     0    
2019/03/08  10:24:00  BASE  0        309  1.51116  329  -1.0  77    -4.5  14    0     992.3    NA       0.0000   9999     2300  0     0    
2019/03/08  10:25:00  BASE  0.13524  283  1.51116  329  -1.0  77    -4.5  14    0     992.3    NA       0.0000   9999     2300  0     0    
2019/03/08  10:26:00  BASE  0.27048  279  1.51116  329  -1.0  77    -4.5  15    0     992.3    NA       0.0000   9999     2230  0     0    
2019/03/08  10:27:01  BASE  0.54096  274  1.51116  329  -1.0  77    -4.5  16    0     992.3    NA       0.0000   9999     2230  0     0    
2019/03/08  10:28:01  BASE  1.0878   276  1.72284  275  -1.0  77    -4.5  16    0     992.3    NA       0.0000   9999     2230  0     0    
2019/03/08  10:29:01  BASE  1.64052  269  2.0874   255  -1.0  77    -4.5  17    0     992.3    NA       0.0000   9999     2260  0     0    
2019/03/08  10:30:01  BASE  1.8522   258  2.0874   255  -1.0  77    -4.5  18    0     992.3    NA       0.0000   9999     2260  0     0    
2019/03/08  10:31:01  BASE  1.65816  255  2.0874   255  -1.0  78    -4.4  19    0     992.2    NA       0.0000   9999     2260  0     0    
2019/03/08  10:32:01  BASE  1.3818   255  2.0874   255  -1.0  78    -4.4  20    0     992.2    NA       0.0000   9999     2230  0     0    
2019/03/08  10:33:00  BASE  1.07016  255  2.0874   255  -1.0  78    -4.3  20    0     992.2    NA       0.0000   9999     2170  0     0    
2019/03/08  10:34:00  BASE  0.90552  253  2.0874   255  -1.0  78    -4.3  20    0     992.2    NA       0.0000   9999     2200  0     0    
2019/03/08  10:35:00  BASE  1.01136  253  2.0874   255  -1.0  79    -4.2  19    0     992.2    NA       0.0000   9999     2230  0     0    
2019/03/08  10:36:00  BASE  1.27008  255  2.0874   255  -1.0  79    -4.2  18    0     992.2    NA       0.0000   9999     2230  0     0    
2019/03/08  10:37:00  BASE  1.617    257  2.24028  246  -1.0  79    -4.3  18    0     992.2    NA       0.0000   9999     2230  0     0    
2019/03/08  10:38:00  BASE  1.55232  270  2.32848  311  -1.0  79    -4.3  18    0     992.2    NA       0.0000   9999     2230  0     0    
2019/03/08  10:39:00  BASE  2.06388  291  3.0576   299  -1.0  79    -4.3  19    0     992.2    NA       0.0000   9999     2260  0     0    
2019/03/08  10:40:00  BASE  2.51076  298  3.0576   299  -1.0  79    -4.3  19    0     992.2    NA       0.0000   9999     2230  0     0    
2019/03/08  10:41:00  BASE  1.84632  306  3.0576   299  -1.0  79    -4.3  20    0     992.1    NA       0.0000   9999     2200  0     0    
2019/03/08  10:42:00  BASE  1.3524   317  3.0576   299  -1.0  79    -4.3  21    0     992.1    NA       0.0000   9999     2230  0     0    
2019/03/08  10:43:00  BASE  1.5288   307  3.0576   299  -1.0  78    -4.3  22    0     992.1    NA       0.0000   9999     2230  0     0    
2019/03/08  10:44:00  BASE  1.62288  284  3.0576   299  -1.0  78    -4.4  22    0     992.1    NA       0.0000   9999     2230  0     0    
2019/03/08  10:45:00  BASE  1.16424  283  3.0576   299  -1.0  77    -4.5  23    0     992.1    NA       0.0000   9999     2170  0     0    
2019/03/08  10:46:00  BASE  1.15836  295  3.0576   299  -1.0  77    -4.5  24    0     992.1    NA       0.0000   9999     2170  0     0    
2019/03/08  10:47:00  BASE  1.27008  293  3.0576   299  -1.0  77    -4.5  24    0     992.1    NA       0.0000   9999     2230  0     0    
2019/03/08  10:48:00  BASE  1.06428  292  3.0576   299  -1.0  77    -4.5  24    0     992.0    NA       0.0000   9999     2530  0     0    
2019/03/08  10:49:00  BASE  0.84672  294  2.66364  295  -1.0  77    -4.5  25    0     992.0    NA       0.0000   9999     2200  0     0    
2019/03/08  10:50:00  BASE  0.72912  295  2.21088  304  -1.0  77    -4.5  25    0     992.0    NA       0.0000   9999     2100  0     0    
2019/03/08  10:51:00  BASE  0.71148  298  2.21088  304  -1.0  77    -4.5  25    0     992.0    NA       0.0000   9999     2070  0     0    
2019/03/08  10:52:00  BASE  0.735    298  2.21088  304  -1.0  77    -4.5  26    0     992.0    NA       0.0000   9999     2130  0     0    
2019/03/08  10:53:00  BASE  0.4998   289  1.87572  308  -1.0  77    -4.5  26    0     992.0    NA       0.0000   9999     2170  0     0    
2019/03/08  10:54:00  BASE  0.14112  277  1.87572  308  -1.0  77    -4.5  27    0     992.0    NA       0.0000   9999     2130  0     0    
2019/03/08  10:55:00  BASE  0.0294   264  1.87572  308  -1.0  77    -4.6  27    0     992.0    NA       0.0000   9999     2100  0     0    
2019/03/08  10:56:00  BASE  0.15288  255  1.29948  278  -1.1  77    -4.6  28    0     992.0    NA       0.0000   9999     2170  0     0    
2019/03/08  10:57:00  BASE  0.53508  249  1.1466   296  -1.1  77    -4.6  28    0     992.0    NA       0.0000   9999     2100  0     0    
2019/03/08  10:58:00  BASE  0.62328  244  0.9702   249  -1.1  77    -4.6  28    0     991.9    NA       0.0000   9999     2100  0     0    
2019/03/08  10:59:00  BASE  0.51156  240  0.9702   249  -1.1  77    -4.6  29    0     991.8    NA       0.0000   9999     2100  0     0    
2019/03/08  11:00:00  BASE  0.39984  237  0.9702   249  -1.1  77    -4.6  30    0     991.8    NA       0.0000   9999     2200  0     0    
2019/03/08  11:01:00  BASE  0.12936  231  0.9702   249  -1.1  78    -4.5  31    0     991.8    NA       0.0000   9999     2230  0     0    
2019/03/08  11:02:00  BASE  0.0588   229  0.9702   249  -1.1  78    -4.5  32    0     991.8    NA       0.0000   9999     2230  0     0    
2019/03/08  11:03:00  BASE  0.4998   232  1.35828  235  -1.1  78    -4.4  34    0     991.8    NA       0.0000   9999     2170  0     0    
2019/03/08  11:04:00  BASE  0.92316  227  1.35828  235  -1.1  78    -4.4  36    0     991.8    NA       0.0000   9999     2100  0     0    
2019/03/08  11:05:00  BASE  0.6468   225  1.35828  235  -1.1  78    -4.4  38    0     991.8    NA       0.0000   9999     2100  0     0    
2019/03/08  11:06:00  BASE  0.54684  215  1.35828  235  -1.1  78    -4.4  40    0     991.7    NA       0.0000   9999     2130  0     0    
2019/03/08  11:07:00  BASE  0.56448  201  1.35828  235  -1.1  78    -4.5  42    0     991.7    NA       0.0000   9999     2130  0     0    
2019/03/08  11:08:00  BASE  0.51156  186  1.35828  235  -1.1  78    -4.5  45    0     991.7    NA       0.0000   9999     2170  0     0    
2019/03/08  11:09:00  BASE  0.58212  183  1.35828  235  -1.1  78    -4.5  48    0     991.7    NA       0.0000   9999     2170  0     0    
2019/03/08  11:10:00  BASE  0.39396  200  1.35828  215  -1.1  78    -4.5  51    0     991.7    NA       0.0000   9999     2130  0     0    
2019/03/08  11:11:00  BASE  0.72324  218  1.45236  228  -1.1  78    -4.4  53    0     991.7    NA       0.0000   9999     2170  0     0    
2019/03/08  11:12:00  BASE  1.13484  229  1.45236  228  -1.0  78    -4.4  54    0     991.6    NA       0.0000   9999     2170  0     0    
2019/03/08  11:13:00  BASE  1.18188  230  1.54056  229  -1.0  78    -4.3  55    0     991.6    NA       0.0000   9999     2170  0     0    
2019/03/08  11:14:00  BASE  1.32888  229  1.57584  228  -1.0  79    -4.3  56    0     991.6    NA       0.0000   9999     2200  0     0    
2019/03/08  11:15:00  BASE  1.3818   230  1.57584  227  -1.0  79    -4.2  57    0     991.6    NA       0.0000   9999     2200  0     0    
2019/03/08  11:16:00  BASE  1.33476  234  1.66404  225  -1.0  79    -4.2  58    0     991.6    NA       0.0000   9999     2200  0     0    
2019/03/08  11:17:00  BASE  1.21716  231  1.66404  225  -1.0  79    -4.1  58    0     991.6    NA       0.0000   9999     2200  0     0    
2019/03/08  11:18:00  BASE  1.09956  225  1.66404  225  -1.0  79    -4.1  59    0     991.6    NA       0.0000   9999     2230  0     0    
2019/03/08  11:19:00  BASE  0.9996   221  1.66404  225  -1.0  79    -4.2  60    0     991.6    NA       0.0000   9999     2230  0     0    
2019/03/08  11:20:00  BASE  0.89376  213  1.66404  225  -1.1  79    -4.2  60    0     991.6    NA       0.0000   9999     2200  0     0    
2019/03/08  11:21:00  BASE  0.53508  207  1.66404  225  -1.1  79    -4.3  60    0     991.5    NA       0.0000   9999     2170  0     0    
2019/03/08  11:22:00  BASE  0.294    206  1.66404  225  -1.1  78    -4.4  61    0     991.5    NA       0.0000   9999     2200  0     0    
2019/03/08  11:23:00  BASE  0.54684  220  1.66404  225  -1.1  78    -4.3  61    0     991.5    NA       0.0000   9999     2200  0     0    
2019/03/08  11:24:00  BASE  0.50568  228  1.66404  225  -1.1  79    -4.3  60    0     991.5    NA       0.0000   9999     2230  0     0    
2019/03/08  11:25:00  BASE  0.65268  225  1.66404  225  -1.0  79    -4.3  59    0     991.5    NA       0.0000   9999     2200  0     0    
2019/03/08  11:26:00  BASE  1.00548  225  1.24068  228  -1.1  79    -4.3  58    0     991.4    NA       0.0000   9999     2200  0     0    
2019/03/08  11:27:00  BASE  1.05252  233  1.39356  231  -1.1  79    -4.3  58    0     991.4    NA       0.0000   9999     2200  0     0    
2019/03/08  11:28:00  BASE  1.31124  224  1.84632  196  -1.1  78    -4.4  58    0     991.4    NA       0.0000   9999     2200  0     0    
2019/03/08  11:29:00  BASE  1.38768  205  1.84632  196  -1.1  78    -4.4  57    0     991.4    NA       0.0000   9999     2200  0     0    
2019/03/08  11:30:00  BASE  1.15248  186  1.84632  196  -1.1  78    -4.4  55    0     991.3    NA       0.0000   9999     2200  0     0    
2019/03/08  11:31:00  BASE  0.9996   170  1.84632  196  -1.1  78    -4.4  51    0     991.3    NA       0.0000   9999     2200  0     0    
2019/03/08  11:32:00  BASE  0.97608  169  1.84632  196  -1.1  78    -4.3  44    0     991.3    NA       0.0000   9999     2170  0     0    
2019/03/08  11:33:00  BASE  0.98784  169  1.84632  196  -1.0  79    -4.3  36    0     991.2    NA       0.0000   9999     2170  0     0    
2019/03/08  11:34:00  BASE  0.8232   169  1.84632  196  -1.0  79    -4.2  31    0     991.2    NA       0.0000   9999     2130  0     0    
2019/03/08  11:35:00  BASE  0.75852  179  1.84632  196  -1.0  79    -4.2  29    0     991.2    NA       0.0000   9999     2130  0     0    
2019/03/08  11:36:00  BASE  0.75852  157  1.84632  196  -1.0  79    -4.2  27    0     991.2    NA       0.0000   9999     2100  0     0    
2019/03/08  11:37:00  BASE  0.74676  124  1.84632  196  -1.0  79    -4.2  26    0     991.2    NA       0.0000   9999     2100  0     0    
2019/03/08  11:38:00  BASE  0.92904  121  1.42296  208  -1.0  79    -4.2  25    0     991.1    NA       0.0000   9999     2130  0     0    
2019/03/08  11:39:00  BASE  1.02312  121  1.24068  121  -1.0  79    -4.2  24    0     991.0    NA       0.0000   9999     2130  0     0    
2019/03/08  11:40:00  BASE  0.8232   120  1.24068  121  -1.0  79    -4.2  23    0     991.0    NA       0.0000   9999     2130  0     0    
2019/03/08  11:41:00  BASE  0.67032  104  1.24068  121  -1.1  79    -4.2  23    0     991.0    NA       0.0000   9999     2170  0     0    
2019/03/08  11:42:00  BASE  0.83496  82   1.24068  121  -1.1  79    -4.2  23    0     991.0    NA       0.0000   9999     2130  0     0    
2019/03/08  11:43:00  BASE  0.9996   74   1.24068  75   -1.1  80    -4.1  23    0     991.0    NA       0.0000   9999     2260  0     0    
2019/03/08  11:44:00  BASE  1.07016  75   1.39356  79   -1.1  80    -4.0  22    0     991.0    NA       0.0000   9999     2200  0     0    
2019/03/08  11:45:00  BASE  1.16424  79   1.39356  79   -1.1  81    -4.0  23    0     991.0    NA       0.0000   9999     2200  0     0    
2019/03/08  11:46:00  BASE  1.25244  80   1.42296  80   -1.1  81    -3.9  23    0     991.0    NA       0.0000   9999     2170  0     0    
2019/03/08  11:47:00  BASE  1.3524   78   1.48176  75   -1.1  82    -3.8  24    0     991.0    NA       0.0000   9999     2130  0     0    
2019/03/08  11:48:00  BASE  1.3818   78   1.57584  71   -1.1  82    -3.8  24    0     991.0    NA       0.0000   9999     2100  0     0    
2019/03/08  11:49:00  BASE  1.41708  79   1.69344  77   -1.1  82    -3.8  25    0     990.9    NA       0.0000   9999     2130  0     0    
2019/03/08  11:50:00  BASE  1.4112   81   1.69344  77   -1.1  82    -3.7  25    0     990.9    NA       0.0000   9999     2170  0     0    
2019/03/08  11:51:00  BASE  1.4112   85   1.69344  77   -1.1  83    -3.7  26    0     990.9    NA       0.0000   9999     2230  0     0    
2019/03/08  11:52:00  BASE  1.51116  92   1.75224  95   -1.1  83    -3.6  29    0     990.8    NA       0.0000   9999     2200  0     0    
2019/03/08  11:53:00  BASE  1.62876  94   1.84632  96   -1.2  84    -3.6  32    0     990.8    NA       0.0000   9999     2200  0     0    
2019/03/08  11:54:00  BASE  1.5288   97   1.84632  96   -1.2  84    -3.6  36    0     990.8    NA       0.0000   9999     2200  0     0    
2019/03/08  11:55:00  BASE  1.37004  100  1.84632  96   -1.2  84    -3.5  40    0     990.8    NA       0.0000   9999     2230  0     0    
2019/03/08  11:56:00  BASE  1.40532  97   1.84632  96   -1.2  84    -3.5  43    0     990.8    NA       0.0000   9999     2230  0     0    
2019/03/08  11:57:00  BASE  1.27596  89   1.84632  96   -1.2  84    -3.5  44    0     990.8    NA       0.0000   9999     2230  0     0    
2019/03/08  11:58:00  BASE  1.31712  72   1.93452  65   -1.1  84    -3.4  47    0     990.8    NA       0.0000   9999     2230  0     0    
2019/03/08  11:59:00  BASE  1.61112  61   1.93452  65   -1.1  85    -3.4  51    0     990.8    NA       0.0000   9999     2230  0     0    
2019/03/08  12:00:00  BASE  1.84044  58   2.1462   56   -1.1  85    -3.4  54    0     990.8    NA       0.0000   9999     2230  0     0    
2019/03/08  12:01:00  BASE  2.06976  54   2.35788  48   -1.1  84    -3.4  55    0     990.7    NA       0.0000   9999     2230  0     0    
2019/03/08  12:02:00  BASE  2.1756   53   2.35788  58   -1.1  84    -3.5  56    0     990.7    NA       0.0000   9999     2230  0     0    
2019/03/08  12:03:00  BASE  2.10504  56   2.35788  58   -1.1  84    -3.5  57    0     990.7    NA       0.0000   9999     2230  0     0    
2019/03/08  12:04:00  BASE  1.94628  61   2.35788  58   -1.1  83    -3.6  57    0     990.7    NA       0.0000   9999     2200  0     0    
2019/03/08  12:05:00  BASE  1.8816   63   2.35788  58   -1.1  83    -3.6  58    0     990.7    NA       0.0000   9999     2200  0     0    
2019/03/08  12:06:00  BASE  1.8522   58   2.35788  58   -1.1  83    -3.5  60    0     990.7    NA       0.0000   9999     2200  0     0    
2019/03/08  12:07:00  BASE  1.92276  56   2.35788  58   -1.1  84    -3.5  62    0     990.7    NA       0.0000   9999     2200  0     0    
2019/03/08  12:08:00  BASE  2.09328  59   2.35788  58   -1.1  84    -3.4  63    0     990.6    NA       0.0000   9999     2200  0     0    
2019/03/08  12:09:00  BASE  2.21088  60   2.35788  58   -1.1  85    -3.4  64    0     990.5    NA       0.0000   9999     2200  0     0    
2019/03/08  12:10:00  BASE  2.19912  60   2.35788  58   -1.1  85    -3.4  65    0     990.5    NA       0.0000   9999     2170  0     0    
2019/03/08  12:11:00  BASE  1.93452  59   2.35788  58   -1.1  85    -3.4  66    0     990.5    NA       0.0000   9999     2170  0     0    
2019/03/08  12:12:00  BASE  1.74636  56   2.35788  58   -1.1  84    -3.4  67    0     990.5    NA       0.0000   9999     2130  0     0    
2019/03/08  12:13:00  BASE  1.76988  52   2.35788  58   -1.1  84    -3.4  67    0     990.5    NA       0.0000   9999     2200  0     0    
2019/03/08  12:14:00  BASE  1.8228   54   2.35788  58   -1.1  84    -3.4  67    0     990.5    NA       0.0000   9999     2200  0     0    
2019/03/08  12:15:00  BASE  1.74636  61   2.35788  58   -1.1  84    -3.4  67    0     990.5    NA       0.0000   9999     2200  0     0    
2019/03/08  12:16:00  BASE  1.68168  60   2.35788  58   -1.1  84    -3.4  68    0     990.4    NA       0.0000   9999     2200  0     0    
2019/03/08  12:17:00  BASE  1.75224  53   2.48136  52   -1.1  84    -3.4  69    0     990.4    NA       0.0000   9999     2230  0     0    
2019/03/08  12:18:00  BASE  2.04624  53   2.56956  49   -1.1  85    -3.3  70    0     990.4    NA       0.0000   9999     2200  0     0    
2019/03/08  12:19:00  BASE  2.34024  53   2.56956  49   -1.1  85    -3.3  70    0     990.4    NA       0.0000   9999     2130  0     0    
2019/03/08  12:20:00  BASE  2.16972  40   2.56956  49   -1.0  85    -3.3  71    0     990.4    NA       0.0000   9999     2070  0     0    
2019/03/08  12:21:00  BASE  1.66404  28   2.56956  49   -1.0  84    -3.3  71    0     990.4    NA       0.0000   9999     2130  0     0    
2019/03/08  12:22:00  BASE  1.63464  27   2.56956  49   -1.0  84    -3.4  72    0     990.4    NA       0.0000   9999     2100  0     0    
2019/03/08  12:23:00  BASE  2.06976  29   2.56956  28   -1.0  84    -3.5  72    0     990.3    NA       0.0000   9999     2100  0     0    
2019/03/08  12:24:00  BASE  2.06388  27   2.56956  28   -1.0  83    -3.6  73    0     990.3    NA       0.0000   9999     2100  0     0    
2019/03/08  12:25:00  BASE  1.84044  21   2.56956  28   -1.0  82    -3.7  75    0     990.3    NA       0.0000   9999     2130  0     0    
2019/03/08  12:26:00  BASE  1.71108  20   2.56956  28   -1.0  82    -3.8  76    0     990.3    NA       0.0000   9999     2170  0     0    
2019/03/08  12:27:00  BASE  1.8522   27   2.56956  28   -1.0  81    -3.9  77    0     990.3    NA       0.0000   9999     2170  0     0    
2019/03/08  12:28:00  BASE  1.97568  36   2.56956  28   -1.0  81    -3.9  78    0     990.3    NA       0.0000   9999     2200  0     0    
2019/03/08  12:29:00  BASE  2.00508  40   2.56956  28   -1.0  81    -3.9  78    0     990.3    NA       0.0000   9999     2170  0     0    
2019/03/08  12:30:00  BASE  2.07564  45   2.69304  50   -1.0  80    -4.0  79    0     990.2    NA       0.0000   9999     2200  0     0    
2019/03/08  12:31:00  BASE  1.81692  50   2.69304  50   -1.0  80    -4.0  80    0     990.2    NA       0.0000   9999     2230  0     0    
2019/03/08  12:32:00  BASE  1.71108  52   2.69304  50   -1.1  80    -4.0  81    0     990.2    NA       0.0000   9999     2230  0     0    
2019/03/08  12:33:00  BASE  1.39944  65   2.69304  50   -1.1  80    -4.1  82    0     990.1    NA       0.0000   9999     2230  0     0    
2019/03/08  12:34:00  BASE  1.1172   73   2.69304  50   -1.1  80    -4.2  82    0     990.1    NA       0.0000   9999     2260  0     0    
2019/03/08  12:35:00  BASE  1.52292  72   2.69304  50   -1.1  80    -4.2  81    0     990.1    NA       0.0000   9999     2170  0     0    
2019/03/08  12:36:01  BASE  2.04036  78   2.69304  50   -1.1  80    -4.1  81    0     989.9    NA       0.0000   9999     2130  0     0    
2019/03/08  12:37:01  BASE  2.02272  81   2.69304  50   -1.1  80    -4.1  82    0     989.9    NA       0.0000   9999     2070  0     0    
2019/03/08  12:38:01  BASE  1.99332  70   2.69304  50   -1.0  81    -3.9  83    0     989.9    NA       0.0000   9999     2130  0     0    
2019/03/08  12:39:01  BASE  2.2638   61   2.69304  50   -1.0  81    -3.8  83    0     989.8    NA       0.0000   9999     2130  0     0    
2019/03/08  12:40:01  BASE  2.29908  67   2.56956  56   -1.0  81    -3.8  84    0     989.8    NA       0.0000   9999     2170  0     0    
2019/03/08  12:41:01  BASE  2.28732  71   2.56956  74   -1.0  81    -3.8  84    0     989.8    NA       0.0000   9999     2170  0     0    
2019/03/08  12:42:01  BASE  2.1168   78   2.56956  74   -1.0  81    -3.8  85    0     989.8    NA       0.0000   9999     2200  0     0    
2019/03/08  12:43:01  BASE  2.12856  90   2.56956  74   -1.0  81    -3.9  87    0     989.8    NA       0.0000   9999     2230  0     0    
2019/03/08  12:44:01  BASE  2.205    99   2.56956  74   -1.0  80    -4.0  89    0     989.7    NA       0.0000   9999     2300  0     0    
2019/03/08  12:45:01  BASE  2.13444  103  2.69304  99   -1.1  80    -4.0  90    0     989.7    NA       0.0000   9999     2230  0     0    
2019/03/08  12:46:01  BASE  2.21676  100  2.90472  93   -1.1  80    -4.0  90    0     989.7    NA       0.0000   9999     2260  0     0    
2019/03/08  12:47:01  BASE  2.25792  91   2.90472  93   -1.1  81    -4.0  89    0     989.7    NA       0.0000   9999     2230  0     0    
2019/03/08  12:48:01  BASE  2.22852  86   2.90472  93   -1.1  81    -3.9  88    0     989.7    NA       0.0000   9999     2230  0     0    
2019/03/08  12:49:01  BASE  2.16972  89   2.90472  93   -1.1  81    -3.9  88    0     989.7    NA       0.0000   9999     2230  0     0    
2019/03/08  12:50:00  BASE  2.19324  92   2.90472  93   -1.1  81    -3.9  88    0     989.7    NA       0.0000   9999     2260  0     0    
2019/03/08  12:51:00  BASE  2.15796  91   2.90472  93   -1.1  81    -3.8  89    0     989.6    NA       0.0000   9999     2230  0     0    
2019/03/08  12:52:00  BASE  2.205    94   2.90472  93   -1.1  81    -3.9  90    0     989.6    NA       0.0000   9999     2200  0     0    
2019/03/08  12:53:00  BASE  2.43432  98   2.90472  93   -1.1  81    -3.9  92    0     989.6    NA       0.0000   9999     2200  0     0    
2019/03/08  12:54:00  BASE  2.45196  99   2.90472  93   -1.1  81    -3.9  93    0     989.6    NA       0.0000   9999     2230  0     0    
2019/03/08  12:55:00  BASE  2.53428  97   2.90472  93   -1.1  82    -3.9  94    0     989.6    NA       0.0000   9999     2230  0     0    
2019/03/08  12:56:00  BASE  2.45784  94   2.81064  96   -1.1  82    -3.8  94    0     989.5    NA       0.0000   9999     2230  0     0    
2019/03/08  12:57:00  BASE  2.22264  95   2.81064  96   -1.1  83    -3.7  94    0     989.5    NA       0.0000   9999     2200  0     0    
2019/03/08  12:58:00  BASE  2.31672  99   2.81064  96   -1.1  83    -3.6  95    0     989.5    NA       0.0000   9999     2200  0     0    
2019/03/08  12:59:00  BASE  2.66364  95   3.2046   88   -1.1  83    -3.6  95    0     989.5    NA       0.0000   9999     2170  0     0    
2019/03/08  13:00:00  BASE  2.8224   88   3.56916  90   -1.1  83    -3.6  96    0     989.5    NA       0.0000   9999     2200  0     0    
2019/03/08  13:01:00  BASE  3.0576   87   3.83964  87   -1.1  83    -3.6  96    0     989.5    NA       0.0000   9999     2200  0     0    
2019/03/08  13:02:00  BASE  3.15168  83   3.83964  87   -1.1  83    -3.6  97    0     989.5    NA       0.0000   9999     2170  0     0    
2019/03/08  13:03:00  BASE  3.10464  76   3.83964  87   -1.1  83    -3.7  98    0     989.4    NA       0.0000   9999     2170  0     0    
2019/03/08  13:04:00  BASE  2.95764  74   3.83964  87   -1.1  83    -3.7  99    0     989.4    NA       0.0000   9999     2200  0     0    
2019/03/08  13:05:00  BASE  2.69892  75   3.83964  87   -1.1  82    -3.8  102   0     989.4    NA       0.0000   9999     2130  0     0    
2019/03/08  13:06:00  BASE  2.76948  78   3.83964  87   -1.1  82    -3.8  104   0     989.3    NA       0.0000   9999     2170  0     0    
2019/03/08  13:07:00  BASE  2.54604  81   3.83964  87   -1.1  81    -3.9  106   0     989.2    NA       0.0000   9999     2170  0     0    
2019/03/08  13:08:00  BASE  2.42256  85   3.83964  87   -1.1  81    -4.0  108   0     989.2    NA       0.0000   9999     2200  0     0    
2019/03/08  13:09:00  BASE  2.76948  87   3.83964  87   -1.1  80    -4.0  110   0     989.2    NA       0.0000   9999     2230  0     0    
2019/03/08  13:10:00  BASE  2.77536  85   3.83964  87   -1.1  80    -4.1  112   0     989.1    NA       0.0000   9999     2230  0     0    
2019/03/08  13:11:00  BASE  2.41668  86   3.41628  75   -1.1  80    -4.1  115   0     989.1    NA       0.0000   9999     2230  0     0    
2019/03/08  13:12:00  BASE  2.6166   88   3.69264  92   -1.1  80    -4.1  117   0     989.1    NA       0.0000   9999     2230  0     0    
2019/03/08  13:13:00  BASE  3.21636  95   3.69264  92   -1.1  80    -4.1  117   0     989.1    NA       0.0000   9999     2230  0     0    
2019/03/08  13:14:00  BASE  3.4986   100  3.69264  99   -1.1  81    -4.1  117   0     989.1    NA       0.0000   9999     2230  0     0    
2019/03/08  13:15:00  BASE  3.40452  101  3.69264  99   -1.2  81    -4.0  116   0     989.0    NA       0.0000   9999     2230  0     0    
2019/03/08  13:16:00  BASE  3.18696  101  3.69264  99   -1.2  81    -3.9  116   0     989.0    NA       0.0000   9999     2230  0     0    
2019/03/08  13:17:00  BASE  3.11052  104  3.69264  99   -1.2  82    -3.9  116   0     989.0    NA       0.0000   9999     2230  0     0    
2019/03/08  13:18:00  BASE  3.18108  108  3.90432  104  -1.2  82    -3.8  116   0     989.0    NA       0.0000   9999     2170  0     0    
2019/03/08  13:19:00  BASE  3.35748  106  3.90432  100  -1.2  83    -3.7  117   0     989.0    NA       0.0000   9999     2230  0     0    
2019/03/08  13:20:00  BASE  3.40452  105  3.90432  100  -1.2  83    -3.7  118   0     988.9    NA       0.0000   9999     2200  0     0    
2019/03/08  13:21:00  BASE  3.55152  105  4.29828  106  -1.2  84    -3.6  119   0     988.9    NA       0.0000   9999     2200  0     0    
2019/03/08  13:22:00  BASE  3.80436  105  4.29828  106  -1.2  84    -3.6  120   0     988.9    NA       0.0000   9999     2170  16270 18870
2019/03/08  13:23:00  BASE  3.75144  104  4.29828  106  -1.2  84    -3.5  121   0     988.9    NA       0.0000   9999     2200  0     0    
2019/03/08  13:24:00  BASE  3.62208  100  4.29828  106  -1.2  84    -3.5  121   0     988.9    NA       0.0000   9999     2170  0     0    
2019/03/08  13:25:00  BASE  3.45156  98   4.29828  106  -1.2  84    -3.5  121   0     988.8    NA       0.0000   9999     2200  0     0    
2019/03/08  13:26:00  BASE  3.18108  99   4.29828  106  -1.2  84    -3.5  122   0     988.8    NA       0.0000   9999     2230  0     0    
2019/03/08  13:27:00  BASE  3.0282   101  4.29828  106  -1.2  84    -3.5  122   0     988.7    NA       0.0000   9999     2260  0     0    
2019/03/08  13:28:00  BASE  3.087    100  4.29828  106  -1.2  84    -3.5  122   0     988.7    NA       0.0000   9999     2260  0     0    
2019/03/08  13:29:00  BASE  2.96352  95   4.29828  106  -1.2  84    -3.5  123   0     988.7    NA       0.0000   9999     2230  0     0    
2019/03/08  13:30:00  BASE  2.80476  93   4.29828  106  -1.2  84    -3.5  124   0     988.7    NA       0.0000   9999     2200  0     0    
2019/03/08  13:31:00  BASE  2.87532  97   4.2042   106  -1.2  84    -3.5  126   0     988.7    NA       0.0000   9999     2230  20180 20870
2019/03/08  13:32:00  BASE  2.89296  97   4.1748   110  -1.2  85    -3.4  127   0     988.6    NA       0.0000   9999     2230  0     0    
2019/03/08  13:33:00  BASE  3.39864  92   4.32768  88   -1.1  85    -3.4  128   0     988.5    NA       0.0000   9999     2230  0     0    
2019/03/08  13:34:00  BASE  3.9396   88   4.32768  88   -1.1  85    -3.3  128   0     988.5    NA       0.0000   9999     2200  0     0    
2019/03/08  13:35:00  BASE  3.81612  89   4.32768  88   -1.1  85    -3.4  128   0     988.5    NA       0.0000   9999     2170  0     0    
2019/03/08  13:36:00  BASE  3.4986   90   4.32768  88   -1.1  85    -3.4  128   0     988.5    NA       0.0000   9999     2100  0     0    
2019/03/08  13:37:00  BASE  3.31632  89   4.32768  88   -1.1  84    -3.4  129   0     988.5    NA       0.0000   9999     2130  0     0    
2019/03/08  13:38:00  BASE  3.30456  89   4.32768  88   -1.1  84    -3.5  129   0     988.5    NA       0.0000   9999     2170  24020 0    
2019/03/08  13:39:00  BASE  3.63384  92   4.32768  90   -1.1  84    -3.5  128   0     988.5    NA       0.0000   9999     2170  0     0    
2019/03/08  13:40:00  BASE  3.63972  94   4.32768  90   -1.1  84    -3.6  127   0     988.4    NA       0.0000   9999     2170  0     0    
2019/03/08  13:41:00  BASE  3.2928   95   4.32768  90   -1.1  84    -3.6  127   0     988.4    NA       0.0000   9999     2170  0     0    
2019/03/08  13:42:00  BASE  3.06936  93   4.32768  90   -1.2  84    -3.6  127   0     988.4    NA       0.0000   9999     2170  0     0    
2019/03/08  13:43:00  BASE  2.7342   91   4.32768  90   -1.2  84    -3.5  128   0     988.4    NA       0.0000   9999     2170  0     0    
2019/03/08  13:44:00  BASE  2.6166   85   4.32768  90   -1.1  84    -3.5  128   0     988.4    NA       0.0000   9999     2170  0     0    
2019/03/08  13:45:00  BASE  2.76948  76   4.32768  90   -1.1  85    -3.4  129   0     988.3    NA       0.0000   9999     2170  0     0    
2019/03/08  13:46:00  BASE  3.1752   75   4.32768  90   -1.1  85    -3.3  128   0     988.3    NA       0.0000   9999     2170  0     0    
2019/03/08  13:47:00  BASE  3.50448  79   4.32768  90   -1.1  84    -3.4  128   0     988.3    NA       0.0000   9999     2170  0     0    
2019/03/08  13:48:00  BASE  3.30456  82   4.32768  90   -1.1  84    -3.4  128   0     988.3    NA       0.0000   9999     2170  0     0    
2019/03/08  13:49:00  BASE  3.27516  82   4.08072  79   -1.1  84    -3.5  128   0     988.3    NA       0.0000   9999     2100  0     0    
2019/03/08  13:50:00  BASE  3.48096  81   4.08072  79   -1.1  83    -3.6  127   0     988.3    NA       0.0000   9999     2130  0     0    
2019/03/08  13:51:00  BASE  3.54564  79   4.08072  79   -1.1  83    -3.6  126   0     988.3    NA       0.0000   9999     2130  0     0    
2019/03/08  13:52:00  BASE  3.35748  79   4.08072  79   -1.1  83    -3.6  126   0     988.3    NA       0.0000   9999     2130  22180 0    
2019/03/08  13:53:01  BASE  3.31044  83   4.08072  79   -1.1  83    -3.6  128   0     988.2    NA       0.0000   9999     2130  0     0    
2019/03/08  13:54:01  BASE  3.28104  91   4.08072  79   -1.1  83    -3.7  131   0     988.2    NA       0.0000   9999     2100  0     0    
2019/03/08  13:55:01  BASE  3.13404  97   4.1454   84   -1.1  83    -3.7  134   0     988.2    NA       0.0000   9999     2100  0     0    
2019/03/08  13:56:01  BASE  3.51036  100  4.1454   96   -1.1  83    -3.7  135   0     988.1    NA       0.0000   9999     2130  0     0    
2019/03/08  13:57:01  BASE  3.86904  97   4.93332  97   -1.1  83    -3.7  135   0     988.0    NA       0.0000   9999     2130  0     0    
2019/03/08  13:58:00  BASE  4.22772  95   5.145    96   -1.2  83    -3.7  134   0     988.0    NA       0.0000   9999     2100  0     0    
2019/03/08  13:59:00  BASE  4.116    96   5.145    96   -1.2  83    -3.7  132   0     988.0    NA       0.0000   9999     2170  0     0    
2019/03/08  14:00:00  BASE  3.381    97   5.145    96   -1.2  83    -3.7  131   0     988.0    NA       0.0000   9999     2170  0     0    
2019/03/08  14:01:00  BASE  3.47508  95   5.145    96   -1.2  83    -3.7  131   0     988.0    NA       0.0000   9999     2170  0     0    
2019/03/08  14:02:00  BASE  3.822    96   5.145    96   -1.2  84    -3.7  131   0     988.0    NA       0.0000   9999     2170  0     0    
2019/03/08  14:03:00  BASE  3.61032  100  5.145    96   -1.2  84    -3.6  132   0     988.0    NA       0.0000   9999     2170  20570 0    
2019/03/08  14:04:00  BASE  3.82788  91   5.145    96   -1.2  84    -3.6  132   0     988.0    NA       0.0000   9999     2170  0     0    
2019/03/08  14:05:00  BASE  4.65108  82   5.65656  84   -1.2  84    -3.5  132   0     988.0    NA       0.0000   9999     2130  0     0    
2019/03/08  14:06:00  BASE  4.95684  83   5.65656  84   -1.2  84    -3.6  131   0     988.0    NA       0.0000   9999     2130  0     0    
2019/03/08  14:07:00  BASE  4.263    92   5.65656  84   -1.3  84    -3.7  131   0     988.0    NA       0.0000   9999     2130  0     0    
2019/03/08  14:08:00  BASE  4.21596  88   5.80944  83   -1.3  84    -3.7  130   0     988.0    NA       0.0000   9999     2100  0     0    
2019/03/08  14:09:00  BASE  5.02152  80   5.83884  79   -1.3  84    -3.7  131   0     988.0    NA       0.0000   9999     2130  0     0    
2019/03/08  14:10:00  BASE  5.42136  82   5.92704  79   -1.4  84    -3.8  132   0     988.0    NA       0.0000   9999     2130  0     0    
2019/03/08  14:11:00  BASE  5.36844  84   5.92704  79   -1.4  84    -3.8  131   0     988.0    NA       0.0000   9999     2130  0     0    
2019/03/08  14:12:00  BASE  4.93332  85   5.92704  79   -1.4  84    -3.8  132   0     988.0    NA       0.0000   9999     2130  22050 0    
2019/03/08  14:13:00  BASE  4.72164  87   5.92704  79   -1.4  83    -3.9  133   0     988.0    NA       0.0000   9999     2100  0     0    
2019/03/08  14:14:00  BASE  4.59228  88   5.92704  79   -1.4  83    -3.9  134   0     988.0    NA       0.0000   9999     2130  0     0    
2019/03/08  14:15:00  BASE  4.36296  91   5.92704  79   -1.4  83    -3.9  134   0     988.0    NA       0.0000   9999     2130  0     0    
2019/03/08  14:16:00  BASE  4.2042   98   5.92704  79   -1.4  83    -3.8  135   0     987.9    NA       0.0000   9999     2070  0     0    
2019/03/08  14:17:00  BASE  4.21596  101  5.92704  79   -1.4  84    -3.7  136   0     987.9    NA       0.0000   9999     2070  0     0    
2019/03/08  14:18:00  BASE  4.39236  102  5.92704  79   -1.4  84    -3.7  138   0     987.9    NA       0.0000   9999     2070  0     0    
2019/03/08  14:19:00  BASE  4.30416  102  5.92704  79   -1.4  85    -3.6  137   0     987.9    NA       0.0000   9999     2130  0     0    
2019/03/08  14:20:00  BASE  3.89844  100  5.65656  83   -1.4  85    -3.6  136   0     987.9    NA       0.0000   9999     2100  0     0    
2019/03/08  14:21:00  BASE  3.675    100  5.3214   82   -1.4  86    -3.5  134   0     987.9    NA       0.0000   9999     2130  0     0    
2019/03/08  14:22:00  BASE  3.60444  102  5.3214   82   -1.4  86    -3.4  133   0     987.9    NA       0.0000   9999     2130  0     0    
2019/03/08  14:23:00  BASE  3.78672  102  4.96272  93   -1.4  86    -3.4  133   0     987.9    NA       0.0000   9999     2100  0     0    
2019/03/08  14:24:00  BASE  3.74556  100  4.93332  108  -1.4  87    -3.4  134   0     987.9    NA       0.0000   9999     2170  21360 0    
2019/03/08  14:25:00  BASE  3.47508  95   4.93332  108  -1.5  87    -3.4  134   0     987.8    NA       0.0000   9999     2200  21980 0    
2019/03/08  14:26:00  BASE  3.48684  95   4.93332  108  -1.5  87    -3.3  135   0     987.9    NA       0.0000   9999     2200  0     0    
2019/03/08  14:27:00  BASE  3.25752  96   4.93332  108  -1.4  87    -3.3  137   0     987.8    NA       0.0000   9999     2200  0     0    
2019/03/08  14:28:00  BASE  2.98116  93   4.56876  103  -1.4  87    -3.2  137   0     987.9    NA       0.0000   9999     2200  0     0    
2019/03/08  14:29:00  BASE  2.56956  91   4.41588  99   -1.4  87    -3.2  137   0     987.8    NA       0.0000   9999     2300  0     0    
2019/03/08  14:30:00  BASE  2.31672  90   4.41588  99   -1.3  88    -3.1  137   0     987.8    NA       0.0000   9999     2300  0     0    
2019/03/08  14:31:00  BASE  2.7636   88   4.41588  99   -1.3  88    -3.1  137   0     987.8    NA       0.0000   9999     2260  0     0    
2019/03/08  14:32:00  BASE  2.79888  89   4.41588  99   -1.2  88    -3.0  137   0     987.8    NA       0.0000   9999     2230  0     0    
2019/03/08  14:33:00  BASE  2.54016  85   4.2042   93   -1.2  87    -3.1  136   0     987.8    NA       0.0000   9999     2200  0     0    
2019/03/08  14:34:00  BASE  2.1756   77   4.2042   93   -1.2  87    -3.1  136   0     987.8    NA       0.0000   9999     2200  0     0    
2019/03/08  14:35:00  BASE  1.617    68   4.1454   94   -1.1  86    -3.1  136   0     987.8    NA       0.0000   9999     2170  0     0    
2019/03/08  14:36:00  BASE  1.87572  57   3.81024  94   -1.0  86    -3.1  135   0     987.7    NA       0.0000   9999     2170  0     0    
2019/03/08  14:37:00  BASE  2.499    54   3.81024  94   -1.0  86    -3.0  134   0     987.7    NA       0.0000   9999     2130  0     0    
2019/03/08  14:38:00  BASE  2.793    53   3.81024  94   -0.9  86    -3.0  135   0     987.7    NA       0.0000   9999     2170  0     0    
2019/03/08  14:39:00  BASE  2.66952  51   3.81024  94   -0.8  86    -2.9  137   0     987.7    NA       0.0000   9999     2130  0     0    
2019/03/08  14:40:00  BASE  2.6754   46   3.81024  94   -0.8  85    -3.0  139   0     987.6    NA       0.0000   9999     2200  0     0    
2019/03/08  14:41:00  BASE  3.0576   38   3.75144  28   -0.8  85    -3.0  141   0     987.6    NA       0.0000   9999     2130  0     0    
2019/03/08  14:42:00  BASE  3.36924  22   3.78084  16   -0.8  84    -3.1  141   0     987.6    NA       0.0000   9999     2200  0     0    
2019/03/08  14:43:00  BASE  3.61032  13   4.1454   9    -0.8  84    -3.1  142   0     987.6    NA       0.0000   9999     2230  0     0    
2019/03/08  14:44:00  BASE  3.71616  16   4.1454   9    -0.8  84    -3.1  143   0     987.6    NA       0.0000   9999     2070  0     0    
2019/03/08  14:45:00  BASE  3.92784  17   4.83924  20   -0.8  85    -3.0  144   0     987.5    NA       0.0000   9999     2100  0     0    
2019/03/08  14:46:00  BASE  4.10424  19   4.83924  20   -0.8  85    -3.0  145   0     987.4    NA       0.0000   9999     2070  0     0    
2019/03/08  14:47:00  BASE  4.3512   23   5.2038   25   -0.8  85    -2.9  147   0     987.4    NA       0.0000   9999     2130  0     0    
2019/03/08  14:48:00  BASE  4.66284  24   5.2038   25   -0.8  85    -2.9  150   0     987.4    NA       0.0000   9999     2170  0     0    
2019/03/08  14:49:00  BASE  4.80984  23   5.2038   21   -0.8  85    -2.9  152   0     987.3    NA       0.0000   9999     2170  0     0    
2019/03/08  14:50:00  BASE  5.1156   23   5.65656  19   -0.8  85    -3.0  153   0     987.3    NA       0.0000   9999     2130  0     0    
2019/03/08  14:51:00  BASE  5.09796  20   5.95644  17   -0.8  85    -3.1  154   0     987.3    NA       0.0000   9999     2170  0     0    
2019/03/08  14:52:00  BASE  4.59228  19   5.95644  17   -0.8  85    -3.1  154   0     987.3    NA       0.0000   9999     2200  0     0    
2019/03/08  14:53:00  BASE  4.34532  21   5.95644  17   -0.8  85    -3.1  153   0     987.2    NA       0.0000   9999     2100  0     0    
2019/03/08  14:54:00  BASE  3.85728  20   5.95644  17   -0.8  85    -3.1  153   0     987.2    NA       0.0000   9999     2070  0     0    
2019/03/08  14:55:00  BASE  3.234    20   5.95644  17   -0.8  85    -3.0  152   0     987.2    NA       0.0000   9999     2070  0     0    
2019/03/08  14:56:00  BASE  3.58092  23   5.95644  17   -0.7  85    -3.0  151   0     987.2    NA       0.0000   9999     2100  0     0    
2019/03/08  14:57:00  BASE  4.06896  24   5.95644  17   -0.8  85    -3.0  151   0     987.2    NA       0.0000   9999     2130  0     0    
2019/03/08  14:58:00  BASE  4.22184  22   5.95644  17   -0.8  85    -3.0  150   0     987.2    NA       0.0000   9999     2070  0     0    
2019/03/08  14:59:00  BASE  4.12188  16   5.95644  17   -0.8  85    -3.0  149   0     987.1    NA       0.0000   9999     2100  0     0    
2019/03/08  15:00:00  BASE  3.69264  17   5.95644  17   -0.8  84    -3.1  149   0     987.1    NA       0.0000   9999     2130  0     0    
2019/03/08  15:01:00  BASE  3.3222   23   4.75104  24   -0.8  84    -3.1  151   0     987.1    NA       0.0000   9999     2200  0     0    
2019/03/08  15:02:00  BASE  3.46332  23   4.75104  24   -0.8  84    -3.1  153   0     987.0    NA       0.0000   9999     2130  0     0    
2019/03/08  15:03:00  BASE  3.54564  24   4.68636  12   -0.7  84    -3.1  157   0     987.0    NA       0.0000   9999     2130  0     0    
2019/03/08  15:04:00  BASE  3.36336  25   4.68636  12   -0.7  84    -3.1  159   0     987.0    NA       0.0000   9999     2130  0     0    
2019/03/08  15:05:00  BASE  3.2046   28   4.68636  12   -0.7  84    -3.1  158   0     987.0    NA       0.0000   9999     2260  0     0    
2019/03/08  15:06:00  BASE  3.06936  37   4.68636  12   -0.7  83    -3.1  156   0     987.0    NA       0.0000   9999     2260  0     0    
2019/03/08  15:07:00  BASE  2.9106   40   4.68636  12   -0.7  83    -3.2  154   0     986.9    NA       0.0000   9999     2230  0     0    
2019/03/08  15:08:00  BASE  2.77536  41   4.68636  12   -0.7  82    -3.3  151   0     986.8    NA       0.0000   9999     2200  0     0    
2019/03/08  15:09:00  BASE  2.56956  45   4.116    24   -0.7  82    -3.4  147   0     986.8    NA       0.0000   9999     2400  0     0    
2019/03/08  15:10:00  BASE  2.37552  39   4.116    24   -0.8  81    -3.6  144   0     986.8    NA       0.0000   9999     2400  0     0    
2019/03/08  15:11:00  BASE  2.1756   34   4.116    24   -0.8  81    -3.7  141   0     986.8    NA       0.0000   9999     2330  0     0    
2019/03/08  15:12:00  BASE  2.1462   35   3.78084  26   -0.8  80    -3.8  140   0     986.7    NA       0.0000   9999     2330  0     0    
2019/03/08  15:13:00  BASE  2.09916  33   3.78084  26   -0.8  80    -3.8  141   0     986.7    NA       0.0000   9999     2330  0     0    
2019/03/08  15:14:00  BASE  1.86396  35   3.48096  43   -0.7  80    -3.7  142   0     986.7    NA       0.0000   9999     2300  0     0    
2019/03/08  15:15:00  BASE  2.00508  42   3.2046   42   -0.7  80    -3.7  144   0     986.7    NA       0.0000   9999     2300  0     0    
2019/03/08  15:16:00  BASE  2.1462   50   3.2046   42   -0.6  80    -3.7  147   0     986.7    NA       0.0000   9999     2330  0     0    
2019/03/08  15:17:00  BASE  2.15208  53   3.1164   41   -0.6  80    -3.6  151   0     986.7    NA       0.0000   9999     2300  0     0    
2019/03/08  15:18:00  BASE  2.33436  52   2.84592  37   -0.6  80    -3.5  153   0     986.6    NA       0.0000   9999     2260  0     0    
2019/03/08  15:19:00  BASE  2.59308  49   3.087    49   -0.6  81    -3.5  155   0     986.6    NA       0.0000   9999     2260  0     0    
2019/03/08  15:20:00  BASE  2.33436  43   3.087    49   -0.6  81    -3.5  158   0     986.6    NA       0.0000   9999     2300  0     0    
2019/03/08  15:21:00  BASE  2.31084  44   3.087    49   -0.6  81    -3.5  160   0     986.6    NA       0.0000   9999     2300  0     0    
2019/03/08  15:22:00  BASE  3.12228  46   4.2042   48   -0.6  80    -3.5  162   0     986.6    NA       0.0000   9999     2300  0     0    
2019/03/08  15:23:00  BASE  3.59268  46   4.53936  48   -0.6  80    -3.6  166   0     986.6    NA       0.0000   9999     2260  0     0    
2019/03/08  15:24:00  BASE  3.75732  43   4.53936  48   -0.6  80    -3.6  169   0     986.5    NA       0.0000   9999     2260  0     0    
2019/03/08  15:25:00  BASE  4.00428  29   4.86864  10   -0.6  80    -3.6  169   0     986.5    NA       0.0000   9999     2300  0     0    
2019/03/08  15:26:00  BASE  4.13952  21   4.86864  10   -0.6  80    -3.6  168   0     986.4    NA       0.0000   9999     2300  0     0    
2019/03/08  15:27:00  BASE  4.12188  23   4.86864  10   -0.6  81    -3.5  167   0     986.4    NA       0.0000   9999     2300  0     0    
2019/03/08  15:28:00  BASE  4.34532  21   5.1744   9    -0.6  81    -3.4  167   0     986.4    NA       0.0000   9999     2300  0     0    
2019/03/08  15:29:00  BASE  4.8216   19   5.41548  17   -0.6  81    -3.4  167   0     986.4    NA       0.0000   9999     2200  0     0    
2019/03/08  15:30:00  BASE  4.75104  20   5.41548  17   -0.6  82    -3.4  167   0     986.4    NA       0.0000   9999     2230  0     0    
2019/03/08  15:31:00  BASE  4.21008  23   5.41548  17   -0.6  82    -3.4  169   0     986.4    NA       0.0000   9999     2230  0     0    
2019/03/08  15:32:00  BASE  3.7926   24   5.41548  17   -0.6  81    -3.4  172   0     986.3    NA       0.0000   9999     2300  0     0    
2019/03/08  15:33:00  BASE  3.59268  23   5.41548  17   -0.6  81    -3.5  175   0     986.3    NA       0.0000   9999     2200  0     0    
2019/03/08  15:34:00  BASE  3.2928   25   5.41548  17   -0.6  80    -3.6  178   0     986.3    NA       0.0000   9999     2200  0     0    
2019/03/08  15:35:00  BASE  2.99292  27   5.41548  17   -0.6  80    -3.6  180   0     986.3    NA       0.0000   9999     2260  0     0    
2019/03/08  15:36:00  BASE  2.75772  31   5.41548  17   -0.6  80    -3.7  183   0     986.2    NA       0.0000   9999     2260  0     0    
2019/03/08  15:37:00  BASE  2.7342   40   5.41548  17   -0.6  79    -3.7  185   0     986.2    NA       0.0000   9999     2170  0     0    
2019/03/08  15:38:00  BASE  2.71068  43   5.41548  17   -0.5  79    -3.7  188   0     986.2    NA       0.0000   9999     2130  21200 0    
2019/03/08  15:39:00  BASE  2.60484  41   5.3214   27   -0.5  80    -3.6  191   0     986.2    NA       0.0000   9999     2200  0     0    
2019/03/08  15:40:00  BASE  2.84004  35   4.59816  23   -0.5  80    -3.6  194   0     986.1    NA       0.0000   9999     2200  0     0    
2019/03/08  15:41:00  BASE  2.84592  34   4.08072  23   -0.5  80    -3.6  200   0     986.0    NA       0.0000   9999     2230  0     0    
2019/03/08  15:42:00  BASE  2.55192  38   3.72204  21   -0.5  79    -3.7  201   0     986.0    NA       0.0000   9999     2230  0     0    
2019/03/08  15:43:00  BASE  2.1462   40   3.48096  21   -0.5  79    -3.7  199   0     986.0    NA       0.0000   9999     2230  0     0    
2019/03/08  15:44:00  BASE  1.92864  50   3.41628  34   -0.5  79    -3.7  194   0     986.0    NA       0.0000   9999     2230  22610 0    
2019/03/08  15:45:00  BASE  2.54604  56   3.41628  34   -0.5  79    -3.7  188   0     986.0    NA       0.0000   9999     2230  0     0    
2019/03/08  15:46:00  BASE  3.31632  51   4.2042   44   -0.4  79    -3.7  182   0     986.0    NA       0.0000   9999     2170  0     0    
2019/03/08  15:47:00  BASE  3.58092  46   4.2042   44   -0.4  79    -3.6  174   0     986.0    NA       0.0000   9999     2230  0     0    
2019/03/08  15:48:00  BASE  3.2046   42   4.2042   44   -0.4  79    -3.6  169   0     986.0    NA       0.0000   9999     2200  0     0    
2019/03/08  15:49:00  BASE  3.02232  38   4.2042   44   -0.4  79    -3.5  168   0     986.0    NA       0.0000   9999     2200  0     0    
2019/03/08  15:50:00  BASE  3.43392  36   4.2042   44   -0.4  79    -3.6  166   0     986.0    NA       0.0000   9999     2230  0     0    
2019/03/08  15:51:00  BASE  3.23988  37   4.2042   44   -0.4  79    -3.6  163   0     986.0    NA       0.0000   9999     2200  0     0    
2019/03/08  15:52:00  BASE  2.66364  39   4.2042   44   -0.4  79    -3.6  160   0     986.0    NA       0.0000   9999     2200  0     0    
2019/03/08  15:53:00  BASE  2.3814   45   4.2042   44   -0.4  80    -3.5  158   0     986.0    NA       0.0000   9999     2230  0     0    
2019/03/08  15:54:00  BASE  2.65776  51   4.2042   44   -0.5  80    -3.5  158   0     986.0    NA       0.0000   9999     2200  0     0    
2019/03/08  15:55:00  BASE  3.56328  49   4.65696  39   -0.4  80    -3.5  162   0     985.9    NA       0.0000   9999     2230  0     0    
2019/03/08  15:56:00  BASE  3.92196  42   4.65696  39   -0.4  80    -3.5  163   0     985.9    NA       0.0000   9999     2230  0     0    
2019/03/08  15:57:00  BASE  3.87492  37   4.68636  30   -0.4  80    -3.5  161   0     985.8    NA       0.0000   9999     2170  0     0    
2019/03/08  15:58:00  BASE  4.557    28   6.07992  29   -0.4  80    -3.5  157   0     985.8    NA       0.0000   9999     2130  0     0    
2019/03/08  15:59:00  BASE  4.73928  25   6.07992  29   -0.4  80    -3.5  154   0     985.8    NA       0.0000   9999     2130  0     0    
2019/03/08  16:00:00  BASE  4.557    28   6.07992  29   -0.5  80    -3.6  154   0     985.8    NA       0.0000   9999     2170  22640 0    
2019/03/08  16:01:00  BASE  4.12188  26   6.07992  29   -0.5  80    -3.6  156   0     985.8    NA       0.0000   9999     2130  0     0    
2019/03/08  16:02:00  BASE  4.0278   31   6.07992  29   -0.5  79    -3.6  160   0     985.8    NA       0.0000   9999     2230  0     0    
2019/03/08  16:03:00  BASE  4.63344  37   6.16812  39   -0.5  79    -3.6  164   0     985.7    NA       0.0000   9999     2230  0     0    
2019/03/08  16:04:00  BASE  4.75692  36   6.16812  39   -0.5  79    -3.6  168   0     985.7    NA       0.0000   9999     2230  0     0    
2019/03/08  16:05:00  BASE  4.63932  42   6.16812  39   -0.5  79    -3.6  173   0     985.7    NA       0.0000   9999     2130  0     0    
2019/03/08  16:06:00  BASE  4.95684  35   6.47388  31   -0.4  79    -3.6  177   0     985.7    NA       0.0000   9999     2130  0     0    
2019/03/08  16:07:00  BASE  5.01564  28   6.47388  31   -0.4  79    -3.7  180   0     985.7    NA       0.0000   9999     2100  0     0    
2019/03/08  16:08:00  BASE  4.03956  33   6.47388  31   -0.5  79    -3.7  183   0     985.7    NA       0.0000   9999     2170  20440 0    
2019/03/08  16:09:00  BASE  3.55152  37   6.47388  31   -0.5  79    -3.7  189   0     985.6    NA       0.0000   9999     2200  0     0    
2019/03/08  16:10:00  BASE  3.3516   43   6.47388  31   -0.5  79    -3.7  195   0     985.7    NA       0.0000   9999     2130  0     0    
2019/03/08  16:11:00  BASE  3.45744  46   6.47388  31   -0.5  79    -3.7  201   0     985.6    NA       0.0000   9999     2300  0     0    
2019/03/08  16:12:00  BASE  3.99252  41   6.47388  31   -0.5  79    -3.6  203   0     985.6    NA       0.0000   9999     2330  0     0    
2019/03/08  16:13:00  BASE  4.15128  39   6.47388  31   -0.4  79    -3.5  202   0     985.6    NA       0.0000   9999     2260  0     0    
2019/03/08  16:14:00  BASE  4.4982   41   6.47388  31   -0.4  79    -3.5  202   0     985.6    NA       0.0000   9999     2230  0     0    
2019/03/08  16:15:00  BASE  4.851    44   6.62676  48   -0.3  79    -3.5  203   0     985.5    NA       0.0000   9999     2100  0     0    
2019/03/08  16:16:00  BASE  5.2038   45   6.62676  48   -0.3  79    -3.5  206   0     985.5    NA       0.0000   9999     2130  0     0    
2019/03/08  16:17:00  BASE  5.70948  47   6.83844  62   -0.3  79    -3.5  209   0     985.4    NA       0.0000   9999     2260  0     0    
2019/03/08  16:18:00  BASE  6.23868  51   7.53228  50   -0.3  79    -3.6  213   0     985.4    NA       0.0000   9999     2230  0     0    
2019/03/08  16:19:00  BASE  6.37392  48   7.53228  50   -0.3  78    -3.6  217   0     985.4    NA       0.0000   9999     2200  0     0    
2019/03/08  16:20:00  BASE  6.21516  42   7.53228  50   -0.3  78    -3.7  219   0     985.4    NA       0.0000   9999     2260  0     0    
2019/03/08  16:21:00  BASE  6.39744  38   8.04384  34   -0.3  78    -3.7  220   0     985.3    NA       0.0000   9999     2230  0     0    
2019/03/08  16:22:00  BASE  6.35628  37   8.04384  34   -0.3  78    -3.7  235   0     985.3    NA       0.0000   9999     2170  0     0    
2019/03/08  16:23:00  BASE  5.89764  37   8.04384  34   -0.3  78    -3.7  311   0     985.3    NA       0.0000   9999     2130  0     0    
2019/03/08  16:24:00  BASE  5.31552  34   8.04384  34   -0.3  78    -3.7  386   0     985.3    NA       0.0000   9999     2170  0     0    
2019/03/08  16:25:00  BASE  5.3508   29   8.04384  34   -0.3  78    -3.7  456   0     985.3    NA       0.0000   9999     2230  0     0    
2019/03/08  16:26:00  BASE  5.6448   26   8.04384  34   -0.3  78    -3.7  535   0     985.3    NA       0.0000   9999     2230  0     0    
2019/03/08  16:27:00  BASE  5.74476  27   8.04384  34   -0.2  77    -3.7  396   0     985.2    NA       0.0000   9999     0     0     0    
2019/03/08  16:28:00  BASE  5.48604  29   8.04384  34   -0.2  77    -3.8  245   0     985.2    NA       0.0000   9999     0     0     0    
2019/03/08  16:29:00  BASE  4.9392   30   8.04384  34   -0.2  76    -3.8  326   0     985.3    NA       0.0000   9999     0     0     0    
2019/03/08  16:30:00  BASE  4.66872  26   8.04384  34   -0.1  76    -3.8  514   0     985.3    NA       0.0000   9999     0     0     0    
2019/03/08  16:31:00  BASE  5.41548  27   7.92624  33   -0.0  75    -3.8  366   0     985.3    NA       0.0000   9999     0     0     0    
2019/03/08  16:32:00  BASE  6.28572  29   7.92624  33   0.0   75    -3.9  378   0     985.2    NA       0.0000   9999     2760  0     0    
2019/03/08  16:33:00  BASE  6.06228  30   7.92624  33   0.0   75    -4.0  417   0     985.2    NA       0.0000   9999     2720  0     0    
2019/03/08  16:34:00  BASE  5.42136  39   7.92624  33   0.0   74    -4.0  527   0     985.3    NA       0.0000   9999     2720  0     0    
2019/03/08  16:35:00  BASE  4.56876  54   7.92624  33   0.1   73    -4.1  650   0     985.3    NA       0.0000   9999     2790  0     0    
2019/03/08  16:36:00  BASE  4.18656  63   7.92624  33   0.1   73    -4.2  604   0     985.2    NA       0.0000   9999     2690  0     0    
2019/03/08  16:37:00  BASE  4.32768  63   7.92624  33   0.1   73    -4.2  339   0     985.2    NA       0.0000   9999     2760  21060 0    
2019/03/08  16:38:00  BASE  4.80396  69   7.92624  33   0.2   73    -4.2  640   0     985.2    NA       0.0000   9999     2720  0     0    
2019/03/08  16:39:00  BASE  5.21556  75   7.92624  33   0.1   72    -4.2  614   0     985.1    NA       0.0000   9999     2850  0     0    
2019/03/08  16:40:00  BASE  5.31552  73   7.92624  33   0.0   72    -4.4  589   0     985.2    NA       0.0000   9999     2690  0     0    
2019/03/08  16:41:00  BASE  5.40372  65   7.92624  33   0.0   72    -4.4  591   0     985.2    NA       0.0000   9999     2820  0     0    
2019/03/08  16:42:00  BASE  5.45664  60   6.59148  28   0.0   72    -4.4  638   0     985.1    NA       0.0000   9999     2530  0     0    
2019/03/08  16:43:00  BASE  4.89804  56   5.99172  58   0.0   72    -4.5  663   0     985.1    NA       0.0000   9999     2590  0     0    
2019/03/08  16:44:00  BASE  4.73928  56   5.99172  61   0.1   72    -4.3  666   0     985.1    NA       0.0000   9999     2590  0     0    
2019/03/08  16:45:00  BASE  5.63892  54   6.98544  51   0.2   72    -4.3  660   0     985.1    NA       0.0000   9999     2760  0     0    
2019/03/08  16:46:00  BASE  5.68008  51   6.98544  51   0.3   71    -4.3  659   0     985.1    NA       0.0000   9999     2590  0     0    
2019/03/08  16:47:00  BASE  5.145    45   6.98544  51   0.3   71    -4.4  673   0     985.0    NA       0.0000   9999     2560  0     0    
2019/03/08  16:48:00  BASE  4.73928  37   6.98544  51   0.3   70    -4.5  668   0     985.0    NA       0.0000   9999     2720  0     0    
2019/03/08  16:49:00  BASE  4.36296  41   6.98544  51   0.3   69    -4.7  625   0     984.9    NA       0.0000   9999     2660  0     0    
2019/03/08  16:50:00  BASE  4.28652  47   6.98544  51   0.3   69    -4.6  374   0     984.9    NA       0.0000   9999     2620  0     0    
2019/03/08  16:51:00  BASE  3.7338   53   6.98544  51   0.3   69    -4.7  351   0     984.9    NA       0.0000   9999     2560  0     0    
2019/03/08  16:52:00  BASE  3.06348  75   6.98544  51   0.3   70    -4.6  459   0     984.9    NA       0.0000   9999     2530  0     0    
2019/03/08  16:53:00  BASE  3.89256  94   6.98544  51   0.2   70    -4.6  649   0     984.9    NA       0.0000   9999     2620  0     0    
2019/03/08  16:54:00  BASE  4.9392   98   6.98544  51   0.1   71    -4.6  616   0     984.8    NA       0.0000   9999     2560  0     0    
2019/03/08  16:55:00  BASE  4.98036  99   6.321    53   0.0   71    -4.6  602   0     984.8    NA       0.0000   9999     2790  0     0    
2019/03/08  16:56:00  BASE  4.57464  96   5.47428  103  -0.1  71    -4.6  645   0     984.8    NA       0.0000   9999     2430  0     0    
2019/03/08  16:57:00  BASE  4.23948  80   5.47428  103  -0.1  72    -4.6  414   0     984.8    NA       0.0000   9999     2590  0     0    
2019/03/08  16:58:00  BASE  4.75692  76   5.68596  81   -0.1  72    -4.5  660   0     984.7    NA       0.0000   9999     2560  0     0    
2019/03/08  16:59:00  BASE  4.71576  89   5.68596  81   -0.1  72    -4.5  643   0     984.7    NA       0.0000   9999     0     0     0    
2019/03/08  17:00:00  BASE  4.09248  93   5.68596  81   -0.1  72    -4.5  300   0     984.7    NA       0.0000   9999     2620  3610  0    
2019/03/08  17:01:00  BASE  3.83376  96   5.68596  81   -0.1  72    -4.6  280   0     984.7    NA       0.0000   9999     2620  3150  0    
2019/03/08  17:02:00  BASE  3.80436  98   5.68596  81   -0.2  72    -4.6  278   0     984.7    NA       0.0000   9999     2590  3280  0    
2019/03/08  17:03:00  BASE  4.05132  100  5.68596  81   -0.3  72    -4.7  285   0     984.7    NA       0.0000   9999     2990  0     0    
2019/03/08  17:04:00  BASE  4.40412  104  5.68596  81   -0.4  73    -4.7  347   0     984.6    NA       0.0000   9999     2790  0     0    
2019/03/08  17:05:00  BASE  4.29828  108  5.68596  81   -0.4  73    -4.6  648   0     984.6    NA       0.0000   9999     8430  0     0    
2019/03/08  17:06:00  BASE  4.2336   110  5.68596  81   -0.4  74    -4.5  675   0     984.6    NA       0.0000   9999     8330  0     0    
2019/03/08  17:07:00  BASE  4.49232  112  5.68596  81   -0.3  74    -4.4  438   0     984.6    NA       0.0000   9999     8370  0     0    
2019/03/08  17:08:00  BASE  4.60992  119  5.62716  88   -0.2  74    -4.3  532   0     984.6    NA       0.0000   9999     3050  8300  0    
2019/03/08  17:09:00  BASE  4.71576  120  5.35668  104  -0.2  74    -4.3  629   0     984.6    NA       0.0000   9999     2820  8370  0    
2019/03/08  17:10:00  BASE  4.63344  120  5.35668  104  -0.2  73    -4.4  637   0     984.6    NA       0.0000   9999     2790  3350  8300 
2019/03/08  17:11:00  BASE  4.2924   118  5.35668  104  -0.2  73    -4.5  555   0     984.6    NA       0.0000   9999     2850  0     0    
2019/03/08  17:12:00  BASE  3.75144  112  5.35668  104  -0.2  73    -4.5  520   0     984.5    NA       0.0000   9999     3380  0     0    
2019/03/08  17:13:00  BASE  3.76908  105  5.35668  104  -0.2  73    -4.5  517   0     984.5    NA       0.0000   9999     3510  0     0    
2019/03/08  17:14:00  BASE  3.98664  103  5.2626   127  -0.2  73    -4.4  519   0     984.4    NA       0.0000   9999     0     0     0    
2019/03/08  17:15:00  BASE  4.00428  103  5.2626   127  -0.2  74    -4.3  540   0     984.4    NA       0.0000   9999     0     0     0    
2019/03/08  17:16:00  BASE  3.969    103  5.2626   127  -0.2  74    -4.3  549   0     984.3    NA       0.0000   9999     0     0     0    
2019/03/08  17:17:00  BASE  3.83376  105  5.2626   127  -0.2  74    -4.3  541   0     984.2    NA       0.0000   9999     0     0     0    
2019/03/08  17:18:00  BASE  4.03368  110  5.08032  116  -0.2  74    -4.4  583   0     984.2    NA       0.0000   9999     0     0     0    
2019/03/08  17:19:00  BASE  4.5276   120  5.1744   125  -0.2  74    -4.4  585   0     984.1    NA       0.0000   9999     0     0     0    
2019/03/08  17:20:00  BASE  4.75104  124  5.1744   125  -0.2  74    -4.4  532   0     984.1    NA       0.0000   9999     0     0     0    
2019/03/08  17:21:00  BASE  4.80984  125  5.1744   125  -0.2  74    -4.4  617   0     984.1    NA       0.0000   9999     0     0     0    
2019/03/08  17:22:00  BASE  4.96272  125  5.47428  125  -0.2  74    -4.3  559   0     984.0    NA       0.0000   9999     0     0     0    
2019/03/08  17:23:00  BASE  5.00388  128  5.47428  127  -0.3  74    -4.3  563   0     984.0    NA       0.0000   9999     0     0     0    
2019/03/08  17:24:00  BASE  4.59228  128  5.47428  127  -0.3  74    -4.3  548   0     984.0    NA       0.0000   9999     0     0     0    
2019/03/08  17:25:00  BASE  4.04544  126  5.47428  127  -0.2  74    -4.2  518   0     984.0    NA       0.0000   9999     0     0     0    
2019/03/08  17:26:00  BASE  3.68676  125  5.47428  127  -0.3  74    -4.3  458   0     983.9    NA       0.0000   9999     0     0     0    
2019/03/08  17:27:00  BASE  3.85728  123  5.47428  127  -0.3  75    -4.2  454   0     983.9    NA       0.0000   9999     0     0     0    
2019/03/08  17:28:00  BASE  4.4982   123  5.47428  127  -0.3  75    -4.2  474   0     983.9    NA       0.0000   9999     0     0     0    
2019/03/08  17:29:00  BASE  4.65108  122  5.47428  127  -0.3  75    -4.2  472   0     983.9    NA       0.0000   9999     0     0     0    
2019/03/08  17:30:00  BASE  4.4982   123  5.47428  127  -0.3  74    -4.3  478   0     983.8    NA       0.0000   9999     0     0     0    
2019/03/08  17:31:00  BASE  4.56288  121  5.47428  127  -0.3  74    -4.3  506   0     983.7    NA       0.0000   9999     0     0     0    
2019/03/08  17:32:00  BASE  4.66284  117  5.47428  127  -0.3  74    -4.4  489   0     983.7    NA       0.0000   9999     0     0     0    
2019/03/08  17:33:00  BASE  4.3512   110  5.08032  120  -0.3  74    -4.4  251   0     983.7    NA       0.0000   9999     2430  0     0    
2019/03/08  17:34:00  BASE  3.86904  104  5.08032  120  -0.3  74    -4.4  265   0     983.7    NA       0.0000   9999     0     0     0    
2019/03/08  17:35:00  BASE  3.48684  105  5.08032  120  -0.3  74    -4.3  235   0     983.7    NA       0.0000   9999     2400  0     0    
2019/03/08  17:36:00  BASE  3.31044  109  5.08032  120  -0.3  75    -4.2  248   0     983.7    NA       0.0000   9999     0     0     0    
2019/03/08  17:37:00  BASE  3.76908  117  5.08032  120  -0.4  76    -4.1  306   0     983.7    NA       0.0000   9999     20930 0     0    
2019/03/08  17:38:00  BASE  4.3218   125  5.02152  119  -0.4  76    -4.0  514   0     983.6    NA       0.0000   9999     0     0     0    
2019/03/08  17:39:00  BASE  4.55112  132  5.02152  119  -0.5  77    -4.1  335   0     983.5    NA       0.0000   9999     0     0     0    
2019/03/08  17:40:00  BASE  4.75104  137  5.02152  119  -0.5  77    -4.1  490   0     983.5    NA       0.0000   9999     0     0     0    
2019/03/08  17:41:00  BASE  4.72752  140  4.99212  142  -0.5  76    -4.1  492   0     983.5    NA       0.0000   9999     0     0     0    
2019/03/08  17:42:00  BASE  4.83336  137  5.62716  128  -0.5  76    -4.1  496   0     983.5    NA       0.0000   9999     0     0     0    
2019/03/08  17:43:00  BASE  5.145    133  5.62716  128  -0.5  76    -4.1  489   0     983.4    NA       0.0000   9999     0     0     0    
2019/03/08  17:44:00  BASE  5.39784  131  6.2622   128  -0.5  76    -4.1  503   0     983.4    NA       0.0000   9999     0     0     0    
2019/03/08  17:45:00  BASE  5.50956  132  6.2622   128  -0.5  77    -4.1  497   0     983.3    NA       0.0000   9999     0     0     0    
2019/03/08  17:46:00  BASE  5.51544  128  6.41508  122  -0.5  77    -4.1  481   0     983.3    NA       0.0000   9999     0     0     0    
2019/03/08  17:47:00  BASE  4.6158   121  6.41508  122  -0.5  77    -4.1  519   0     983.3    NA       0.0000   9999     0     0     0    
2019/03/08  17:48:00  BASE  4.10424  124  6.41508  122  -0.5  77    -4.1  541   0     983.3    NA       0.0000   9999     8300  20540 22470
2019/03/08  17:49:00  BASE  4.75104  131  6.41508  122  -0.4  77    -4.0  543   0     983.3    NA       0.0000   9999     20210 0     0    
2019/03/08  17:50:00  BASE  4.80984  140  6.41508  122  -0.4  77    -4.0  522   0     983.2    NA       0.0000   9999     20280 0     0    
2019/03/08  17:51:00  BASE  4.52172  144  6.41508  122  -0.3  77    -3.9  346   0     983.2    NA       0.0000   9999     20440 0     0    
2019/03/08  17:52:00  BASE  4.72164  141  6.41508  122  -0.3  77    -3.9  270   0     983.2    NA       0.0000   9999     20510 0     0    
2019/03/08  17:53:00  BASE  4.57464  140  6.41508  122  -0.3  77    -3.9  258   0     983.1    NA       0.0000   9999     0     0     0    
2019/03/08  17:54:00  BASE  4.49232  142  6.41508  122  -0.3  76    -3.9  256   0     983.1    NA       0.0000   9999     21160 0     0    
2019/03/08  17:55:00  BASE  4.98036  140  6.41508  122  -0.3  76    -4.0  251   0     983.1    NA       0.0000   9999     20600 0     0    
2019/03/08  17:56:00  BASE  5.12736  135  6.2328   135  -0.3  76    -4.1  247   0     983.1    NA       0.0000   9999     0     0     0    
2019/03/08  17:57:00  BASE  5.68008  131  6.53268  126  -0.4  76    -4.1  238   0     983.1    NA       0.0000   9999     0     0     0    
2019/03/08  17:58:00  BASE  6.03288  129  6.53268  126  -0.4  76    -4.1  228   0     983.0    NA       0.0000   9999     0     0     0    
2019/03/08  17:59:00  BASE  5.52132  128  6.53268  126  -0.4  77    -4.0  221   0     983.0    NA       0.0000   9999     3150  0     0    
2019/03/08  18:00:00  BASE  5.30376  130  6.53268  126  -0.4  77    -3.9  220   0     982.9    NA       0.0000   9999     3080  0     0    
2019/03/08  18:01:00  BASE  5.6154   128  6.74436  124  -0.5  78    -3.9  224   0     982.9    NA       0.0000   9999     3050  0     0    
2019/03/08  18:02:00  BASE  5.93292  123  6.74436  124  -0.5  78    -3.8  224   0     982.9    NA       0.0000   9999     2920  0     0    
2019/03/08  18:03:00  BASE  6.10932  123  6.74436  124  -0.5  79    -3.7  220   0     982.9    NA       0.0000   9999     2890  0     0    
2019/03/08  18:04:00  BASE  6.05052  124  6.98544  124  -0.5  79    -3.7  216   0     982.9    NA       0.0000   9999     2890  8630  0    
2019/03/08  18:05:00  BASE  6.0858   125  6.98544  124  -0.5  79    -3.8  215   0     982.8    NA       0.0000   9999     8600  0     0    
2019/03/08  18:06:00  BASE  6.07992  126  6.98544  124  -0.5  79    -3.8  220   0     982.8    NA       0.0000   9999     2820  3220  8600 
2019/03/08  18:07:00  BASE  6.36216  128  7.59108  131  -0.5  78    -3.8  231   0     982.8    NA       0.0000   9999     2790  0     0    
2019/03/08  18:08:00  BASE  6.5856   129  7.59108  131  -0.5  78    -3.9  244   0     982.7    NA       0.0000   9999     2790  0     0    
2019/03/08  18:09:00  BASE  6.73848  131  7.59108  131  -0.5  78    -3.9  250   0     982.7    NA       0.0000   9999     2790  0     0    
2019/03/08  18:10:00  BASE  7.19712  133  7.71456  134  -0.5  78    -3.9  254   0     982.6    NA       0.0000   9999     2790  0     0    
2019/03/08  18:11:00  BASE  7.29708  133  7.71456  134  -0.5  78    -4.0  256   0     982.6    NA       0.0000   9999     3280  0     0    
2019/03/08  18:12:00  BASE  7.27356  133  7.89684  130  -0.5  77    -4.0  254   0     982.5    NA       0.0000   9999     2920  8760  0    
2019/03/08  18:13:00  BASE  7.4676   131  7.89684  130  -0.5  77    -4.1  244   0     982.5    NA       0.0000   9999     8690  0     0    
2019/03/08  18:14:00  BASE  7.25592  132  7.89684  130  -0.5  77    -4.1  231   0     982.5    NA       0.0000   9999     3020  0     0    
2019/03/08  18:15:00  BASE  6.68556  134  7.89684  130  -0.5  76    -4.1  219   0     982.5    NA       0.0000   9999     2920  0     0    
2019/03/08  18:16:00  BASE  6.468    133  7.89684  130  -0.5  76    -4.2  211   0     982.4    NA       0.0000   9999     3020  0     0    
2019/03/08  18:17:00  BASE  6.33276  132  7.89684  130  -0.5  76    -4.2  208   0     982.4    NA       0.0000   9999     2990  0     0    
2019/03/08  18:18:00  BASE  6.07404  131  7.89684  130  -0.5  76    -4.1  209   0     982.4    NA       0.0000   9999     2990  0     0    
2019/03/08  18:19:00  BASE  6.13872  132  7.89684  130  -0.5  76    -4.1  211   0     982.4    NA       0.0000   9999     2990  0     0    
2019/03/08  18:20:00  BASE  6.25632  132  7.89684  130  -0.5  76    -4.2  212   0     982.4    NA       0.0000   9999     3050  0     0    
2019/03/08  18:21:00  BASE  6.39744  127  7.89684  130  -0.5  76    -4.2  207   0     982.4    NA       0.0000   9999     2950  0     0    
2019/03/08  18:22:00  BASE  6.52092  122  7.89684  130  -0.4  75    -4.3  199   0     982.4    NA       0.0000   9999     3020  0     0    
2019/03/08  18:23:00  BASE  6.41508  127  7.3206   134  -0.4  75    -4.3  191   0     982.4    NA       0.0000   9999     2950  0     0    
2019/03/08  18:24:00  BASE  6.83844  135  8.16732  139  -0.4  74    -4.4  186   0     982.3    NA       0.0000   9999     2990  0     0    
2019/03/08  18:25:00  BASE  7.01484  130  8.16732  139  -0.4  74    -4.4  183   0     982.3    NA       0.0000   9999     3080  0     0    
2019/03/08  18:26:00  BASE  7.10892  130  8.53188  133  -0.3  74    -4.4  179   0     982.3    NA       0.0000   9999     2920  0     0    
2019/03/08  18:27:00  BASE  7.37352  134  8.53188  133  -0.3  74    -4.3  175   0     982.3    NA       0.0000   9999     3020  0     0    
2019/03/08  18:28:00  BASE  7.27356  133  8.53188  133  -0.3  75    -4.3  171   0     982.3    NA       0.0000   9999     2990  0     0    
2019/03/08  18:29:00  BASE  6.76788  129  8.53188  133  -0.3  75    -4.2  169   0     982.3    NA       0.0000   9999     3020  0     0    
2019/03/08  18:30:00  BASE  6.36804  122  8.53188  133  -0.3  76    -4.0  169   0     982.3    NA       0.0000   9999     3020  0     0    
2019/03/08  18:31:01  BASE  6.6444   117  8.53188  133  -0.3  77    -3.9  170   0     982.3    NA       0.0000   9999     2990  0     0    
2019/03/08  18:32:00  BASE  6.5856   114  8.53188  133  -0.3  77    -3.9  172   0     982.3    NA       0.0000   9999     2990  0     0    
2019/03/08  18:33:00  BASE  6.28572  113  8.53188  133  -0.3  77    -3.9  173   0     982.3    NA       0.0000   9999     3050  0     0    
2019/03/08  18:34:00  BASE  6.27396  110  8.53188  133  -0.2  76    -3.9  175   0     982.3    NA       0.0000   9999     3050  0     0    
2019/03/08  18:35:00  BASE  6.20928  110  8.53188  133  -0.3  76    -4.0  176   0     982.3    NA       0.0000   9999     3080  0     0    
2019/03/08  18:36:00  BASE  6.19752  112  7.68516  128  -0.3  75    -4.1  176   0     982.2    NA       0.0000   9999     3080  0     0    
2019/03/08  18:37:00  BASE  6.57972  111  7.59108  133  -0.3  75    -4.1  176   0     982.2    NA       0.0000   9999     3050  0     0    
2019/03/08  18:38:00  BASE  6.69732  113  7.3206   126  -0.3  75    -4.2  175   0     982.2    NA       0.0000   9999     3050  0     0    
2019/03/08  18:39:00  BASE  6.59736  114  7.05012  107  -0.3  75    -4.2  175   0     982.1    NA       0.0000   9999     3020  0     0    
2019/03/08  18:40:00  BASE  6.47388  113  7.05012  107  -0.3  74    -4.3  176   0     982.1    NA       0.0000   9999     2990  0     0    
2019/03/08  18:41:00  BASE  6.56208  114  7.05012  107  -0.3  74    -4.4  179   0     982.1    NA       0.0000   9999     2950  0     0    
2019/03/08  18:42:00  BASE  6.56208  117  7.05012  107  -0.3  73    -4.5  182   0     982.1    NA       0.0000   9999     2990  0     0    
2019/03/08  18:43:00  BASE  6.45624  120  7.05012  107  -0.3  73    -4.6  184   0     982.1    NA       0.0000   9999     2990  0     0    
2019/03/08  18:44:00  BASE  6.50328  121  7.05012  107  -0.3  73    -4.6  184   0     982.0    NA       0.0000   9999     2950  10270 0    
2019/03/08  18:45:00  BASE  6.468    121  7.05012  107  -0.3  73    -4.6  182   0     982.0    NA       0.0000   9999     3020  10270 0    
2019/03/08  18:46:00  BASE  6.7326   122  7.2618   125  -0.3  73    -4.6  179   0     981.9    NA       0.0000   9999     10200 0     0    
2019/03/08  18:47:00  BASE  6.87372  124  7.50288  130  -0.3  73    -4.5  176   0     981.9    NA       0.0000   9999     3050  10170 0    
2019/03/08  18:48:00  BASE  6.75024  126  7.50288  130  -0.3  74    -4.3  173   0     981.8    NA       0.0000   9999     3050  10110 0    
2019/03/08  18:49:00  BASE  6.54444  127  7.50288  130  -0.3  75    -4.2  171   0     981.8    NA       0.0000   9999     3120  10110 0    
2019/03/08  18:50:00  BASE  6.9384   130  8.3202   129  -0.3  76    -4.1  170   0     981.7    NA       0.0000   9999     3080  10110 0    
2019/03/08  18:51:00  BASE  7.63224  130  8.3202   129  -0.3  76    -4.0  169   0     981.7    NA       0.0000   9999     3050  10110 0    
2019/03/08  18:52:00  BASE  7.62636  129  8.3202   129  -0.3  77    -3.9  167   0     981.7    NA       0.0000   9999     3080  10110 0    
2019/03/08  18:53:00  BASE  7.25592  128  8.3202   129  -0.3  77    -3.9  163   0     981.7    NA       0.0000   9999     10070 0     0    
2019/03/08  18:54:00  BASE  7.0854   126  8.3202   129  -0.3  77    -3.8  158   0     981.6    NA       0.0000   9999     10110 0     0    
2019/03/08  18:55:00  BASE  7.38528  126  8.3202   129  -0.3  78    -3.7  154   0     981.6    NA       0.0000   9999     10070 0     0    
2019/03/08  18:56:00  BASE  7.80276  124  8.4672   119  -0.2  78    -3.6  152   0     981.6    NA       0.0000   9999     10140 0     0    
2019/03/08  18:57:00  BASE  8.14968  122  8.56128  123  -0.2  78    -3.6  151   0     981.6    NA       0.0000   9999     10170 0     0    
2019/03/08  18:58:00  BASE  8.24376  121  8.56128  120  -0.2  78    -3.7  151   0     981.6    NA       0.0000   9999     3220  9940  0    
2019/03/08  18:59:00  BASE  7.63224  123  8.56128  120  -0.2  77    -3.7  152   0     981.6    NA       0.0000   9999     3180  10040 0    
2019/03/08  19:00:00  BASE  7.30296  125  8.56128  120  -0.2  77    -3.9  153   0     981.6    NA       0.0000   9999     3180  10040 0    
2019/03/08  19:01:00  BASE  7.7616   122  8.62008  120  -0.3  76    -3.9  155   0     981.6    NA       0.0000   9999     3180  10110 0    
2019/03/08  19:02:00  BASE  8.1144   121  8.64948  125  -0.3  76    -4.0  158   0     981.5    NA       0.0000   9999     3120  10010 0    
2019/03/08  19:03:00  BASE  8.16144  121  8.64948  125  -0.3  76    -4.1  161   0     981.5    NA       0.0000   9999     3080  10040 0    
2019/03/08  19:04:00  BASE  8.06148  122  8.74356  122  -0.3  75    -4.1  163   0     981.5    NA       0.0000   9999     3120  10010 0    
2019/03/08  19:05:00  BASE  8.12028  123  8.80236  124  -0.3  75    -4.2  163   0     981.5    NA       0.0000   9999     9970  0     0    
2019/03/08  19:06:00  BASE  8.4378   122  9.16692  122  -0.3  74    -4.3  162   0     981.4    NA       0.0000   9999     9910  0     0    
2019/03/08  19:07:00  BASE  8.24964  123  9.16692  122  -0.3  74    -4.4  162   0     981.4    NA       0.0000   9999     3610  9740  22770
2019/03/08  19:08:00  BASE  7.8498   123  9.16692  122  -0.3  74    -4.4  161   0     981.4    NA       0.0000   9999     3640  9710  0    
2019/03/08  19:09:00  BASE  8.00268  122  9.16692  122  -0.3  73    -4.5  161   0     981.3    NA       0.0000   9999     3580  0     0    
2019/03/08  19:10:00  BASE  8.14968  123  9.16692  122  -0.3  73    -4.5  161   0     981.3    NA       0.0000   9999     3510  0     0    
2019/03/08  19:11:00  BASE  7.94388  123  9.16692  122  -0.3  73    -4.5  162   0     981.3    NA       0.0000   9999     3480  0     0    
2019/03/08  19:12:00  BASE  7.9086   121  9.16692  122  -0.3  73    -4.5  161   0     981.3    NA       0.0000   9999     3510  0     0    
2019/03/08  19:13:00  BASE  8.14968  120  9.16692  122  -0.3  74    -4.4  160   0     981.3    NA       0.0000   9999     3510  0     0    
2019/03/08  19:14:00  BASE  8.17908  121  9.16692  122  -0.3  74    -4.4  159   0     981.3    NA       0.0000   9999     3510  0     0    
2019/03/08  19:15:00  BASE  8.09676  123  9.16692  122  -0.3  74    -4.3  159   0     981.2    NA       0.0000   9999     3150  0     0    
2019/03/08  19:16:00  BASE  7.76748  125  8.80236  120  -0.2  74    -4.2  159   0     981.2    NA       0.0000   9999     3380  20740 22110
2019/03/08  19:17:00  BASE  7.43232  127  8.80236  120  -0.2  75    -4.2  160   0     981.2    NA       0.0000   9999     3120  3540  0    
2019/03/08  19:18:00  BASE  7.15596  129  8.80236  120  -0.2  75    -4.1  160   0     981.2    NA       0.0000   9999     3120  0     0    
2019/03/08  19:19:00  BASE  7.2618   130  8.80236  120  -0.2  75    -4.0  160   0     981.2    NA       0.0000   9999     3120  0     0    
2019/03/08  19:20:00  BASE  7.43232  129  8.80236  120  -0.2  76    -4.0  156   0     981.2    NA       0.0000   9999     3120  0     0    
2019/03/08  19:21:00  BASE  7.15008  127  8.80236  120  -0.2  76    -3.9  152   0     981.1    NA       0.0000   9999     3380  0     0    
2019/03/08  19:22:00  BASE  7.06776  127  8.80236  120  -0.2  76    -3.8  149   0     981.1    NA       0.0000   9999     3150  0     0    
2019/03/08  19:23:00  BASE  7.43232  129  8.4672   123  -0.2  77    -3.8  147   0     981.0    NA       0.0000   9999     3120  0     0    
2019/03/08  19:24:00  BASE  7.69104  129  8.4672   123  -0.2  77    -3.7  147   0     981.0    NA       0.0000   9999     3150  0     0    
2019/03/08  19:25:00  BASE  7.97328  125  9.07284  121  -0.2  78    -3.6  147   0     981.0    NA       0.0000   9999     3180  0     0    
2019/03/08  19:26:00  BASE  8.673    123  9.64908  121  -0.1  78    -3.5  147   0     981.0    NA       0.0000   9999     3150  0     0    
2019/03/08  19:27:00  BASE  8.87292  121  9.64908  121  -0.1  78    -3.5  146   0     981.0    NA       0.0000   9999     3180  0     0    
2019/03/08  19:28:00  BASE  8.62008  120  9.64908  121  -0.1  78    -3.5  144   0     981.0    NA       0.0000   9999     3250  0     0    
2019/03/08  19:29:00  BASE  8.47308  120  9.64908  121  -0.1  78    -3.5  141   0     981.0    NA       0.0000   9999     3180  0     0    
2019/03/08  19:30:00  BASE  8.38488  120  9.64908  121  -0.1  78    -3.6  139   0     981.0    NA       0.0000   9999     3180  0     0    
2019/03/08  19:31:00  BASE  7.98504  119  9.64908  121  -0.1  78    -3.6  138   0     981.0    NA       0.0000   9999     3410  0     0    
2019/03/08  19:32:00  BASE  7.75572  121  9.64908  121  -0.1  78    -3.6  138   0     981.0    NA       0.0000   9999     3350  0     0    
2019/03/08  19:33:00  BASE  8.22612  122  9.64908  121  -0.2  78    -3.6  138   0     981.0    NA       0.0000   9999     3310  0     0    
2019/03/08  19:34:00  BASE  8.57304  122  9.64908  121  -0.2  77    -3.6  138   0     981.0    NA       0.0000   9999     3280  0     0    
2019/03/08  19:35:00  BASE  8.29668  123  9.64908  121  -0.1  77    -3.7  139   0     981.0    NA       0.0000   9999     3280  0     0    
2019/03/08  19:36:00  BASE  8.02032  123  9.77256  123  -0.1  76    -3.8  141   0     980.9    NA       0.0000   9999     3250  0     0    
2019/03/08  19:37:00  BASE  8.32608  123  9.77256  123  -0.1  75    -3.9  140   0     980.9    NA       0.0000   9999     3280  0     0    
2019/03/08  19:38:00  BASE  8.60832  121  9.77256  123  -0.1  75    -4.0  140   0     980.9    NA       0.0000   9999     3280  0     0    
2019/03/08  19:39:00  BASE  8.54364  120  9.77256  123  -0.1  74    -4.1  141   0     980.9    NA       0.0000   9999     3250  0     0    
2019/03/08  19:40:00  BASE  8.27316  121  9.77256  123  -0.1  74    -4.2  144   0     980.9    NA       0.0000   9999     3220  0     0    
2019/03/08  19:41:00  BASE  8.03796  122  9.77256  123  -0.1  74    -4.2  147   0     980.8    NA       0.0000   9999     3220  0     0    
2019/03/08  19:42:00  BASE  7.85568  122  9.77256  123  -0.1  74    -4.3  151   0     980.8    NA       0.0000   9999     3220  0     0    
2019/03/08  19:43:00  BASE  7.51464  123  9.77256  123  -0.1  74    -4.3  153   0     980.8    NA       0.0000   9999     3180  0     0    
2019/03/08  19:44:01  BASE  7.23828  124  9.77256  123  -0.1  74    -4.2  155   0     980.8    NA       0.0000   9999     3180  0     0    
2019/03/08  19:45:01  BASE  7.54404  122  9.77256  123  -0.1  74    -4.1  156   0     980.7    NA       0.0000   9999     3220  0     0    
2019/03/08  19:46:00  BASE  7.7322   122  9.10224  119  -0.1  75    -4.1  156   0     980.7    NA       0.0000   9999     3220  0     0    
2019/03/08  19:47:01  BASE  7.2912   123  9.10224  119  -0.1  75    -4.1  156   0     980.7    NA       0.0000   9999     3080  0     0    
2019/03/08  19:48:01  BASE  7.0266   123  8.83176  121  -0.1  75    -4.0  155   0     980.7    NA       0.0000   9999     3120  0     0    
2019/03/08  19:49:01  BASE  6.8796   119  8.4378   119  -0.1  75    -4.0  155   0     980.7    NA       0.0000   9999     3510  4430  0    
2019/03/08  19:50:01  BASE  7.26768  115  8.4378   119  -0.1  75    -4.0  154   0     980.6    NA       0.0000   9999     3410  4300  0    
2019/03/08  19:51:01  BASE  7.71456  115  8.4378   119  -0.0  75    -3.9  153   0     980.6    NA       0.0000   9999     4200  0     0    
2019/03/08  19:52:01  BASE  7.5852   116  8.4378   119  0.0   75    -3.9  152   0     980.6    NA       0.0000   9999     4170  0     0    
2019/03/08  19:53:01  BASE  7.19712  117  8.4378   119  0.1   75    -3.9  151   0     980.6    NA       0.0000   9999     4100  23100 0    
2019/03/08  19:54:01  BASE  6.72084  119  8.4378   119  0.1   74    -3.9  150   0     980.6    NA       0.0000   9999     4100  0     0    
2019/03/08  19:55:01  BASE  6.84432  120  8.16732  124  0.2   74    -4.0  148   0     980.5    NA       0.0000   9999     4130  0     0    
2019/03/08  19:56:01  BASE  7.03248  120  8.13792  115  0.2   73    -4.0  145   0     980.4    NA       0.0000   9999     4170  0     0    
2019/03/08  19:57:01  BASE  6.9972   120  8.13792  115  0.2   73    -4.0  144   0     980.4    NA       0.0000   9999     4170  0     0    
2019/03/08  19:58:01  BASE  7.09128  121  8.13792  115  0.2   73    -4.0  143   0     980.4    NA       0.0000   9999     4200  0     0    
2019/03/08  19:59:01  BASE  7.00308  121  8.13792  115  0.2   73    -4.0  144   0     980.4    NA       0.0000   9999     4270  0     0    
2019/03/08  20:00:01  BASE  6.76788  122  8.13792  115  0.2   74    -4.0  144   0     980.3    NA       0.0000   9999     4270  0     0    
2019/03/08  20:01:01  BASE  6.84432  124  7.80276  114  0.2   74    -3.9  145   0     980.3    NA       0.0000   9999     4170  0     0    
2019/03/08  20:02:01  BASE  7.09716  124  7.83216  125  0.2   74    -3.9  145   0     980.2    NA       0.0000   9999     4100  0     0    
2019/03/08  20:03:01  BASE  7.2618   121  7.83216  116  0.2   74    -4.0  145   0     980.2    NA       0.0000   9999     4130  0     0    
2019/03/08  20:04:01  BASE  7.25592  119  7.83216  116  0.2   73    -4.0  145   0     980.2    NA       0.0000   9999     4130  0     0    
2019/03/08  20:05:01  BASE  7.24416  119  7.83216  116  0.2   73    -4.0  145   0     980.2    NA       0.0000   9999     4200  0     0    
2019/03/08  20:06:01  BASE  7.44996  118  8.07912  120  0.2   73    -4.1  145   0     980.2    NA       0.0000   9999     4200  0     0    
2019/03/08  20:07:01  BASE  7.50876  119  8.07912  120  0.3   72    -4.1  147   0     980.2    NA       0.0000   9999     4170  0     0    
2019/03/08  20:08:01  BASE  7.37352  120  8.07912  120  0.3   72    -4.1  150   0     980.2    NA       0.0000   9999     4200  0     0    
2019/03/08  20:09:01  BASE  7.38528  120  8.07912  120  0.3   72    -4.1  153   0     980.1    NA       0.0000   9999     4130  0     0    
2019/03/08  20:10:01  BASE  7.35     118  8.07912  120  0.3   72    -4.1  157   0     980.1    NA       0.0000   9999     4100  0     0    
2019/03/08  20:11:01  BASE  7.12656  118  8.07912  120  0.3   72    -4.1  161   0     980.1    NA       0.0000   9999     4070  0     0    
2019/03/08  20:12:01  BASE  6.65028  119  8.07912  120  0.3   72    -4.1  164   0     980.1    NA       0.0000   9999     4100  22280 0    
2019/03/08  20:13:01  BASE  6.5856   120  8.07912  120  0.4   72    -4.0  165   0     980.0    NA       0.0000   9999     4230  0     0    
2019/03/08  20:14:01  BASE  6.82668  121  8.07912  120  0.4   72    -4.0  166   0     980.0    NA       0.0000   9999     4270  0     0    
2019/03/08  20:15:01  BASE  6.63852  122  8.07912  120  0.4   72    -4.1  166   0     980.1    NA       0.0000   9999     4300  0     0    
2019/03/08  20:16:01  BASE  6.65616  120  7.98504  120  0.5   72    -4.1  165   0     980.0    NA       0.0000   9999     4330  0     0    
2019/03/08  20:17:01  BASE  6.90312  118  7.74396  118  0.5   72    -4.0  165   0     979.9    NA       0.0000   9999     2850  23200 0    
2019/03/08  20:18:01  BASE  7.16184  118  7.80276  114  0.5   72    -4.0  164   0     979.9    NA       0.0000   9999     2850  0     0    
2019/03/08  20:19:01  BASE  7.16184  118  7.80276  114  0.5   72    -3.9  164   0     979.9    NA       0.0000   9999     4360  0     0    
2019/03/08  20:20:01  BASE  6.762    120  7.80276  114  0.5   73    -3.8  164   0     979.9    NA       0.0000   9999     4430  0     0    
2019/03/08  20:21:01  BASE  6.63852  119  7.80276  114  0.5   73    -3.8  164   0     979.8    NA       0.0000   9999     4360  0     0    
2019/03/08  20:22:01  BASE  6.71496  119  7.80276  114  0.5   73    -3.7  162   0     979.8    NA       0.0000   9999     4430  19820 0    
2019/03/08  20:23:01  BASE  6.5856   122  7.80276  114  0.5   73    -3.7  160   0     979.8    NA       0.0000   9999     5610  0     0    
2019/03/08  20:24:01  BASE  6.47976  124  7.80276  114  0.5   74    -3.6  158   0     979.8    NA       0.0000   9999     5020  0     0    
2019/03/08  20:25:01  BASE  6.45624  125  7.80276  114  0.5   74    -3.6  156   0     979.8    NA       0.0000   9999     4890  0     0    
2019/03/08  20:26:01  BASE  6.35628  127  7.80276  114  0.5   74    -3.6  154   0     979.8    NA       0.0000   9999     4860  0     0    
2019/03/08  20:27:01  BASE  6.26808  127  7.80276  114  0.5   74    -3.6  152   0     979.8    NA       0.0000   9999     4790  0     0    
2019/03/08  20:28:01  BASE  6.18576  125  7.47348  119  0.5   74    -3.6  150   0     979.8    NA       0.0000   9999     4860  0     0    
2019/03/08  20:29:01  BASE  5.91528  124  7.47348  119  0.5   74    -3.6  148   0     979.8    NA       0.0000   9999     4890  0     0    
2019/03/08  20:30:01  BASE  5.63304  126  7.47348  119  0.5   74    -3.6  145   0     979.8    NA       0.0000   9999     4950  0     0    
2019/03/08  20:31:01  BASE  5.69184  127  7.10892  125  0.5   74    -3.5  142   0     979.7    NA       0.0000   9999     5120  0     0    
2019/03/08  20:32:01  BASE  5.9682   127  7.10892  125  0.5   74    -3.5  138   0     979.7    NA       0.0000   9999     5020  0     0    
2019/03/08  20:33:01  BASE  6.06816  129  7.10892  125  0.5   74    -3.5  135   0     979.7    NA       0.0000   9999     5050  0     0    
2019/03/08  20:34:01  BASE  6.03876  129  6.98544  122  0.5   75    -3.5  132   0     979.7    NA       0.0000   9999     4890  0     0    
2019/03/08  20:35:01  BASE  6.06816  130  6.98544  122  0.5   75    -3.5  130   0     979.6    NA       0.0000   9999     5090  0     0    
2019/03/08  20:36:01  BASE  6.44448  129  7.2324   128  0.5   75    -3.4  128   0     979.6    NA       0.0000   9999     3120  0     0    
2019/03/08  20:37:00  BASE  6.87372  126  7.92624  120  0.5   75    -3.4  126   0     979.6    NA       0.0000   9999     5120  0     0    
2019/03/08  20:38:01  BASE  7.16184  121  7.92624  120  0.5   75    -3.4  124   0     979.6    NA       0.0000   9999     5150  0     0    
2019/03/08  20:39:00  BASE  7.28532  119  7.92624  120  0.6   74    -3.5  123   0     979.6    NA       0.0000   9999     5090  0     0    
2019/03/08  20:40:01  BASE  7.10892  119  7.92624  120  0.6   74    -3.5  122   0     979.6    NA       0.0000   9999     5090  0     0    
2019/03/08  20:41:01  BASE  6.7914   119  7.92624  120  0.6   74    -3.6  120   0     979.6    NA       0.0000   9999     5320  0     0    
2019/03/08  20:42:01  BASE  6.57972  121  7.92624  120  0.6   73    -3.6  119   0     979.6    NA       0.0000   9999     5180  0     0    
2019/03/08  20:43:00  BASE  6.53856  120  7.92624  120  0.6   73    -3.6  118   0     979.6    NA       0.0000   9999     4920  0     0    
2019/03/08  20:44:00  BASE  6.41508  119  7.92624  120  0.6   74    -3.6  117   0     979.5    NA       0.0000   9999     4490  0     0    
2019/03/08  20:45:00  BASE  6.34452  119  7.92624  120  0.6   74    -3.5  116   0     979.5    NA       0.0000   9999     4170  0     0    
2019/03/08  20:46:00  BASE  6.07992  119  7.92624  120  0.6   74    -3.5  116   0     979.6    NA       0.0000   9999     4040  0     0    
2019/03/08  20:47:01  BASE  5.91528  117  7.74396  118  0.6   74    -3.4  116   0     979.5    NA       0.0000   9999     4490  0     0    
2019/03/08  20:48:01  BASE  6.321    114  7.71456  115  0.7   74    -3.4  117   0     979.5    NA       0.0000   9999     4490  0     0    
2019/03/08  20:49:01  BASE  6.4974   113  7.59108  119  0.7   74    -3.3  117   0     979.5    NA       0.0000   9999     4330  0     0    
2019/03/08  20:50:01  BASE  6.1152   114  7.13832  112  0.7   74    -3.3  118   0     979.5    NA       0.0000   9999     5090  0     0    
2019/03/08  20:51:00  BASE  5.94468  115  7.13832  112  0.8   74    -3.3  119   0     979.5    NA       0.0000   9999     7810  0     0    
2019/03/08  20:52:00  BASE  5.9388   119  7.13832  112  0.8   74    -3.4  120   0     979.5    NA       0.0000   9999     7450  0     0    
2019/03/08  20:53:00  BASE  5.91528  121  7.13832  112  0.9   73    -3.4  120   0     979.4    NA       0.0000   9999     7350  0     0    
2019/03/08  20:54:00  BASE  6.60912  118  7.74396  118  0.9   73    -3.5  121   0     979.3    NA       0.0000   9999     7320  0     0    
2019/03/08  20:55:00  BASE  7.32648  118  7.98504  118  0.9   72    -3.6  121   0     979.3    NA       0.0000   9999     7350  0     0    
2019/03/08  20:56:00  BASE  7.2618   117  7.98504  118  0.8   72    -3.6  121   0     979.3    NA       0.0000   9999     5380  0     0    
2019/03/08  20:57:00  BASE  6.76788  117  7.98504  118  0.8   72    -3.6  121   0     979.3    NA       0.0000   9999     7420  0     0    
2019/03/08  20:58:00  BASE  6.4386   118  7.98504  118  0.8   73    -3.6  121   0     979.3    NA       0.0000   9999     4860  0     0    
2019/03/08  20:59:00  BASE  6.3798   119  7.98504  118  0.7   73    -3.6  121   0     979.3    NA       0.0000   9999     4990  0     0    
2019/03/08  21:00:00  BASE  6.0564   120  7.98504  118  0.7   74    -3.5  121   0     979.3    NA       0.0000   9999     5050  7780  0    
2019/03/08  21:01:00  BASE  5.76828  118  7.98504  118  0.7   74    -3.3  121   0     979.3    NA       0.0000   9999     7710  0     0    
2019/03/08  21:02:00  BASE  6.2328   115  7.98504  118  0.7   75    -3.2  121   0     979.3    NA       0.0000   9999     7610  0     0    
2019/03/08  21:03:00  BASE  6.6738   114  7.98504  118  0.7   75    -3.2  121   0     979.2    NA       0.0000   9999     4530  0     0    
2019/03/08  21:04:00  BASE  6.5268   112  7.98504  118  0.7   76    -3.1  123   0     979.2    NA       0.0000   9999     7680  0     0    
2019/03/08  21:05:00  BASE  6.23868  112  7.50288  117  0.7   76    -3.1  122   0     979.2    NA       0.0000   9999     4490  0     0    
2019/03/08  21:06:00  BASE  6.40332  111  7.2912   114  0.7   76    -3.1  121   0     979.2    NA       0.0000   9999     4760  0     0    
2019/03/08  21:07:00  BASE  6.39156  111  7.2912   114  0.8   76    -3.1  121   0     979.2    NA       0.0000   9999     4860  0     0    
2019/03/08  21:08:00  BASE  5.81532  111  7.2912   114  0.8   75    -3.1  121   0     979.2    NA       0.0000   9999     4560  0     0    
2019/03/08  21:09:00  BASE  5.87412  110  7.2912   114  0.8   75    -3.1  121   0     979.2    NA       0.0000   9999     4560  0     0    
2019/03/08  21:10:00  BASE  5.87412  112  7.2912   114  0.8   75    -3.1  122   0     979.2    NA       0.0000   9999     4400  0     0    
2019/03/08  21:11:00  BASE  6.00348  114  7.2912   114  0.8   75    -3.1  122   0     979.2    NA       0.0000   9999     4330  0     0    
2019/03/08  21:12:00  BASE  6.32688  114  7.2912   114  0.8   75    -3.1  123   0     979.2    NA       0.0000   9999     0     0     0    
2019/03/08  21:13:00  BASE  6.2622   114  7.2912   114  0.9   75    -3.1  123   0     979.2    NA       0.0000   9999     0     0     0    
2019/03/08  21:14:00  BASE  5.9094   118  7.2912   114  0.9   74    -3.2  125   0     979.2    NA       0.0000   9999     0     0     0    
2019/03/08  21:15:00  BASE  5.60952  120  7.2912   114  0.9   74    -3.2  126   0     979.2    NA       0.0000   9999     0     0     0    
2019/03/08  21:16:00  BASE  5.46252  119  6.77376  108  0.9   74    -3.2  128   0     979.2    NA       0.0000   9999     21620 0     0    
2019/03/08  21:17:00  BASE  5.10384  119  6.74436  114  0.9   75    -3.1  128   0     979.2    NA       0.0000   9999     0     0     0    
2019/03/08  21:18:00  BASE  5.3508   117  6.74436  114  0.8   75    -3.1  129   0     979.2    NA       0.0000   9999     0     0     0    
2019/03/08  21:19:00  BASE  5.65068  113  6.74436  114  0.8   76    -2.9  130   0     979.1    NA       0.0000   9999     5120  0     0    
2019/03/08  21:20:00  BASE  5.3508   109  6.74436  114  0.9   76    -2.8  130   0     979.1    NA       0.0000   9999     4860  0     0    
2019/03/08  21:21:00  BASE  5.1156   109  6.71496  117  0.9   77    -2.7  130   0     979.1    NA       0.0000   9999     4920  0     0    
2019/03/08  21:22:00  BASE  5.19792  110  6.71496  117  0.9   77    -2.6  129   0     979.1    NA       0.0000   9999     4990  0     0    
2019/03/08  21:23:00  BASE  5.48016  113  6.07992  112  1.0   77    -2.7  128   0     979.1    NA       0.0000   9999     5180  8140  0    
2019/03/08  21:24:00  BASE  5.42136  117  6.07992  112  1.0   76    -2.7  127   0     979.1    NA       0.0000   9999     5120  8040  0    
2019/03/08  21:25:00  BASE  4.80396  118  6.07992  112  1.0   76    -2.8  125   0     979.1    NA       0.0000   9999     5120  8070  0    
2019/03/08  21:26:00  BASE  4.13364  116  6.07992  112  1.0   76    -2.8  123   0     979.1    NA       0.0000   9999     5020  0     0    
2019/03/08  21:27:00  BASE  3.92784  114  6.07992  112  0.9   76    -2.8  121   0     979.1    NA       0.0000   9999     5020  8100  0    
2019/03/08  21:28:00  BASE  3.85728  110  6.07992  112  0.9   77    -2.7  119   0     979.1    NA       0.0000   9999     7740  0     0    
2019/03/08  21:29:00  BASE  4.08072  109  5.89764  112  0.9   78    -2.6  117   0     979.1    NA       0.0000   9999     7710  0     0    
2019/03/08  21:30:00  BASE  4.80984  112  5.89764  112  0.9   78    -2.5  114   0     979.0    NA       0.0000   9999     7780  0     0    
2019/03/08  21:31:00  BASE  4.998    113  5.89764  112  0.9   78    -2.5  111   0     979.0    NA       0.0000   9999     7810  0     0    
2019/03/08  21:32:00  BASE  4.73928  112  5.89764  112  0.9   78    -2.5  109   0     979.0    NA       0.0000   9999     7970  0     0    
2019/03/08  21:33:00  BASE  4.33356  104  5.65656  113  0.9   77    -2.6  106   0     979.0    NA       0.0000   9999     4230  0     0    
2019/03/08  21:34:00  BASE  3.91608  97   5.65656  113  0.9   77    -2.6  103   0     979.1    NA       0.0000   9999     4200  0     0    
2019/03/08  21:35:00  BASE  3.26928  88   5.65656  113  0.9   78    -2.5  100   0     979.1    NA       0.0000   9999     4130  0     0    
2019/03/08  21:36:00  BASE  2.35788  60   5.65656  113  0.9   79    -2.3  97    0     979.1    NA       0.0000   9999     4270  0     0    
2019/03/08  21:37:00  BASE  1.94628  17   5.65656  113  0.8   80    -2.2  95    0     979.1    NA       0.0000   9999     4430  0     0    
2019/03/08  21:38:00  BASE  1.86984  354  5.65656  113  0.7   82    -2.0  93    0     979.1    NA       0.0000   9999     4950  0     0    
2019/03/08  21:39:00  BASE  1.39944  340  5.65656  113  0.6   84    -1.7  92    0     979.1    NA       0.0000   9999     5050  0     0    
2019/03/08  21:40:00  BASE  0.8232   316  5.53308  115  0.6   86    -1.5  91    0     979.1    NA       0.0000   9999     4820  0     0    
2019/03/08  21:41:01  BASE  0.5586   311  5.2038   110  0.5   88    -1.3  91    0     979.1    NA       0.0000   9999     4860  0     0    
2019/03/08  21:42:00  BASE  1.31712  324  4.86864  115  0.5   90    -1.0  91    0     979.1    NA       0.0000   9999     4100  0     0    
2019/03/08  21:43:00  BASE  2.81652  339  4.50996  99   0.5   91    -0.8  90    0     979.1    NA       0.0000   9999     3940  0     0    
2019/03/08  21:44:01  BASE  3.087    344  3.93372  85   0.4   92    -0.7  89    0     979.0    NA       0.0000   9999     3900  0     0    
2019/03/08  21:45:01  BASE  3.087    343  4.02192  349  0.4   92    -0.7  87    0     979.0    NA       0.0000   9999     4790  0     0    
2019/03/08  21:46:01  BASE  2.79888  344  4.02192  349  0.3   93    -0.7  85    0     979.0    NA       0.0000   9999     4820  0     0    
2019/03/08  21:47:01  BASE  2.35788  341  4.02192  349  0.3   93    -0.7  82    0     979.0    NA       0.0000   9999     4790  0     0    
2019/03/08  21:48:01  BASE  2.78124  340  4.02192  349  0.3   94    -0.6  79    0     979.0    NA       0.0000   9999     4040  0     0    
2019/03/08  21:49:01  BASE  2.87532  335  4.02192  349  0.3   94    -0.5  77    0     979.0    NA       0.0000   9999     3970  0     0    
2019/03/08  21:50:01  BASE  2.7636   333  4.02192  349  0.3   95    -0.5  75    0     979.0    NA       0.0000   9999     4000  0     0    
2019/03/08  21:51:01  BASE  2.76948  336  4.02192  349  0.3   95    -0.4  72    0     979.0    NA       0.0000   9999     3670  0     0    
2019/03/08  21:52:01  BASE  2.51076  332  4.02192  349  0.2   96    -0.3  70    0     979.0    NA       0.0000   9999     0     0     0    
2019/03/08  21:53:01  BASE  1.9992   308  4.02192  349  0.2   97    -0.3  68    0     979.0    NA       0.0000   9999     3540  0     0    
2019/03/08  21:54:01  BASE  1.8228   295  4.02192  349  0.1   97    -0.2  66    0     979.0    NA       0.0000   9999     0     0     0    
2019/03/08  21:55:01  BASE  2.19912  315  3.38688  317  0.1   98    -0.2  65    0     979.0    NA       0.0000   9999     0     0     0    
2019/03/08  21:56:01  BASE  2.51076  325  3.38688  317  0.1   98    -0.2  63    0     979.0    NA       0.0000   9999     3970  0     0    
2019/03/08  21:57:01  BASE  2.54016  328  3.38688  317  0.1   98    -0.2  62    0     979.0    NA       0.0000   9999     3970  0     0    
2019/03/08  21:58:01  BASE  2.57544  325  3.38688  317  0.0   99    -0.1  60    0     979.0    NA       0.0000   9999     3870  0     0    
2019/03/08  21:59:01  BASE  2.6166   321  3.38688  317  -0.0  99    -0.1  59    0     978.9    NA       0.0000   9999     3840  0     0    
2019/03/08  22:00:01  BASE  2.6166   320  3.38688  317  -0.1  100   -0.1  57    0     978.9    NA       0.0000   9999     3840  0     0    
2019/03/08  22:01:01  BASE  2.76948  323  3.38688  317  -0.1  100   -0.1  56    0     978.9    NA       0.0000   9999     3640  0     0    
2019/03/08  22:02:01  BASE  2.94588  327  3.48096  326  -0.1  100   -0.1  55    0     978.9    NA       0.0000   9999     3940  0     0    
2019/03/08  22:03:01  BASE  3.12816  330  3.62796  333  -0.1  100   -0.1  53    0     978.9    NA       0.0000   9999     3970  0     0    
2019/03/08  22:04:01  BASE  3.4692   333  3.75144  336  -0.1  100   -0.1  52    0     978.9    NA       0.0000   9999     3970  0     0    
2019/03/08  22:05:01  BASE  3.63972  334  3.86904  335  -0.1  100   -0.1  51    0     978.9    NA       0.0000   9999     3940  0     0    
2019/03/08  22:06:01  BASE  3.4986   330  3.86904  335  -0.0  100   -0.0  49    0     978.9    NA       0.0000   9999     3900  0     0    
2019/03/08  22:07:01  BASE  3.36924  329  3.86904  335  0.0   100   0.0   48    0     978.8    NA       0.0000   9999     3870  0     0    
2019/03/08  22:08:01  BASE  3.39864  332  3.86904  335  0.1   100   0.1   46    0     978.7    NA       0.0000   9999     3810  0     0    
2019/03/08  22:09:01  BASE  3.1164   334  3.86904  335  0.0   100   0.0   44    0     978.7    NA       0.0000   9999     3770  0     0    
2019/03/08  22:10:01  BASE  2.68128  339  3.86904  335  0.1   100   0.1   43    0     978.7    NA       0.0000   9999     3640  0     0    
2019/03/08  22:11:01  BASE  2.5578   343  3.86904  335  0.0   100   0.0   42    0     978.7    NA       0.0000   9999     3480  0     0    
2019/03/08  22:12:01  BASE  2.5578   343  3.86904  335  -0.0  100   -0.0  41    0     978.7    NA       0.0000   9999     3510  0     0    
2019/03/08  22:13:01  BASE  2.45196  342  3.86904  335  -0.0  100   -0.0  39    0     978.7    NA       0.0000   9999     3450  0     0    
2019/03/08  22:14:01  BASE  2.18736  342  3.86904  335  -0.1  100   -0.1  38    0     978.7    NA       0.0000   9999     3480  0     0    
2019/03/08  22:15:01  BASE  2.14032  339  3.69264  331  -0.1  100   -0.1  37    0     978.7    NA       0.0000   9999     3450  0     0    
2019/03/08  22:16:01  BASE  2.14032  343  3.69264  331  -0.2  100   -0.2  36    0     978.7    NA       0.0000   9999     3450  0     0    
2019/03/08  22:17:01  BASE  1.64052  347  3.69264  331  -0.2  100   -0.2  36    0     978.7    NA       0.0000   9999     3540  0     0    
2019/03/08  22:18:01  BASE  0.9996   341  3.087    339  -0.2  100   -0.2  35    0     978.7    NA       0.0000   9999     3580  0     0    
2019/03/08  22:19:01  BASE  0.92904  344  2.93412  336  -0.2  100   -0.2  34    0     978.6    NA       0.0000   9999     3610  0     0    
2019/03/08  22:20:01  BASE  1.68168  346  2.69304  344  -0.2  100   -0.2  34    0     978.6    NA       0.0000   9999     3540  0     0    
2019/03/08  22:21:01  BASE  2.01096  341  2.69304  344  -0.1  100   -0.1  33    0     978.6    NA       0.0000   9999     4230  0     0    
2019/03/08  22:22:01  BASE  1.68168  340  2.54016  344  -0.2  100   -0.2  32    0     978.6    NA       0.0000   9999     4170  0     0    
2019/03/08  22:23:01  BASE  1.27596  340  2.42256  3    -0.1  100   -0.1  31    0     978.6    NA       0.0000   9999     4230  0     0    
2019/03/08  22:24:01  BASE  1.07604  341  2.42256  3    -0.1  100   -0.1  30    0     978.6    NA       0.0000   9999     4100  0     0    
2019/03/08  22:25:01  BASE  1.22892  344  2.42256  3    -0.2  100   -0.2  29    0     978.6    NA       0.0000   9999     3770  0     0    
2019/03/08  22:26:01  BASE  1.46412  346  2.29908  343  -0.2  100   -0.2  29    0     978.5    NA       0.0000   9999     2590  0     0    
2019/03/08  22:27:01  BASE  1.92276  342  2.29908  333  -0.1  100   -0.1  28    0     978.5    NA       0.0000   9999     4170  0     0    
2019/03/08  22:28:01  BASE  2.22264  337  2.35788  331  -0.1  100   -0.1  27    0     978.5    NA       0.0000   9999     4130  0     0    
2019/03/08  22:29:01  BASE  2.24616  336  2.51076  335  -0.1  100   -0.1  26    0     978.5    NA       0.0000   9999     4100  0     0    
2019/03/08  22:30:01  BASE  2.18148  337  2.51076  335  -0.1  100   -0.1  25    0     978.5    NA       0.0000   9999     4070  0     0    
2019/03/08  22:31:01  BASE  2.12268  340  2.51076  335  -0.1  100   -0.1  24    0     978.5    NA       0.0000   9999     4040  0     0    
2019/03/08  22:32:01  BASE  2.15796  338  2.51076  335  -0.1  100   -0.1  24    0     978.5    NA       0.0000   9999     4040  0     0    
2019/03/08  22:33:01  BASE  2.1168   337  2.51076  335  -0.1  100   -0.1  23    0     978.5    NA       0.0000   9999     4040  0     0    
2019/03/08  22:34:01  BASE  1.91688  338  2.51076  335  -0.1  100   -0.1  22    0     978.5    NA       0.0000   9999     4000  0     0    
2019/03/08  22:35:01  BASE  1.45824  340  2.51076  335  -0.1  100   -0.1  21    0     978.5    NA       0.0000   9999     3940  0     0    
2019/03/08  22:36:01  BASE  0.84672  343  2.51076  335  -0.1  100   -0.1  20    0     978.5    NA       0.0000   9999     3900  0     0    
2019/03/08  22:37:01  BASE  0.65856  336  2.51076  335  -0.1  100   -0.1  19    0     978.5    NA       0.0000   9999     3900  0     0    
2019/03/08  22:38:01  BASE  0.7938   329  2.51076  335  -0.1  100   -0.1  18    0     978.5    NA       0.0000   9999     3900  0     0    
2019/03/08  22:39:01  BASE  0.9996   333  2.29908  338  -0.1  100   -0.1  17    0     978.5    NA       0.0000   9999     3900  0     0    
2019/03/08  22:40:01  BASE  1.45236  337  2.29908  338  -0.1  100   -0.1  16    0     978.5    NA       0.0000   9999     3940  0     0    
2019/03/08  22:41:01  BASE  1.66992  337  2.29908  338  -0.0  100   -0.0  15    0     978.5    NA       0.0000   9999     3940  0     0    
2019/03/08  22:42:01  BASE  1.39944  334  2.1756   333  0.0   100   0.0   15    0     978.5    NA       0.0000   9999     3970  0     0    
2019/03/08  22:43:01  BASE  1.15248  330  2.0286   343  0.0   100   0.0   14    0     978.5    NA       0.0000   9999     4040  0     0    
2019/03/08  22:44:01  BASE  1.1466   326  1.93452  343  0.1   100   0.1   13    0     978.5    NA       0.0000   9999     3250  4040  0    
2019/03/08  22:45:01  BASE  1.25244  317  1.93452  343  0.1   100   0.1   13    0     978.5    NA       0.0000   9999     4040  0     0    
2019/03/08  22:46:01  BASE  1.28772  307  1.93452  343  0.1   100   0.1   12    0     978.5    NA       0.0000   9999     3280  4100  0    
2019/03/08  22:47:01  BASE  1.35828  303  1.93452  343  0.1   100   0.1   12    0     978.5    NA       0.0000   9999     3250  4070  0    
2019/03/08  22:48:00  BASE  1.71108  301  2.29908  297  0.1   100   0.1   11    0     978.5    NA       0.0000   9999     3280  0     0    
2019/03/08  22:49:00  BASE  2.10504  297  2.45196  299  0.1   100   0.1   11    0     978.5    NA       0.0000   9999     3180  4040  0    
2019/03/08  22:50:01  BASE  2.352    298  2.54016  303  0.1   100   0.1   10    0     978.5    NA       0.0000   9999     3220  0     0    
2019/03/08  22:51:00  BASE  2.36964  304  2.54016  303  0.1   100   0.1   10    0     978.5    NA       0.0000   9999     3900  0     0    
2019/03/08  22:52:00  BASE  2.34024  306  2.54016  303  0.1   100   0.1   10    0     978.5    NA       0.0000   9999     4000  0     0    
2019/03/08  22:53:00  BASE  2.3226   305  2.54016  303  0.0   100   0.0   9     0     978.5    NA       0.0000   9999     4040  0     0    
2019/03/08  22:54:00  BASE  2.28732  303  2.54016  303  0.0   100   0.0   9     0     978.5    NA       0.0000   9999     4070  0     0    
2019/03/08  22:55:00  BASE  2.29908  303  2.54016  303  -0.0  100   -0.0  8     0     978.5    NA       0.0000   9999     4000  0     0    
2019/03/08  22:56:00  BASE  2.35788  305  2.56956  306  -0.0  100   -0.0  8     0     978.5    NA       0.0000   9999     4720  0     0    
2019/03/08  22:57:00  BASE  2.39316  308  2.56956  306  -0.1  100   -0.1  8     0     978.5    NA       0.0000   9999     4720  0     0    
2019/03/08  22:58:00  BASE  2.28732  310  2.56956  306  -0.1  100   -0.1  7     0     978.5    NA       0.0000   9999     4690  0     0    
2019/03/08  22:59:00  BASE  2.11092  312  2.56956  306  -0.2  100   -0.2  7     0     978.4    NA       0.0000   9999     4760  0     0    
2019/03/08  23:00:01  BASE  1.92864  313  2.56956  306  -0.2  100   -0.2  6     0     978.5    NA       0.0000   9999     4860  0     0    
2019/03/08  23:01:00  BASE  1.82868  314  2.56956  306  -0.2  100   -0.2  6     0     978.5    NA       0.0000   9999     4860  0     0    
2019/03/08  23:02:00  BASE  1.75812  316  2.56956  306  -0.2  100   -0.2  6     0     978.4    NA       0.0000   9999     4720  0     0    
2019/03/08  23:03:00  BASE  1.68756  318  2.56956  306  -0.3  100   -0.3  5     0     978.4    NA       0.0000   9999     4760  0     0    
2019/03/08  23:04:01  BASE  1.63464  320  2.56956  306  -0.3  100   -0.3  5     0     978.4    NA       0.0000   9999     4590  0     0    
2019/03/08  23:05:01  BASE  1.59348  322  2.56956  306  -0.3  100   -0.3  5     0     978.4    NA       0.0000   9999     3410  0     0    
2019/03/08  23:06:01  BASE  1.54056  323  2.48136  308  -0.3  100   -0.3  5     0     978.4    NA       0.0000   9999     3410  0     0    
2019/03/08  23:07:01  BASE  1.42296  327  2.32848  309  -0.3  100   -0.3  4     0     978.4    NA       0.0000   9999     4360  0     0    
2019/03/08  23:08:01  BASE  1.28772  331  2.1462   312  -0.3  100   -0.3  4     0     978.4    NA       0.0000   9999     4630  0     0    
2019/03/08  23:09:01  BASE  1.28184  331  1.93452  308  -0.3  100   -0.3  4     0     978.4    NA       0.0000   9999     4860  0     0    
2019/03/08  23:10:01  BASE  1.31124  332  1.87572  314  -0.2  100   -0.2  4     0     978.4    NA       0.0000   9999     4690  0     0    
2019/03/08  23:11:01  BASE  1.176    333  1.78752  314  -0.2  100   -0.2  4     0     978.4    NA       0.0000   9999     4330  0     0    
2019/03/08  23:12:01  BASE  0.93492  330  1.72284  318  -0.2  100   -0.2  3     0     978.3    NA       0.0000   9999     3740  0     0    
2019/03/08  23:13:01  BASE  0.74676  324  1.63464  323  -0.2  100   -0.2  3     0     978.3    NA       0.0000   9999     3510  0     0    
2019/03/08  23:14:01  BASE  0.39396  319  1.63464  323  -0.2  100   -0.2  3     0     978.3    NA       0.0000   9999     3250  0     0    
2019/03/08  23:15:01  BASE  0.05292  321  1.57584  323  -0.2  100   -0.2  3     0     978.3    NA       0.0000   9999     3310  0     0    
2019/03/08  23:16:01  BASE  0.11172  329  1.51116  334  -0.2  100   -0.2  3     0     978.3    NA       0.0000   9999     3350  0     0    
2019/03/08  23:17:01  BASE  0.38808  337  1.51116  334  -0.2  100   -0.2  3     0     978.3    NA       0.0000   9999     3050  0     0    
2019/03/08  23:18:01  BASE  0.3822   340  1.51116  334  -0.2  100   -0.2  3     0     978.3    NA       0.0000   9999     6860  0     0    
2019/03/08  23:19:01  BASE  0.12936  337  1.45236  339  -0.2  100   -0.2  2     0     978.3    NA       0.0000   9999     6040  0     0    
2019/03/08  23:20:01  BASE  0.13524  330  1.21128  332  -0.3  100   -0.3  2     0     978.3    NA       0.0000   9999     6000  0     0    
2019/03/08  23:21:01  BASE  0.13524  324  0.9702   337  -0.3  100   -0.3  2     0     978.3    NA       0.0000   9999     6000  0     0    
2019/03/08  23:22:01  BASE  0.15876  320  0.87612  318  -0.3  100   -0.3  2     0     978.3    NA       0.0000   9999     4400  0     0    
2019/03/08  23:23:01  BASE  0.21168  318  0.72324  325  -0.3  100   -0.3  2     0     978.3    NA       0.0000   9999     3610  4400  0    
2019/03/08  23:24:01  BASE  0.10584  317  0.72324  325  -0.3  100   -0.3  2     0     978.3    NA       0.0000   9999     3510  4590  0    
2019/03/08  23:25:01  BASE  0.12936  318  0.72324  325  -0.3  100   -0.3  2     0     978.2    NA       0.0000   9999     4430  6000  0    
2019/03/08  23:26:01  BASE  0.2058   313  0.72324  325  -0.3  100   -0.3  2     0     978.2    NA       0.0000   9999     4400  0     0    
2019/03/08  23:27:01  BASE  0.34104  303  0.75852  293  -0.3  100   -0.3  1     0     978.2    NA       0.0000   9999     4330  0     0    
2019/03/08  23:28:01  BASE  0.54096  296  0.75852  293  -0.3  100   -0.3  1     0     978.2    NA       0.0000   9999     4330  0     0    
2019/03/08  23:29:01  BASE  0.30576  293  0.75852  293  -0.3  100   -0.3  1     0     978.2    NA       0.0000   9999     3410  4360  0    
2019/03/08  23:30:01  BASE  0.1176   293  0.75852  293  -0.3  100   -0.3  1     0     978.2    NA       0.0000   9999     3450  4300  0    
2019/03/08  23:31:01  BASE  0.18816  289  0.75852  293  -0.3  100   -0.3  1     0     978.2    NA       0.0000   9999     4200  0     0    
2019/03/08  23:32:01  BASE  0.19404  287  0.81732  294  -0.3  100   -0.3  1     0     978.2    NA       0.0000   9999     4200  0     0    
2019/03/08  23:33:01  BASE  0.4704   297  0.93492  302  -0.3  100   -0.3  1     0     978.2    NA       0.0000   9999     4040  0     0    
2019/03/08  23:34:01  BASE  0.87612  304  1.1466   302  -0.3  100   -0.3  1     0     978.2    NA       0.0000   9999     4070  0     0    
2019/03/08  23:35:01  BASE  1.08192  301  1.1466   298  -0.3  100   -0.3  1     0     978.2    NA       0.0000   9999     4000  0     0    
2019/03/08  23:36:01  BASE  1.15836  299  1.27008  301  -0.3  100   -0.3  1     0     978.2    NA       0.0000   9999     3900  0     0    
2019/03/08  23:37:01  BASE  1.13484  302  1.27008  301  -0.3  100   -0.3  1     0     978.2    NA       0.0000   9999     3840  5250  0    
2019/03/08  23:38:01  BASE  1.0584   308  1.27008  301  -0.3  100   -0.3  1     0     978.2    NA       0.0000   9999     3640  0     0    
2019/03/08  23:39:01  BASE  0.9702   308  1.27008  301  -0.3  100   -0.3  0     0     978.2    NA       0.0000   9999     3580  0     0    
2019/03/08  23:40:01  BASE  0.7938   308  1.27008  301  -0.3  100   -0.3  0     0     978.2    NA       0.0000   9999     4360  0     0    
2019/03/08  23:41:01  BASE  0.53508  307  1.27008  301  -0.3  100   -0.3  0     0     978.2    NA       0.0000   9999     3710  0     0    
2019/03/08  23:42:01  BASE  0.21756  305  1.27008  301  -0.3  100   -0.3  0     0     978.2    NA       0.0000   9999     3670  0     0    
2019/03/08  23:43:01  BASE  0.25872  312  1.27008  301  -0.3  100   -0.3  0     0     978.2    NA       0.0000   9999     3740  4990  0    
2019/03/08  23:44:01  BASE  0.66444  322  1.27008  301  -0.3  100   -0.3  0     0     978.2    NA       0.0000   9999     5020  16500 0    
2019/03/08  23:45:01  BASE  0.90552  325  1.27008  301  -0.3  100   -0.3  0     0     978.2    NA       0.0000   9999     3580  4860  0    
2019/03/08  23:46:01  BASE  1.01136  324  1.21128  302  -0.4  100   -0.4  0     0     978.2    NA       0.0000   9999     4760  16500 0    
2019/03/08  23:47:01  BASE  1.09956  325  1.18188  323  -0.4  100   -0.4  0     0     978.2    NA       0.0000   9999     3970  16440 0    
2019/03/08  23:48:01  BASE  1.08192  330  1.18188  323  -0.4  100   -0.4  0     0     978.2    NA       0.0000   9999     3810  0     0    
2019/03/08  23:49:01  BASE  1.02312  335  1.18188  323  -0.4  100   -0.4  0     0     978.2    NA       0.0000   9999     3510  4860  16440
2019/03/08  23:50:01  BASE  0.99372  336  1.18188  323  -0.4  100   -0.4  0     0     978.2    NA       0.0000   9999     3510  16440 0    
2019/03/08  23:51:01  BASE  0.95844  336  1.18188  323  -0.4  100   -0.4  0     0     978.2    NA       0.0000   9999     3640  16370 0    
2019/03/08  23:52:01  BASE  0.86436  342  1.18188  323  -0.3  100   -0.3  0     0     978.2    NA       0.0000   9999     3710  16410 0    
2019/03/08  23:53:01  BASE  0.5586   356  1.18188  323  -0.3  100   -0.3  0     0     978.2    NA       0.0000   9999     3610  5910  16440
2019/03/08  23:54:01  BASE  0.16464  11   1.18188  323  -0.3  100   -0.3  0     0     978.2    NA       0.0000   9999     3540  16470 0    
2019/03/08  23:55:01  BASE  0        22   1.18188  323  -0.3  100   -0.3  0     0     978.2    NA       0.0000   9999     4360  16340 0    
2019/03/08  23:56:01  BASE  0        24   1.18188  323  -0.3  100   -0.3  0     0     978.2    NA       0.0000   9999     4400  0     0    
2019/03/08  23:57:01  BASE  0.05292  17   1.0878   333  -0.4  100   -0.4  0     0     978.2    NA       0.0000   9999     4270  0     0    
2019/03/08  23:58:01  BASE  0.3528   12   1.0878   333  -0.4  100   -0.4  0     0     978.2    NA       0.0000   9999     4270  0     0    
2019/03/08  23:59:01  BASE  0.66444  10   1.029    338  -0.4  100   -0.4  0     0     978.2    NA       0.0000   9999     3740  16570 0